<?xml version="1.0" encoding="utf-8"?>
<gpx xmlns:xsi="http://www.w3.org/2001/XMLSchema-instance" xmlns:xsd="http://www.w3.org/2001/XMLSchema" version="1.1" creator="Shapelink.com" xmlns="http://www.topografix.com/GPX/1/1" xmlns:gpxtpx="http://www.garmin.com/xmlschemas/TrackPointExtension/v1">
  <metadata>
    <name>Alpine skiing 13.91 km, 2019-01-07</name>
    <desc></desc>
    <author><name>Stefan Östlund</name></author> 
    <time>2019-01-07T11:49:25Z</time>
  </metadata>
  <trk>
    <name>Alpine skiing 13.91 km, 2019-01-07</name>
    <trkseg>
      <trkpt lat="37.065449702533" lon="-3.388309817194">
        <ele>2759.6</ele>
        <time>2019-01-07T11:49:25Z</time>
      </trkpt>
      <trkpt lat="37.065447858515" lon="-3.388307051167">
        <ele>2759</ele>
        <time>2019-01-07T11:49:27Z</time>
      </trkpt>
      <trkpt lat="37.065477111346" lon="-3.388285090589">
        <ele>2758</ele>
        <time>2019-01-07T11:50:01Z</time>
      </trkpt>
      <trkpt lat="37.065606946977" lon="-3.388180065382">
        <ele>2756.8</ele>
        <time>2019-01-07T11:50:06Z</time>
      </trkpt>
      <trkpt lat="37.065700069886" lon="-3.388179227192">
        <ele>2756.2</ele>
        <time>2019-01-07T11:50:08Z</time>
      </trkpt>
      <trkpt lat="37.065749523096" lon="-3.388161625202">
        <ele>2755.6</ele>
        <time>2019-01-07T11:50:09Z</time>
      </trkpt>
      <trkpt lat="37.065807106749" lon="-3.388152405112">
        <ele>2754.6</ele>
        <time>2019-01-07T11:50:10Z</time>
      </trkpt>
      <trkpt lat="37.065863516936" lon="-3.388150225818">
        <ele>2753.4</ele>
        <time>2019-01-07T11:50:11Z</time>
      </trkpt>
      <trkpt lat="37.065935182181" lon="-3.388139916081">
        <ele>2752.4</ele>
        <time>2019-01-07T11:50:12Z</time>
      </trkpt>
      <trkpt lat="37.066012966213" lon="-3.38813664714">
        <ele>2751</ele>
        <time>2019-01-07T11:50:13Z</time>
      </trkpt>
      <trkpt lat="37.066128636433" lon="-3.388147962705">
        <ele>2749.4</ele>
        <time>2019-01-07T11:50:14Z</time>
      </trkpt>
      <trkpt lat="37.066256711865" lon="-3.388147124515">
        <ele>2747</ele>
        <time>2019-01-07T11:50:15Z</time>
      </trkpt>
      <trkpt lat="37.066391911912" lon="-3.388177215536">
        <ele>2744.4</ele>
        <time>2019-01-07T11:50:16Z</time>
      </trkpt>
      <trkpt lat="37.06653289547" lon="-3.388195404259">
        <ele>2741.4</ele>
        <time>2019-01-07T11:50:17Z</time>
      </trkpt>
      <trkpt lat="37.066662144368" lon="-3.388160619374">
        <ele>2739</ele>
        <time>2019-01-07T11:50:18Z</time>
      </trkpt>
      <trkpt lat="37.066785945031" lon="-3.388118542236">
        <ele>2736.6</ele>
        <time>2019-01-07T11:50:19Z</time>
      </trkpt>
      <trkpt lat="37.066922067087" lon="-3.388132707647">
        <ele>2734.2</ele>
        <time>2019-01-07T11:50:20Z</time>
      </trkpt>
      <trkpt lat="37.067046286845" lon="-3.388171096749">
        <ele>2731.2</ele>
        <time>2019-01-07T11:50:21Z</time>
      </trkpt>
      <trkpt lat="37.067160951237" lon="-3.388197080639">
        <ele>2729</ele>
        <time>2019-01-07T11:50:22Z</time>
      </trkpt>
      <trkpt lat="37.067267820462" lon="-3.388180568296">
        <ele>2726.4</ele>
        <time>2019-01-07T11:50:23Z</time>
      </trkpt>
      <trkpt lat="37.067366810701" lon="-3.388193057327">
        <ele>2724</ele>
        <time>2019-01-07T11:50:24Z</time>
      </trkpt>
      <trkpt lat="37.067459849791" lon="-3.388207725652">
        <ele>2721.4</ele>
        <time>2019-01-07T11:50:25Z</time>
      </trkpt>
      <trkpt lat="37.0675529727" lon="-3.388188112006">
        <ele>2719.4</ele>
        <time>2019-01-07T11:50:26Z</time>
      </trkpt>
      <trkpt lat="37.067638048985" lon="-3.388169671826">
        <ele>2718</ele>
        <time>2019-01-07T11:50:27Z</time>
      </trkpt>
      <trkpt lat="37.067724466374" lon="-3.388141592461">
        <ele>2716.6</ele>
        <time>2019-01-07T11:50:28Z</time>
      </trkpt>
      <trkpt lat="37.067812895419" lon="-3.388089037948">
        <ele>2715.2</ele>
        <time>2019-01-07T11:50:29Z</time>
      </trkpt>
      <trkpt lat="37.067893110202" lon="-3.388025503146">
        <ele>2713.8</ele>
        <time>2019-01-07T11:50:30Z</time>
      </trkpt>
      <trkpt lat="37.067967625293" lon="-3.387956352471">
        <ele>2712.8</ele>
        <time>2019-01-07T11:50:31Z</time>
      </trkpt>
      <trkpt lat="37.068077092907" lon="-3.387830204876">
        <ele>2711</ele>
        <time>2019-01-07T11:50:33Z</time>
      </trkpt>
      <trkpt lat="37.068143477555" lon="-3.387684946549">
        <ele>2710</ele>
        <time>2019-01-07T11:50:36Z</time>
      </trkpt>
      <trkpt lat="37.068151943274" lon="-3.387652927691">
        <ele>2709.6</ele>
        <time>2019-01-07T11:50:37Z</time>
      </trkpt>
      <trkpt lat="37.068267194399" lon="-3.387653682062">
        <ele>2708.8</ele>
        <time>2019-01-07T11:50:40Z</time>
      </trkpt>
      <trkpt lat="37.068387893759" lon="-3.387727526601">
        <ele>2707.2</ele>
        <time>2019-01-07T11:50:42Z</time>
      </trkpt>
      <trkpt lat="37.068462576488" lon="-3.387747978437">
        <ele>2706.2</ele>
        <time>2019-01-07T11:50:43Z</time>
      </trkpt>
      <trkpt lat="37.068545976393" lon="-3.38776365259">
        <ele>2704.8</ele>
        <time>2019-01-07T11:50:44Z</time>
      </trkpt>
      <trkpt lat="37.068634740714" lon="-3.387799862398">
        <ele>2703.4</ele>
        <time>2019-01-07T11:50:45Z</time>
      </trkpt>
      <trkpt lat="37.068722583026" lon="-3.387855266757">
        <ele>2701.6</ele>
        <time>2019-01-07T11:50:46Z</time>
      </trkpt>
      <trkpt lat="37.068816627944" lon="-3.387880831552">
        <ele>2699.8</ele>
        <time>2019-01-07T11:50:47Z</time>
      </trkpt>
      <trkpt lat="37.068904051161" lon="-3.387892063298">
        <ele>2697.8</ele>
        <time>2019-01-07T11:50:48Z</time>
      </trkpt>
      <trkpt lat="37.068990720007" lon="-3.38791871774">
        <ele>2695.8</ele>
        <time>2019-01-07T11:50:49Z</time>
      </trkpt>
      <trkpt lat="37.069070348057" lon="-3.387966326932">
        <ele>2693.8</ele>
        <time>2019-01-07T11:50:50Z</time>
      </trkpt>
      <trkpt lat="37.069143689682" lon="-3.388024078223">
        <ele>2692</ele>
        <time>2019-01-07T11:50:51Z</time>
      </trkpt>
      <trkpt lat="37.069214432918" lon="-3.38809138488">
        <ele>2690.4</ele>
        <time>2019-01-07T11:50:52Z</time>
      </trkpt>
      <trkpt lat="37.06928551143" lon="-3.388150477275">
        <ele>2689.2</ele>
        <time>2019-01-07T11:50:53Z</time>
      </trkpt>
      <trkpt lat="37.069362121996" lon="-3.388180652115">
        <ele>2688</ele>
        <time>2019-01-07T11:50:54Z</time>
      </trkpt>
      <trkpt lat="37.069440911856" lon="-3.388191548585">
        <ele>2686.8</ele>
        <time>2019-01-07T11:50:55Z</time>
      </trkpt>
      <trkpt lat="37.06952188101" lon="-3.388192135318">
        <ele>2685.6</ele>
        <time>2019-01-07T11:50:56Z</time>
      </trkpt>
      <trkpt lat="37.069600503232" lon="-3.388166235247">
        <ele>2684.6</ele>
        <time>2019-01-07T11:50:57Z</time>
      </trkpt>
      <trkpt lat="37.069674347771" lon="-3.388141843918">
        <ele>2683.4</ele>
        <time>2019-01-07T11:50:58Z</time>
      </trkpt>
      <trkpt lat="37.06974819231" lon="-3.38813664714">
        <ele>2682</ele>
        <time>2019-01-07T11:50:59Z</time>
      </trkpt>
      <trkpt lat="37.069821869211" lon="-3.388156093148">
        <ele>2680.6</ele>
        <time>2019-01-07T11:51:00Z</time>
      </trkpt>
      <trkpt lat="37.069900323795" lon="-3.38816346922">
        <ele>2679.4</ele>
        <time>2019-01-07T11:51:01Z</time>
      </trkpt>
      <trkpt lat="37.06997701818" lon="-3.388159445908">
        <ele>2678.4</ele>
        <time>2019-01-07T11:51:02Z</time>
      </trkpt>
      <trkpt lat="37.070048851063" lon="-3.388171767301">
        <ele>2677</ele>
        <time>2019-01-07T11:51:03Z</time>
      </trkpt>
      <trkpt lat="37.070117079729" lon="-3.388189201653">
        <ele>2675.8</ele>
        <time>2019-01-07T11:51:04Z</time>
      </trkpt>
      <trkpt lat="37.070182039454" lon="-3.388180484477">
        <ele>2674.8</ele>
        <time>2019-01-07T11:51:05Z</time>
      </trkpt>
      <trkpt lat="37.070243143505" lon="-3.388175539156">
        <ele>2673.6</ele>
        <time>2019-01-07T11:51:06Z</time>
      </trkpt>
      <trkpt lat="37.070309025239" lon="-3.388184675427">
        <ele>2672.4</ele>
        <time>2019-01-07T11:51:07Z</time>
      </trkpt>
      <trkpt lat="37.070374487878" lon="-3.388204037616">
        <ele>2671</ele>
        <time>2019-01-07T11:51:08Z</time>
      </trkpt>
      <trkpt lat="37.070437771223" lon="-3.388219544131">
        <ele>2670.2</ele>
        <time>2019-01-07T11:51:09Z</time>
      </trkpt>
      <trkpt lat="37.070504574966" lon="-3.388218119208">
        <ele>2669.6</ele>
        <time>2019-01-07T11:51:10Z</time>
      </trkpt>
      <trkpt lat="37.070569115596" lon="-3.388220047045">
        <ele>2669</ele>
        <time>2019-01-07T11:51:11Z</time>
      </trkpt>
      <trkpt lat="37.070630471104" lon="-3.38823471537">
        <ele>2668.2</ele>
        <time>2019-01-07T11:51:12Z</time>
      </trkpt>
      <trkpt lat="37.07075653488" lon="-3.388282324562">
        <ele>2667</ele>
        <time>2019-01-07T11:51:14Z</time>
      </trkpt>
      <trkpt lat="37.070864577571" lon="-3.388362371707">
        <ele>2665.8</ele>
        <time>2019-01-07T11:51:16Z</time>
      </trkpt>
      <trkpt lat="37.070924843432" lon="-3.388418865713">
        <ele>2664.6</ele>
        <time>2019-01-07T11:51:18Z</time>
      </trkpt>
      <trkpt lat="37.070943199793" lon="-3.388426157966">
        <ele>2663.6</ele>
        <time>2019-01-07T11:51:20Z</time>
      </trkpt>
      <trkpt lat="37.071012434287" lon="-3.388455829892">
        <ele>2662.8</ele>
        <time>2019-01-07T11:51:26Z</time>
      </trkpt>
      <trkpt lat="37.071019055988" lon="-3.38845348296">
        <ele>2662.8</ele>
        <time>2019-01-07T11:51:28Z</time>
      </trkpt>
      <trkpt lat="37.062926750633" lon="-3.378502826556">
        <ele>2888.8</ele>
        <time>2019-01-07T12:11:34Z</time>
      </trkpt>
      <trkpt lat="37.062822815073" lon="-3.378677086257">
        <ele>2888.2</ele>
        <time>2019-01-07T12:11:40Z</time>
      </trkpt>
      <trkpt lat="37.06270991088" lon="-3.378685300519">
        <ele>2888</ele>
        <time>2019-01-07T12:11:46Z</time>
      </trkpt>
      <trkpt lat="37.062700606971" lon="-3.378648503978">
        <ele>2888.6</ele>
        <time>2019-01-07T12:11:50Z</time>
      </trkpt>
      <trkpt lat="37.056984318809" lon="-3.370038951574">
        <ele>3232.4</ele>
        <time>2019-01-07T12:20:29Z</time>
      </trkpt>
      <trkpt lat="37.05691131246" lon="-3.370091086992">
        <ele>3231.2</ele>
        <time>2019-01-07T12:20:31Z</time>
      </trkpt>
      <trkpt lat="37.056844424898" lon="-3.370128386447">
        <ele>3229.8</ele>
        <time>2019-01-07T12:20:33Z</time>
      </trkpt>
      <trkpt lat="37.056795726059" lon="-3.370156214355">
        <ele>3228.6</ele>
        <time>2019-01-07T12:20:35Z</time>
      </trkpt>
      <trkpt lat="37.056775441861" lon="-3.370165099169">
        <ele>3227.2</ele>
        <time>2019-01-07T12:20:38Z</time>
      </trkpt>
      <trkpt lat="37.05677720206" lon="-3.370163003694">
        <ele>3226.2</ele>
        <time>2019-01-07T12:20:41Z</time>
      </trkpt>
      <trkpt lat="37.056809388556" lon="-3.370208349773">
        <ele>3224.8</ele>
        <time>2019-01-07T12:22:02Z</time>
      </trkpt>
      <trkpt lat="37.056792457118" lon="-3.370240536269">
        <ele>3224.8</ele>
        <time>2019-01-07T12:22:03Z</time>
      </trkpt>
      <trkpt lat="37.05676798197" lon="-3.370391494288">
        <ele>3223.2</ele>
        <time>2019-01-07T12:22:06Z</time>
      </trkpt>
      <trkpt lat="37.056751385808" lon="-3.370432649417">
        <ele>3222</ele>
        <time>2019-01-07T12:22:07Z</time>
      </trkpt>
      <trkpt lat="37.056727497393" lon="-3.370443545887">
        <ele>3220.6</ele>
        <time>2019-01-07T12:22:08Z</time>
      </trkpt>
      <trkpt lat="37.056714253991" lon="-3.370448072113">
        <ele>3219.2</ele>
        <time>2019-01-07T12:22:09Z</time>
      </trkpt>
      <trkpt lat="37.056706710281" lon="-3.370447736837">
        <ele>3217.8</ele>
        <time>2019-01-07T12:22:10Z</time>
      </trkpt>
      <trkpt lat="37.056703189883" lon="-3.370450754321">
        <ele>3216.2</ele>
        <time>2019-01-07T12:22:12Z</time>
      </trkpt>
      <trkpt lat="37.056676703079" lon="-3.37050699687">
        <ele>3215.6</ele>
        <time>2019-01-07T12:22:15Z</time>
      </trkpt>
      <trkpt lat="37.056660861288" lon="-3.37060255053">
        <ele>3215.2</ele>
        <time>2019-01-07T12:22:17Z</time>
      </trkpt>
      <trkpt lat="37.056637894882" lon="-3.37071319161">
        <ele>3213</ele>
        <time>2019-01-07T12:22:19Z</time>
      </trkpt>
      <trkpt lat="37.056591794432" lon="-3.370752754178">
        <ele>3211.2</ele>
        <time>2019-01-07T12:22:20Z</time>
      </trkpt>
      <trkpt lat="37.056534629874" lon="-3.370780330629">
        <ele>3209.2</ele>
        <time>2019-01-07T12:22:21Z</time>
      </trkpt>
      <trkpt lat="37.056489367614" lon="-3.370824335604">
        <ele>3207</ele>
        <time>2019-01-07T12:22:22Z</time>
      </trkpt>
      <trkpt lat="37.056469670149" lon="-3.370892312813">
        <ele>3205.2</ele>
        <time>2019-01-07T12:22:23Z</time>
      </trkpt>
      <trkpt lat="37.056449637408" lon="-3.370965989714">
        <ele>3203.4</ele>
        <time>2019-01-07T12:22:24Z</time>
      </trkpt>
      <trkpt lat="37.056410493935" lon="-3.371029273059">
        <ele>3201.4</ele>
        <time>2019-01-07T12:22:25Z</time>
      </trkpt>
      <trkpt lat="37.056328518953" lon="-3.371047461782">
        <ele>3199</ele>
        <time>2019-01-07T12:22:26Z</time>
      </trkpt>
      <trkpt lat="37.056261296115" lon="-3.371064057944">
        <ele>3196.6</ele>
        <time>2019-01-07T12:22:27Z</time>
      </trkpt>
      <trkpt lat="37.056226595049" lon="-3.371113092059">
        <ele>3194.4</ele>
        <time>2019-01-07T12:22:28Z</time>
      </trkpt>
      <trkpt lat="37.056217794054" lon="-3.371190373177">
        <ele>3192.6</ele>
        <time>2019-01-07T12:22:29Z</time>
      </trkpt>
      <trkpt lat="37.056194492372" lon="-3.371274527453">
        <ele>3190.4</ele>
        <time>2019-01-07T12:22:30Z</time>
      </trkpt>
      <trkpt lat="37.056147218456" lon="-3.371356334797">
        <ele>3188.2</ele>
        <time>2019-01-07T12:22:31Z</time>
      </trkpt>
      <trkpt lat="37.056112852666" lon="-3.371448787154">
        <ele>3185.2</ele>
        <time>2019-01-07T12:22:32Z</time>
      </trkpt>
      <trkpt lat="37.056081001446" lon="-3.37154132333">
        <ele>3182.2</ele>
        <time>2019-01-07T12:22:33Z</time>
      </trkpt>
      <trkpt lat="37.056028530752" lon="-3.371606199236">
        <ele>3179</ele>
        <time>2019-01-07T12:22:34Z</time>
      </trkpt>
      <trkpt lat="37.05596164319" lon="-3.371647102908">
        <ele>3176</ele>
        <time>2019-01-07T12:22:35Z</time>
      </trkpt>
      <trkpt lat="37.055918141129" lon="-3.371691526978">
        <ele>3173.4</ele>
        <time>2019-01-07T12:22:36Z</time>
      </trkpt>
      <trkpt lat="37.055895342361" lon="-3.371737543609">
        <ele>3171</ele>
        <time>2019-01-07T12:22:37Z</time>
      </trkpt>
      <trkpt lat="37.055868520281" lon="-3.371790936312">
        <ele>3169.2</ele>
        <time>2019-01-07T12:22:38Z</time>
      </trkpt>
      <trkpt lat="37.055828119523" lon="-3.371829241595">
        <ele>3167.4</ele>
        <time>2019-01-07T12:22:39Z</time>
      </trkpt>
      <trkpt lat="37.0557764032" lon="-3.37185229182">
        <ele>3165.6</ele>
        <time>2019-01-07T12:22:40Z</time>
      </trkpt>
      <trkpt lat="37.05573617008" lon="-3.371896212976">
        <ele>3163.6</ele>
        <time>2019-01-07T12:22:41Z</time>
      </trkpt>
      <trkpt lat="37.055716807891" lon="-3.371953964267">
        <ele>3161.6</ele>
        <time>2019-01-07T12:22:42Z</time>
      </trkpt>
      <trkpt lat="37.055691662191" lon="-3.372026383883">
        <ele>3159.8</ele>
        <time>2019-01-07T12:22:43Z</time>
      </trkpt>
      <trkpt lat="37.055649333596" lon="-3.372088493762">
        <ele>3157.4</ele>
        <time>2019-01-07T12:22:44Z</time>
      </trkpt>
      <trkpt lat="37.055590241201" lon="-3.372113471824">
        <ele>3155.2</ele>
        <time>2019-01-07T12:22:45Z</time>
      </trkpt>
      <trkpt lat="37.055532406091" lon="-3.37214398194">
        <ele>3152.8</ele>
        <time>2019-01-07T12:22:46Z</time>
      </trkpt>
      <trkpt lat="37.055513295359" lon="-3.372207852018">
        <ele>3150.8</ele>
        <time>2019-01-07T12:22:47Z</time>
      </trkpt>
      <trkpt lat="37.055504242907" lon="-3.37227725415">
        <ele>3148.4</ele>
        <time>2019-01-07T12:22:48Z</time>
      </trkpt>
      <trkpt lat="37.055473732791" lon="-3.372310949388">
        <ele>3145.8</ele>
        <time>2019-01-07T12:22:49Z</time>
      </trkpt>
      <trkpt lat="37.055430817463" lon="-3.372328970473">
        <ele>3143.2</ele>
        <time>2019-01-07T12:22:50Z</time>
      </trkpt>
      <trkpt lat="37.05538329209" lon="-3.37235855858">
        <ele>3140.8</ele>
        <time>2019-01-07T12:22:51Z</time>
      </trkpt>
      <trkpt lat="37.055344064798" lon="-3.372390828895">
        <ele>3138.8</ele>
        <time>2019-01-07T12:22:52Z</time>
      </trkpt>
      <trkpt lat="37.055330737577" lon="-3.372429385635">
        <ele>3137</ele>
        <time>2019-01-07T12:22:53Z</time>
      </trkpt>
      <trkpt lat="37.055337946011" lon="-3.372469534936">
        <ele>3135</ele>
        <time>2019-01-07T12:22:54Z</time>
      </trkpt>
      <trkpt lat="37.055328977378" lon="-3.372498033396">
        <ele>3133.4</ele>
        <time>2019-01-07T12:22:55Z</time>
      </trkpt>
      <trkpt lat="37.055310118103" lon="-3.372523765829">
        <ele>3131.8</ele>
        <time>2019-01-07T12:22:56Z</time>
      </trkpt>
      <trkpt lat="37.055307352076" lon="-3.372549498262">
        <ele>3130.4</ele>
        <time>2019-01-07T12:22:57Z</time>
      </trkpt>
      <trkpt lat="37.05531204594" lon="-3.372558718352">
        <ele>3129</ele>
        <time>2019-01-07T12:22:58Z</time>
      </trkpt>
      <trkpt lat="37.055316991261" lon="-3.372561735836">
        <ele>3127.8</ele>
        <time>2019-01-07T12:22:59Z</time>
      </trkpt>
      <trkpt lat="37.055318835279" lon="-3.372562574026">
        <ele>3127</ele>
        <time>2019-01-07T12:23:00Z</time>
      </trkpt>
      <trkpt lat="37.055320846935" lon="-3.372589396106">
        <ele>3125.8</ele>
        <time>2019-01-07T12:23:09Z</time>
      </trkpt>
      <trkpt lat="37.055295785054" lon="-3.372615212358">
        <ele>3125.2</ele>
        <time>2019-01-07T12:23:11Z</time>
      </trkpt>
      <trkpt lat="37.055277093417" lon="-3.372622253154">
        <ele>3124.6</ele>
        <time>2019-01-07T12:23:12Z</time>
      </trkpt>
      <trkpt lat="37.055219677402" lon="-3.372651841261">
        <ele>3123.2</ele>
        <time>2019-01-07T12:23:15Z</time>
      </trkpt>
      <trkpt lat="37.055157064609" lon="-3.372684279214">
        <ele>3121.8</ele>
        <time>2019-01-07T12:23:18Z</time>
      </trkpt>
      <trkpt lat="37.055091434332" lon="-3.372732139863">
        <ele>3120.4</ele>
        <time>2019-01-07T12:23:21Z</time>
      </trkpt>
      <trkpt lat="37.05507819093" lon="-3.372759464857">
        <ele>3119.8</ele>
        <time>2019-01-07T12:23:22Z</time>
      </trkpt>
      <trkpt lat="37.055086153735" lon="-3.372799278882">
        <ele>3119.2</ele>
        <time>2019-01-07T12:23:23Z</time>
      </trkpt>
      <trkpt lat="37.055084393536" lon="-3.372832219749">
        <ele>3118.6</ele>
        <time>2019-01-07T12:23:24Z</time>
      </trkpt>
      <trkpt lat="37.055076095455" lon="-3.372847642445">
        <ele>3117.6</ele>
        <time>2019-01-07T12:23:25Z</time>
      </trkpt>
      <trkpt lat="37.055075257265" lon="-3.372849318825">
        <ele>3116.6</ele>
        <time>2019-01-07T12:23:26Z</time>
      </trkpt>
      <trkpt lat="37.055074670532" lon="-3.372850240834">
        <ele>3115.6</ele>
        <time>2019-01-07T12:23:27Z</time>
      </trkpt>
      <trkpt lat="37.05507148541" lon="-3.372852084852">
        <ele>3114</ele>
        <time>2019-01-07T12:23:29Z</time>
      </trkpt>
      <trkpt lat="37.055043070769" lon="-3.37286063439">
        <ele>3112.8</ele>
        <time>2019-01-07T12:23:35Z</time>
      </trkpt>
      <trkpt lat="37.054981128528" lon="-3.372908327401">
        <ele>3112.2</ele>
        <time>2019-01-07T12:23:41Z</time>
      </trkpt>
      <trkpt lat="37.054943661435" lon="-3.372933808377">
        <ele>3112.2</ele>
        <time>2019-01-07T12:23:42Z</time>
      </trkpt>
      <trkpt lat="37.0549130675" lon="-3.372976220791">
        <ele>3111.8</ele>
        <time>2019-01-07T12:23:43Z</time>
      </trkpt>
      <trkpt lat="37.054872499104" lon="-3.373084263482">
        <ele>3110.2</ele>
        <time>2019-01-07T12:23:45Z</time>
      </trkpt>
      <trkpt lat="37.054823800265" lon="-3.373122484946">
        <ele>3108.6</ele>
        <time>2019-01-07T12:23:46Z</time>
      </trkpt>
      <trkpt lat="37.05476889882" lon="-3.373150229035">
        <ele>3107</ele>
        <time>2019-01-07T12:23:47Z</time>
      </trkpt>
      <trkpt lat="37.054723049827" lon="-3.373189037232">
        <ele>3105.4</ele>
        <time>2019-01-07T12:23:48Z</time>
      </trkpt>
      <trkpt lat="37.054682146155" lon="-3.373245447419">
        <ele>3104</ele>
        <time>2019-01-07T12:23:49Z</time>
      </trkpt>
      <trkpt lat="37.054639649922" lon="-3.373306635289">
        <ele>3102.8</ele>
        <time>2019-01-07T12:23:50Z</time>
      </trkpt>
      <trkpt lat="37.054615007136" lon="-3.37337360667">
        <ele>3101.4</ele>
        <time>2019-01-07T12:23:51Z</time>
      </trkpt>
      <trkpt lat="37.05458701159" lon="-3.373444685182">
        <ele>3099.6</ele>
        <time>2019-01-07T12:23:52Z</time>
      </trkpt>
      <trkpt lat="37.054544766814" lon="-3.373515009323">
        <ele>3097.4</ele>
        <time>2019-01-07T12:23:53Z</time>
      </trkpt>
      <trkpt lat="37.054498079631" lon="-3.373591116975">
        <ele>3094.8</ele>
        <time>2019-01-07T12:23:54Z</time>
      </trkpt>
      <trkpt lat="37.054460863995" lon="-3.373667308446">
        <ele>3092.4</ele>
        <time>2019-01-07T12:23:55Z</time>
      </trkpt>
      <trkpt lat="37.054413003346" lon="-3.37375163036">
        <ele>3089.8</ele>
        <time>2019-01-07T12:23:56Z</time>
      </trkpt>
      <trkpt lat="37.05434812744" lon="-3.373830252582">
        <ele>3087.4</ele>
        <time>2019-01-07T12:23:57Z</time>
      </trkpt>
      <trkpt lat="37.054287274846" lon="-3.373918765446">
        <ele>3084.6</ele>
        <time>2019-01-07T12:23:58Z</time>
      </trkpt>
      <trkpt lat="37.054226925166" lon="-3.374000740428">
        <ele>3082</ele>
        <time>2019-01-07T12:23:59Z</time>
      </trkpt>
      <trkpt lat="37.054160708156" lon="-3.374066873619">
        <ele>3079.2</ele>
        <time>2019-01-07T12:24:00Z</time>
      </trkpt>
      <trkpt lat="37.054089294368" lon="-3.37410953749">
        <ele>3076.6</ele>
        <time>2019-01-07T12:24:01Z</time>
      </trkpt>
      <trkpt lat="37.054028274136" lon="-3.374128899679">
        <ele>3074.4</ele>
        <time>2019-01-07T12:24:02Z</time>
      </trkpt>
      <trkpt lat="37.053977563641" lon="-3.374167288781">
        <ele>3072.8</ele>
        <time>2019-01-07T12:24:03Z</time>
      </trkpt>
      <trkpt lat="37.053940012729" lon="-3.374234176343">
        <ele>3071.6</ele>
        <time>2019-01-07T12:24:04Z</time>
      </trkpt>
      <trkpt lat="37.053901036894" lon="-3.374303494656">
        <ele>3070.2</ele>
        <time>2019-01-07T12:24:05Z</time>
      </trkpt>
      <trkpt lat="37.053853679159" lon="-3.374366358906">
        <ele>3068.6</ele>
        <time>2019-01-07T12:24:06Z</time>
      </trkpt>
      <trkpt lat="37.053800705551" lon="-3.374428804061">
        <ele>3067.2</ele>
        <time>2019-01-07T12:24:07Z</time>
      </trkpt>
      <trkpt lat="37.053746390839" lon="-3.374487644999">
        <ele>3065.8</ele>
        <time>2019-01-07T12:24:08Z</time>
      </trkpt>
      <trkpt lat="37.053687298444" lon="-3.37454288172">
        <ele>3064</ele>
        <time>2019-01-07T12:24:09Z</time>
      </trkpt>
      <trkpt lat="37.053628541325" lon="-3.374595100957">
        <ele>3062.2</ele>
        <time>2019-01-07T12:24:10Z</time>
      </trkpt>
      <trkpt lat="37.053578501382" lon="-3.374654193352">
        <ele>3060.4</ele>
        <time>2019-01-07T12:24:11Z</time>
      </trkpt>
      <trkpt lat="37.053530137819" lon="-3.37470968153">
        <ele>3058.4</ele>
        <time>2019-01-07T12:24:12Z</time>
      </trkpt>
      <trkpt lat="37.053476828935" lon="-3.374764666794">
        <ele>3056.6</ele>
        <time>2019-01-07T12:24:13Z</time>
      </trkpt>
      <trkpt lat="37.053436679634" lon="-3.374833649831">
        <ele>3054.4</ele>
        <time>2019-01-07T12:24:14Z</time>
      </trkpt>
      <trkpt lat="37.053397452342" lon="-3.374896681719">
        <ele>3052.6</ele>
        <time>2019-01-07T12:24:15Z</time>
      </trkpt>
      <trkpt lat="37.05333643211" lon="-3.374955355019">
        <ele>3050.2</ele>
        <time>2019-01-07T12:24:16Z</time>
      </trkpt>
      <trkpt lat="37.053273484041" lon="-3.375025092427">
        <ele>3047.8</ele>
        <time>2019-01-07T12:24:17Z</time>
      </trkpt>
      <trkpt lat="37.053220091338" lon="-3.375115030214">
        <ele>3045.4</ele>
        <time>2019-01-07T12:24:18Z</time>
      </trkpt>
      <trkpt lat="37.05316208859" lon="-3.375208320761">
        <ele>3043.4</ele>
        <time>2019-01-07T12:24:19Z</time>
      </trkpt>
      <trkpt lat="37.053082209083" lon="-3.375300102566">
        <ele>3040.6</ele>
        <time>2019-01-07T12:24:20Z</time>
      </trkpt>
      <trkpt lat="37.053025966534" lon="-3.375414096406">
        <ele>3037.8</ele>
        <time>2019-01-07T12:24:21Z</time>
      </trkpt>
      <trkpt lat="37.052977519152" lon="-3.375534376671">
        <ele>3033.8</ele>
        <time>2019-01-07T12:24:22Z</time>
      </trkpt>
      <trkpt lat="37.052903674613" lon="-3.375645604484">
        <ele>3030</ele>
        <time>2019-01-07T12:24:23Z</time>
      </trkpt>
      <trkpt lat="37.052817257224" lon="-3.375752976623">
        <ele>3026</ele>
        <time>2019-01-07T12:24:24Z</time>
      </trkpt>
      <trkpt lat="37.052756236992" lon="-3.375861019314">
        <ele>3022.2</ele>
        <time>2019-01-07T12:24:25Z</time>
      </trkpt>
      <trkpt lat="37.052700748814" lon="-3.375980964303">
        <ele>3017.8</ele>
        <time>2019-01-07T12:24:26Z</time>
      </trkpt>
      <trkpt lat="37.052636794917" lon="-3.376093449401">
        <ele>3014</ele>
        <time>2019-01-07T12:24:27Z</time>
      </trkpt>
      <trkpt lat="37.052561776912" lon="-3.376187242862">
        <ele>3010.4</ele>
        <time>2019-01-07T12:24:28Z</time>
      </trkpt>
      <trkpt lat="37.052497571558" lon="-3.376269134025">
        <ele>3007.4</ele>
        <time>2019-01-07T12:24:29Z</time>
      </trkpt>
      <trkpt lat="37.052469995107" lon="-3.376346834238">
        <ele>3004</ele>
        <time>2019-01-07T12:24:30Z</time>
      </trkpt>
      <trkpt lat="37.052454237135" lon="-3.376405172262">
        <ele>3000.8</ele>
        <time>2019-01-07T12:24:31Z</time>
      </trkpt>
      <trkpt lat="37.052422385915" lon="-3.376460995716">
        <ele>2998</ele>
        <time>2019-01-07T12:24:32Z</time>
      </trkpt>
      <trkpt lat="37.052398581319" lon="-3.376512209125">
        <ele>2996.2</ele>
        <time>2019-01-07T12:24:33Z</time>
      </trkpt>
      <trkpt lat="37.052392713989" lon="-3.376561997611">
        <ele>2994.8</ele>
        <time>2019-01-07T12:24:34Z</time>
      </trkpt>
      <trkpt lat="37.052394641826" lon="-3.376588819691">
        <ele>2993.6</ele>
        <time>2019-01-07T12:24:35Z</time>
      </trkpt>
      <trkpt lat="37.052375195818" lon="-3.376628717535">
        <ele>2992.4</ele>
        <time>2019-01-07T12:24:36Z</time>
      </trkpt>
      <trkpt lat="37.052374022352" lon="-3.376669118293">
        <ele>2991.2</ele>
        <time>2019-01-07T12:24:37Z</time>
      </trkpt>
      <trkpt lat="37.052388942134" lon="-3.376713207087">
        <ele>2990</ele>
        <time>2019-01-07T12:24:38Z</time>
      </trkpt>
      <trkpt lat="37.052396569663" lon="-3.376767773256">
        <ele>2988.4</ele>
        <time>2019-01-07T12:24:39Z</time>
      </trkpt>
      <trkpt lat="37.052375363456" lon="-3.376824351081">
        <ele>2986.8</ele>
        <time>2019-01-07T12:24:40Z</time>
      </trkpt>
      <trkpt lat="37.052363377339" lon="-3.376868775151">
        <ele>2985</ele>
        <time>2019-01-07T12:24:41Z</time>
      </trkpt>
      <trkpt lat="37.052369328488" lon="-3.376929879202">
        <ele>2983</ele>
        <time>2019-01-07T12:24:42Z</time>
      </trkpt>
      <trkpt lat="37.052370921049" lon="-3.377000790076">
        <ele>2980.6</ele>
        <time>2019-01-07T12:24:43Z</time>
      </trkpt>
      <trkpt lat="37.052343260779" lon="-3.377072622959">
        <ele>2978.2</ele>
        <time>2019-01-07T12:24:44Z</time>
      </trkpt>
      <trkpt lat="37.052293304655" lon="-3.37713037425">
        <ele>2975.6</ele>
        <time>2019-01-07T12:24:45Z</time>
      </trkpt>
      <trkpt lat="37.052261788711" lon="-3.37720581135">
        <ele>2973</ele>
        <time>2019-01-07T12:24:46Z</time>
      </trkpt>
      <trkpt lat="37.052258016856" lon="-3.377297760793">
        <ele>2970</ele>
        <time>2019-01-07T12:24:47Z</time>
      </trkpt>
      <trkpt lat="37.052264219462" lon="-3.377396331937">
        <ele>2966.8</ele>
        <time>2019-01-07T12:24:48Z</time>
      </trkpt>
      <trkpt lat="37.052242342703" lon="-3.377484258068">
        <ele>2963.4</ele>
        <time>2019-01-07T12:24:49Z</time>
      </trkpt>
      <trkpt lat="37.052197164262" lon="-3.377562293557">
        <ele>2960</ele>
        <time>2019-01-07T12:24:50Z</time>
      </trkpt>
      <trkpt lat="37.052176796245" lon="-3.377619625753">
        <ele>2957</ele>
        <time>2019-01-07T12:24:51Z</time>
      </trkpt>
      <trkpt lat="37.052172940571" lon="-3.377657092846">
        <ele>2954.6</ele>
        <time>2019-01-07T12:24:52Z</time>
      </trkpt>
      <trkpt lat="37.05217972991" lon="-3.377686429496">
        <ele>2952.6</ele>
        <time>2019-01-07T12:24:53Z</time>
      </trkpt>
      <trkpt lat="37.05218140629" lon="-3.377701433097">
        <ele>2951.2</ele>
        <time>2019-01-07T12:24:54Z</time>
      </trkpt>
      <trkpt lat="37.052161960282" lon="-3.377728758091">
        <ele>2949.8</ele>
        <time>2019-01-07T12:24:55Z</time>
      </trkpt>
      <trkpt lat="37.052142346636" lon="-3.377772260152">
        <ele>2948.8</ele>
        <time>2019-01-07T12:24:56Z</time>
      </trkpt>
      <trkpt lat="37.05212943851" lon="-3.377840404999">
        <ele>2947.8</ele>
        <time>2019-01-07T12:24:57Z</time>
      </trkpt>
      <trkpt lat="37.052111501244" lon="-3.377914584814">
        <ele>2946.4</ele>
        <time>2019-01-07T12:24:58Z</time>
      </trkpt>
      <trkpt lat="37.052077722187" lon="-3.37799454814">
        <ele>2944.8</ele>
        <time>2019-01-07T12:24:59Z</time>
      </trkpt>
      <trkpt lat="37.052051067745" lon="-3.378105943591">
        <ele>2942.6</ele>
        <time>2019-01-07T12:25:00Z</time>
      </trkpt>
      <trkpt lat="37.052031118823" lon="-3.378242568561">
        <ele>2940.2</ele>
        <time>2019-01-07T12:25:01Z</time>
      </trkpt>
      <trkpt lat="37.052003542372" lon="-3.378397633711">
        <ele>2937.6</ele>
        <time>2019-01-07T12:25:02Z</time>
      </trkpt>
      <trkpt lat="37.051965572365" lon="-3.378558901467">
        <ele>2934.4</ele>
        <time>2019-01-07T12:25:03Z</time>
      </trkpt>
      <trkpt lat="37.051912850214" lon="-3.378729556951">
        <ele>2931</ele>
        <time>2019-01-07T12:25:04Z</time>
      </trkpt>
      <trkpt lat="37.051858535502" lon="-3.378890070336">
        <ele>2928.2</ele>
        <time>2019-01-07T12:25:05Z</time>
      </trkpt>
      <trkpt lat="37.051818218563" lon="-3.379037591776">
        <ele>2926.4</ele>
        <time>2019-01-07T12:25:06Z</time>
      </trkpt>
      <trkpt lat="37.051746469499" lon="-3.379328276068">
        <ele>2924.8</ele>
        <time>2019-01-07T12:25:08Z</time>
      </trkpt>
      <trkpt lat="37.051685030172" lon="-3.379564645648">
        <ele>2923.6</ele>
        <time>2019-01-07T12:25:10Z</time>
      </trkpt>
      <trkpt lat="37.051618477886" lon="-3.379874943586">
        <ele>2922.4</ele>
        <time>2019-01-07T12:25:13Z</time>
      </trkpt>
      <trkpt lat="37.051579250594" lon="-3.380148277345">
        <ele>2921.4</ele>
        <time>2019-01-07T12:25:16Z</time>
      </trkpt>
      <trkpt lat="37.051574892006" lon="-3.380237879856">
        <ele>2921</ele>
        <time>2019-01-07T12:25:17Z</time>
      </trkpt>
      <trkpt lat="37.051587045761" lon="-3.380391017169">
        <ele>2920.6</ele>
        <time>2019-01-07T12:25:19Z</time>
      </trkpt>
      <trkpt lat="37.051624764311" lon="-3.380547255785">
        <ele>2920.6</ele>
        <time>2019-01-07T12:25:23Z</time>
      </trkpt>
      <trkpt lat="37.051617639696" lon="-3.380601067583">
        <ele>2920.6</ele>
        <time>2019-01-07T12:25:26Z</time>
      </trkpt>
      <trkpt lat="37.05163490641" lon="-3.380596206081">
        <ele>2920.6</ele>
        <time>2019-01-07T12:25:28Z</time>
      </trkpt>
      <trkpt lat="37.051687796199" lon="-3.380591847493">
        <ele>2919.4</ele>
        <time>2019-01-07T12:25:37Z</time>
      </trkpt>
      <trkpt lat="37.05172962188" lon="-3.380624201627">
        <ele>2918.8</ele>
        <time>2019-01-07T12:25:39Z</time>
      </trkpt>
      <trkpt lat="37.051742362368" lon="-3.380647000395">
        <ele>2918.2</ele>
        <time>2019-01-07T12:25:40Z</time>
      </trkpt>
      <trkpt lat="37.051751498639" lon="-3.380690670094">
        <ele>2916.8</ele>
        <time>2019-01-07T12:25:42Z</time>
      </trkpt>
      <trkpt lat="37.051752420648" lon="-3.380695866872">
        <ele>2915.4</ele>
        <time>2019-01-07T12:25:44Z</time>
      </trkpt>
      <trkpt lat="37.051731046803" lon="-3.38076560428">
        <ele>2913.6</ele>
        <time>2019-01-07T12:25:58Z</time>
      </trkpt>
      <trkpt lat="37.051718306315" lon="-3.381004991344">
        <ele>2911.6</ele>
        <time>2019-01-07T12:26:01Z</time>
      </trkpt>
      <trkpt lat="37.05172710731" lon="-3.381116051519">
        <ele>2909.4</ele>
        <time>2019-01-07T12:26:02Z</time>
      </trkpt>
      <trkpt lat="37.051731046803" lon="-3.381264914063">
        <ele>2906.4</ele>
        <time>2019-01-07T12:26:03Z</time>
      </trkpt>
      <trkpt lat="37.051750995725" lon="-3.381424086344">
        <ele>2903.2</ele>
        <time>2019-01-07T12:26:04Z</time>
      </trkpt>
      <trkpt lat="37.051795587433" lon="-3.381570937232">
        <ele>2898.8</ele>
        <time>2019-01-07T12:26:05Z</time>
      </trkpt>
      <trkpt lat="37.051834982363" lon="-3.381725834744">
        <ele>2893.8</ele>
        <time>2019-01-07T12:26:06Z</time>
      </trkpt>
      <trkpt lat="37.051866917402" lon="-3.381882408636">
        <ele>2888.8</ele>
        <time>2019-01-07T12:26:07Z</time>
      </trkpt>
      <trkpt lat="37.051892733654" lon="-3.382040658908">
        <ele>2884.4</ele>
        <time>2019-01-07T12:26:08Z</time>
      </trkpt>
      <trkpt lat="37.051922740856" lon="-3.382184911407">
        <ele>2880.8</ele>
        <time>2019-01-07T12:26:09Z</time>
      </trkpt>
      <trkpt lat="37.05197269698" lon="-3.382318267436">
        <ele>2876.4</ele>
        <time>2019-01-07T12:26:10Z</time>
      </trkpt>
      <trkpt lat="37.052030112995" lon="-3.382463441944">
        <ele>2872.4</ele>
        <time>2019-01-07T12:26:11Z</time>
      </trkpt>
      <trkpt lat="37.052095994729" lon="-3.382621189302">
        <ele>2867.4</ele>
        <time>2019-01-07T12:26:12Z</time>
      </trkpt>
      <trkpt lat="37.052165396861" lon="-3.382772482597">
        <ele>2863</ele>
        <time>2019-01-07T12:26:13Z</time>
      </trkpt>
      <trkpt lat="37.052237816477" lon="-3.382937103113">
        <ele>2858.4</ele>
        <time>2019-01-07T12:26:14Z</time>
      </trkpt>
      <trkpt lat="37.052312583025" lon="-3.3830940961">
        <ele>2853.4</ele>
        <time>2019-01-07T12:26:15Z</time>
      </trkpt>
      <trkpt lat="37.052393384541" lon="-3.383269864543">
        <ele>2847.4</ele>
        <time>2019-01-07T12:26:16Z</time>
      </trkpt>
      <trkpt lat="37.052479634292" lon="-3.383479328224">
        <ele>2841.4</ele>
        <time>2019-01-07T12:26:17Z</time>
      </trkpt>
      <trkpt lat="37.052580049454" lon="-3.3836389196">
        <ele>2835</ele>
        <time>2019-01-07T12:26:18Z</time>
      </trkpt>
      <trkpt lat="37.052656827658" lon="-3.383710584845">
        <ele>2829.6</ele>
        <time>2019-01-07T12:26:19Z</time>
      </trkpt>
      <trkpt lat="37.052698234244" lon="-3.383764731919">
        <ele>2824.8</ele>
        <time>2019-01-07T12:26:20Z</time>
      </trkpt>
      <trkpt lat="37.052721871202" lon="-3.383850814032">
        <ele>2822.2</ele>
        <time>2019-01-07T12:26:21Z</time>
      </trkpt>
      <trkpt lat="37.052742825952" lon="-3.383949385176">
        <ele>2820.8</ele>
        <time>2019-01-07T12:26:22Z</time>
      </trkpt>
      <trkpt lat="37.052778784303" lon="-3.384048375415">
        <ele>2819.6</ele>
        <time>2019-01-07T12:26:23Z</time>
      </trkpt>
      <trkpt lat="37.052840810363" lon="-3.384128674017">
        <ele>2818</ele>
        <time>2019-01-07T12:26:24Z</time>
      </trkpt>
      <trkpt lat="37.052904009889" lon="-3.384211319551">
        <ele>2816</ele>
        <time>2019-01-07T12:26:25Z</time>
      </trkpt>
      <trkpt lat="37.052957486411" lon="-3.384307040849">
        <ele>2813.8</ele>
        <time>2019-01-07T12:26:26Z</time>
      </trkpt>
      <trkpt lat="37.053003419223" lon="-3.384403432699">
        <ele>2811.8</ele>
        <time>2019-01-07T12:26:27Z</time>
      </trkpt>
      <trkpt lat="37.053052620976" lon="-3.384495298323">
        <ele>2809.6</ele>
        <time>2019-01-07T12:26:28Z</time>
      </trkpt>
      <trkpt lat="37.053106432774" lon="-3.384589259422">
        <ele>2807.6</ele>
        <time>2019-01-07T12:26:29Z</time>
      </trkpt>
      <trkpt lat="37.053150102473" lon="-3.384691267145">
        <ele>2806</ele>
        <time>2019-01-07T12:26:30Z</time>
      </trkpt>
      <trkpt lat="37.053184635901" lon="-3.384807859374">
        <ele>2804.2</ele>
        <time>2019-01-07T12:26:31Z</time>
      </trkpt>
      <trkpt lat="37.053200226235" lon="-3.384938030281">
        <ele>2802.2</ele>
        <time>2019-01-07T12:26:32Z</time>
      </trkpt>
      <trkpt lat="37.053180780227" lon="-3.385045989153">
        <ele>2799.8</ele>
        <time>2019-01-07T12:26:33Z</time>
      </trkpt>
      <trkpt lat="37.05313526651" lon="-3.385150427627">
        <ele>2797.4</ele>
        <time>2019-01-07T12:26:34Z</time>
      </trkpt>
      <trkpt lat="37.053057901573" lon="-3.385215890266">
        <ele>2795.8</ele>
        <time>2019-01-07T12:26:35Z</time>
      </trkpt>
      <trkpt lat="37.052970478356" lon="-3.385260062879">
        <ele>2794.2</ele>
        <time>2019-01-07T12:26:36Z</time>
      </trkpt>
      <trkpt lat="37.052852042109" lon="-3.385341115852">
        <ele>2792.6</ele>
        <time>2019-01-07T12:26:38Z</time>
      </trkpt>
      <trkpt lat="37.052801750709" lon="-3.385435579865">
        <ele>2790.8</ele>
        <time>2019-01-07T12:26:40Z</time>
      </trkpt>
      <trkpt lat="37.052734527871" lon="-3.385532055534">
        <ele>2789.8</ele>
        <time>2019-01-07T12:26:42Z</time>
      </trkpt>
      <trkpt lat="37.052651798518" lon="-3.385663399907">
        <ele>2788.6</ele>
        <time>2019-01-07T12:26:44Z</time>
      </trkpt>
      <trkpt lat="37.052568063337" lon="-3.385820057618">
        <ele>2787</ele>
        <time>2019-01-07T12:26:46Z</time>
      </trkpt>
      <trkpt lat="37.052479718111" lon="-3.385986605971">
        <ele>2785.2</ele>
        <time>2019-01-07T12:26:48Z</time>
      </trkpt>
      <trkpt lat="37.052430935453" lon="-3.386071095523">
        <ele>2784.4</ele>
        <time>2019-01-07T12:26:49Z</time>
      </trkpt>
      <trkpt lat="37.05238089551" lon="-3.386149214831">
        <ele>2783.4</ele>
        <time>2019-01-07T12:26:50Z</time>
      </trkpt>
      <trkpt lat="37.052289700438" lon="-3.386289192561">
        <ele>2782</ele>
        <time>2019-01-07T12:26:52Z</time>
      </trkpt>
      <trkpt lat="37.052196158434" lon="-3.386411819758">
        <ele>2781.2</ele>
        <time>2019-01-07T12:26:54Z</time>
      </trkpt>
      <trkpt lat="37.052140418799" lon="-3.386466385927">
        <ele>2781</ele>
        <time>2019-01-07T12:26:55Z</time>
      </trkpt>
      <trkpt lat="37.052092055236" lon="-3.386527909073">
        <ele>2780.6</ele>
        <time>2019-01-07T12:26:56Z</time>
      </trkpt>
      <trkpt lat="37.052066993355" lon="-3.386602088888">
        <ele>2779.8</ele>
        <time>2019-01-07T12:26:57Z</time>
      </trkpt>
      <trkpt lat="37.05207244159" lon="-3.386692278132">
        <ele>2779</ele>
        <time>2019-01-07T12:26:58Z</time>
      </trkpt>
      <trkpt lat="37.052082835146" lon="-3.386804679411">
        <ele>2777.8</ele>
        <time>2019-01-07T12:26:59Z</time>
      </trkpt>
      <trkpt lat="37.052130360519" lon="-3.386920181993">
        <ele>2776.2</ele>
        <time>2019-01-07T12:27:00Z</time>
      </trkpt>
      <trkpt lat="37.052204540334" lon="-3.387027554132">
        <ele>2774.2</ele>
        <time>2019-01-07T12:27:01Z</time>
      </trkpt>
      <trkpt lat="37.052278720149" lon="-3.387154120822">
        <ele>2771.6</ele>
        <time>2019-01-07T12:27:02Z</time>
      </trkpt>
      <trkpt lat="37.052374609085" lon="-3.38727163506">
        <ele>2768.8</ele>
        <time>2019-01-07T12:27:03Z</time>
      </trkpt>
      <trkpt lat="37.052480053387" lon="-3.387392502058">
        <ele>2764.6</ele>
        <time>2019-01-07T12:27:04Z</time>
      </trkpt>
      <trkpt lat="37.052599579281" lon="-3.387538682394">
        <ele>2760</ele>
        <time>2019-01-07T12:27:05Z</time>
      </trkpt>
      <trkpt lat="37.052738467364" lon="-3.387636666805">
        <ele>2755.4</ele>
        <time>2019-01-07T12:27:06Z</time>
      </trkpt>
      <trkpt lat="37.052875092334" lon="-3.387713612647">
        <ele>2750.6</ele>
        <time>2019-01-07T12:27:07Z</time>
      </trkpt>
      <trkpt lat="37.053003586861" lon="-3.387811848515">
        <ele>2746.2</ele>
        <time>2019-01-07T12:27:08Z</time>
      </trkpt>
      <trkpt lat="37.053120933461" lon="-3.387917795731">
        <ele>2742</ele>
        <time>2019-01-07T12:27:09Z</time>
      </trkpt>
      <trkpt lat="37.05323165836" lon="-3.388021647472">
        <ele>2739.4</ele>
        <time>2019-01-07T12:27:10Z</time>
      </trkpt>
      <trkpt lat="37.05334481401" lon="-3.388112088173">
        <ele>2737.6</ele>
        <time>2019-01-07T12:27:11Z</time>
      </trkpt>
      <trkpt lat="37.053469536682" lon="-3.388174281871">
        <ele>2736.2</ele>
        <time>2019-01-07T12:27:12Z</time>
      </trkpt>
      <trkpt lat="37.053615633199" lon="-3.388146621601">
        <ele>2734.4</ele>
        <time>2019-01-07T12:27:13Z</time>
      </trkpt>
      <trkpt lat="37.053741613156" lon="-3.388107394309">
        <ele>2732.2</ele>
        <time>2019-01-07T12:27:14Z</time>
      </trkpt>
      <trkpt lat="37.053860719955" lon="-3.388051570855">
        <ele>2730</ele>
        <time>2019-01-07T12:27:15Z</time>
      </trkpt>
      <trkpt lat="37.053956273615" lon="-3.387982923094">
        <ele>2728</ele>
        <time>2019-01-07T12:27:16Z</time>
      </trkpt>
      <trkpt lat="37.054035231113" lon="-3.387909916745">
        <ele>2726.6</ele>
        <time>2019-01-07T12:27:17Z</time>
      </trkpt>
      <trkpt lat="37.054112009317" lon="-3.387847136314">
        <ele>2725.2</ele>
        <time>2019-01-07T12:27:18Z</time>
      </trkpt>
      <trkpt lat="37.054183087829" lon="-3.387786451358">
        <ele>2724</ele>
        <time>2019-01-07T12:27:19Z</time>
      </trkpt>
      <trkpt lat="37.054307978139" lon="-3.387674888269">
        <ele>2722.4</ele>
        <time>2019-01-07T12:27:21Z</time>
      </trkpt>
      <trkpt lat="37.054355754969" lon="-3.387623255765">
        <ele>2721.8</ele>
        <time>2019-01-07T12:27:22Z</time>
      </trkpt>
      <trkpt lat="37.054404034713" lon="-3.38757170708">
        <ele>2721.4</ele>
        <time>2019-01-07T12:27:23Z</time>
      </trkpt>
      <trkpt lat="37.054462708013" lon="-3.387532563607">
        <ele>2720.8</ele>
        <time>2019-01-07T12:27:24Z</time>
      </trkpt>
      <trkpt lat="37.054598830069" lon="-3.38745436048">
        <ele>2720</ele>
        <time>2019-01-07T12:27:26Z</time>
      </trkpt>
      <trkpt lat="37.054769820829" lon="-3.387386131814">
        <ele>2718</ele>
        <time>2019-01-07T12:27:28Z</time>
      </trkpt>
      <trkpt lat="37.054866715593" lon="-3.387370206204">
        <ele>2716.2</ele>
        <time>2019-01-07T12:27:29Z</time>
      </trkpt>
      <trkpt lat="37.05496587347" lon="-3.387364171236">
        <ele>2714.4</ele>
        <time>2019-01-07T12:27:30Z</time>
      </trkpt>
      <trkpt lat="37.055065953356" lon="-3.387367607815">
        <ele>2711.8</ele>
        <time>2019-01-07T12:27:31Z</time>
      </trkpt>
      <trkpt lat="37.055161590835" lon="-3.387388897841">
        <ele>2709.6</ele>
        <time>2019-01-07T12:27:32Z</time>
      </trkpt>
      <trkpt lat="37.055243901093" lon="-3.387398453207">
        <ele>2707.6</ele>
        <time>2019-01-07T12:27:33Z</time>
      </trkpt>
      <trkpt lat="37.055323529143" lon="-3.387409433496">
        <ele>2706</ele>
        <time>2019-01-07T12:27:34Z</time>
      </trkpt>
      <trkpt lat="37.055415897681" lon="-3.387419407957">
        <ele>2704.6</ele>
        <time>2019-01-07T12:27:35Z</time>
      </trkpt>
      <trkpt lat="37.055516061386" lon="-3.387428460409">
        <ele>2703</ele>
        <time>2019-01-07T12:27:36Z</time>
      </trkpt>
      <trkpt lat="37.055638604764" lon="-3.387457377964">
        <ele>2701.4</ele>
        <time>2019-01-07T12:27:37Z</time>
      </trkpt>
      <trkpt lat="37.055770284413" lon="-3.387483445673">
        <ele>2699.2</ele>
        <time>2019-01-07T12:27:38Z</time>
      </trkpt>
      <trkpt lat="37.055892408696" lon="-3.387539352946">
        <ele>2696.6</ele>
        <time>2019-01-07T12:27:39Z</time>
      </trkpt>
      <trkpt lat="37.056012102228" lon="-3.387644210515">
        <ele>2694</ele>
        <time>2019-01-07T12:27:40Z</time>
      </trkpt>
      <trkpt lat="37.056132885407" lon="-3.387747475523">
        <ele>2691.6</ele>
        <time>2019-01-07T12:27:41Z</time>
      </trkpt>
      <trkpt lat="37.056268672187" lon="-3.387830372514">
        <ele>2688.8</ele>
        <time>2019-01-07T12:27:42Z</time>
      </trkpt>
      <trkpt lat="37.056403285501" lon="-3.387927434916">
        <ele>2685.4</ele>
        <time>2019-01-07T12:27:43Z</time>
      </trkpt>
      <trkpt lat="37.05653999429" lon="-3.388025251689">
        <ele>2681.6</ele>
        <time>2019-01-07T12:27:44Z</time>
      </trkpt>
      <trkpt lat="37.056678547097" lon="-3.38811736877">
        <ele>2678.6</ele>
        <time>2019-01-07T12:27:45Z</time>
      </trkpt>
      <trkpt lat="37.056808801823" lon="-3.38821711338">
        <ele>2676</ele>
        <time>2019-01-07T12:27:46Z</time>
      </trkpt>
      <trkpt lat="37.05692891445" lon="-3.38832943084">
        <ele>2673.2</ele>
        <time>2019-01-07T12:27:47Z</time>
      </trkpt>
      <trkpt lat="37.057050954914" lon="-3.388421045007">
        <ele>2670.2</ele>
        <time>2019-01-07T12:27:48Z</time>
      </trkpt>
      <trkpt lat="37.057173498292" lon="-3.388488267845">
        <ele>2667.6</ele>
        <time>2019-01-07T12:27:49Z</time>
      </trkpt>
      <trkpt lat="37.057284474648" lon="-3.388547611697">
        <ele>2665.8</ele>
        <time>2019-01-07T12:27:50Z</time>
      </trkpt>
      <trkpt lat="37.057388577846" lon="-3.388610727404">
        <ele>2664.4</ele>
        <time>2019-01-07T12:27:51Z</time>
      </trkpt>
      <trkpt lat="37.057488406275" lon="-3.38865632494">
        <ele>2663.4</ele>
        <time>2019-01-07T12:27:52Z</time>
      </trkpt>
      <trkpt lat="37.057664090899" lon="-3.388777275757">
        <ele>2661.6</ele>
        <time>2019-01-07T12:27:54Z</time>
      </trkpt>
      <trkpt lat="37.057780850766" lon="-3.389006939817">
        <ele>2660.6</ele>
        <time>2019-01-07T12:27:56Z</time>
      </trkpt>
      <trkpt lat="37.057823346999" lon="-3.389128896462">
        <ele>2659.6</ele>
        <time>2019-01-07T12:27:57Z</time>
      </trkpt>
      <trkpt lat="37.057817898764" lon="-3.389264767061">
        <ele>2658.2</ele>
        <time>2019-01-07T12:27:58Z</time>
      </trkpt>
      <trkpt lat="37.057816892936" lon="-3.389401140574">
        <ele>2656.8</ele>
        <time>2019-01-07T12:27:59Z</time>
      </trkpt>
      <trkpt lat="37.057841451903" lon="-3.389531311481">
        <ele>2655.4</ele>
        <time>2019-01-07T12:28:00Z</time>
      </trkpt>
      <trkpt lat="37.057855617314" lon="-3.389671708306">
        <ele>2653</ele>
        <time>2019-01-07T12:28:01Z</time>
      </trkpt>
      <trkpt lat="37.057883361403" lon="-3.389813194778">
        <ele>2650.6</ele>
        <time>2019-01-07T12:28:02Z</time>
      </trkpt>
      <trkpt lat="37.05792803693" lon="-3.389944203875">
        <ele>2647.8</ele>
        <time>2019-01-07T12:28:03Z</time>
      </trkpt>
      <trkpt lat="37.057954356096" lon="-3.390080074474">
        <ele>2645</ele>
        <time>2019-01-07T12:28:04Z</time>
      </trkpt>
      <trkpt lat="37.057975897579" lon="-3.390213514322">
        <ele>2641.6</ele>
        <time>2019-01-07T12:28:05Z</time>
      </trkpt>
      <trkpt lat="37.058013867586" lon="-3.390345193971">
        <ele>2638.4</ele>
        <time>2019-01-07T12:28:06Z</time>
      </trkpt>
      <trkpt lat="37.058047562824" lon="-3.390485842253">
        <ele>2635.2</ele>
        <time>2019-01-07T12:28:07Z</time>
      </trkpt>
      <trkpt lat="37.058085700469" lon="-3.390639650118">
        <ele>2632.6</ele>
        <time>2019-01-07T12:28:08Z</time>
      </trkpt>
      <trkpt lat="37.05812082063" lon="-3.390816508208">
        <ele>2629.4</ele>
        <time>2019-01-07T12:28:09Z</time>
      </trkpt>
      <trkpt lat="37.058138506439" lon="-3.391007615528">
        <ele>2626.4</ele>
        <time>2019-01-07T12:28:10Z</time>
      </trkpt>
      <trkpt lat="37.058158036266" lon="-3.391214899915">
        <ele>2622.4</ele>
        <time>2019-01-07T12:28:11Z</time>
      </trkpt>
      <trkpt lat="37.058175973532" lon="-3.391435092428">
        <ele>2618</ele>
        <time>2019-01-07T12:28:12Z</time>
      </trkpt>
      <trkpt lat="37.058205896915" lon="-3.39165872152">
        <ele>2613</ele>
        <time>2019-01-07T12:28:13Z</time>
      </trkpt>
      <trkpt lat="37.058258702885" lon="-3.391878075843">
        <ele>2607.6</ele>
        <time>2019-01-07T12:28:14Z</time>
      </trkpt>
      <trkpt lat="37.058325255171" lon="-3.392092233388">
        <ele>2602.8</ele>
        <time>2019-01-07T12:28:15Z</time>
      </trkpt>
      <trkpt lat="37.058375881847" lon="-3.392304798372">
        <ele>2598.6</ele>
        <time>2019-01-07T12:28:16Z</time>
      </trkpt>
      <trkpt lat="37.058392058914" lon="-3.392504371411">
        <ele>2595.6</ele>
        <time>2019-01-07T12:28:17Z</time>
      </trkpt>
      <trkpt lat="37.058401362823" lon="-3.392686845374">
        <ele>2593.8</ele>
        <time>2019-01-07T12:28:18Z</time>
      </trkpt>
      <trkpt lat="37.058410582913" lon="-3.392852555537">
        <ele>2592.2</ele>
        <time>2019-01-07T12:28:19Z</time>
      </trkpt>
      <trkpt lat="37.058423491039" lon="-3.392973171078">
        <ele>2590.8</ele>
        <time>2019-01-07T12:28:20Z</time>
      </trkpt>
      <trkpt lat="37.058413013664" lon="-3.393088422203">
        <ele>2589</ele>
        <time>2019-01-07T12:28:21Z</time>
      </trkpt>
      <trkpt lat="37.058412762207" lon="-3.393191268116">
        <ele>2587.4</ele>
        <time>2019-01-07T12:28:22Z</time>
      </trkpt>
      <trkpt lat="37.05843765645" lon="-3.393269303605">
        <ele>2586.2</ele>
        <time>2019-01-07T12:28:23Z</time>
      </trkpt>
      <trkpt lat="37.058482331977" lon="-3.393332251674">
        <ele>2585.2</ele>
        <time>2019-01-07T12:28:24Z</time>
      </trkpt>
      <trkpt lat="37.058530192626" lon="-3.393386482567">
        <ele>2584.6</ele>
        <time>2019-01-07T12:28:25Z</time>
      </trkpt>
      <trkpt lat="37.05868408431" lon="-3.393552863282">
        <ele>2583.4</ele>
        <time>2019-01-07T12:28:28Z</time>
      </trkpt>
      <trkpt lat="37.058839652374" lon="-3.393688230967">
        <ele>2583.2</ele>
        <time>2019-01-07T12:28:32Z</time>
      </trkpt>
      <trkpt lat="37.058878963485" lon="-3.393689236795">
        <ele>2583.4</ele>
        <time>2019-01-07T12:28:34Z</time>
      </trkpt>
      <trkpt lat="37.058915843845" lon="-3.393656798842">
        <ele>2583.8</ele>
        <time>2019-01-07T12:28:36Z</time>
      </trkpt>
      <trkpt lat="37.058948700893" lon="-3.393605166338">
        <ele>2584.4</ele>
        <time>2019-01-07T12:28:39Z</time>
      </trkpt>
      <trkpt lat="37.058957585707" lon="-3.3935714711">
        <ele>2584.6</ele>
        <time>2019-01-07T12:28:41Z</time>
      </trkpt>
      <trkpt lat="37.058962531028" lon="-3.393541715355">
        <ele>2584.2</ele>
        <time>2019-01-07T12:28:44Z</time>
      </trkpt>
      <trkpt lat="37.058910563248" lon="-3.393224628078">
        <ele>2583</ele>
        <time>2019-01-07T12:29:20Z</time>
      </trkpt>
      <trkpt lat="37.058857002907" lon="-3.392915755063">
        <ele>2583.4</ele>
        <time>2019-01-07T12:29:26Z</time>
      </trkpt>
      <trkpt lat="37.058839736193" lon="-3.392818944118">
        <ele>2584.6</ele>
        <time>2019-01-07T12:29:28Z</time>
      </trkpt>
      <trkpt lat="37.058822050384" lon="-3.392729509245">
        <ele>2586.4</ele>
        <time>2019-01-07T12:29:30Z</time>
      </trkpt>
      <trkpt lat="37.058815093407" lon="-3.39268382789">
        <ele>2587.4</ele>
        <time>2019-01-07T12:29:31Z</time>
      </trkpt>
      <trkpt lat="37.054177891051" lon="-3.368582428811">
        <ele>3272.2</ele>
        <time>2019-01-07T12:39:50Z</time>
      </trkpt>
      <trkpt lat="37.053997093468" lon="-3.368679658851">
        <ele>3271.8</ele>
        <time>2019-01-07T12:39:55Z</time>
      </trkpt>
      <trkpt lat="37.053909670251" lon="-3.368720478704">
        <ele>3271.6</ele>
        <time>2019-01-07T12:39:57Z</time>
      </trkpt>
      <trkpt lat="37.053828030545" lon="-3.368750737363">
        <ele>3271.2</ele>
        <time>2019-01-07T12:39:59Z</time>
      </trkpt>
      <trkpt lat="37.053788384158" lon="-3.36878032547">
        <ele>3270.8</ele>
        <time>2019-01-07T12:40:00Z</time>
      </trkpt>
      <trkpt lat="37.053747061391" lon="-3.368810751767">
        <ele>3270.4</ele>
        <time>2019-01-07T12:40:01Z</time>
      </trkpt>
      <trkpt lat="37.05368009001" lon="-3.368837573847">
        <ele>3269.4</ele>
        <time>2019-01-07T12:40:03Z</time>
      </trkpt>
      <trkpt lat="37.053618399226" lon="-3.368872107275">
        <ele>3268.4</ele>
        <time>2019-01-07T12:40:05Z</time>
      </trkpt>
      <trkpt lat="37.053555283519" lon="-3.368897504432">
        <ele>3267.2</ele>
        <time>2019-01-07T12:40:07Z</time>
      </trkpt>
      <trkpt lat="37.0534881445" lon="-3.368957099741">
        <ele>3266.4</ele>
        <time>2019-01-07T12:40:09Z</time>
      </trkpt>
      <trkpt lat="37.053453359615" lon="-3.368968750582">
        <ele>3265.8</ele>
        <time>2019-01-07T12:40:10Z</time>
      </trkpt>
      <trkpt lat="37.053412120667" lon="-3.368956848284">
        <ele>3264.8</ele>
        <time>2019-01-07T12:40:12Z</time>
      </trkpt>
      <trkpt lat="37.053396278876" lon="-3.368954836628">
        <ele>3263.6</ele>
        <time>2019-01-07T12:40:14Z</time>
      </trkpt>
      <trkpt lat="37.053176924553" lon="-3.368590475435">
        <ele>3262.6</ele>
        <time>2019-01-07T12:40:52Z</time>
      </trkpt>
      <trkpt lat="37.053080532703" lon="-3.368446139117">
        <ele>3261.4</ele>
        <time>2019-01-07T12:40:58Z</time>
      </trkpt>
      <trkpt lat="37.053076844667" lon="-3.368439098321">
        <ele>3261.2</ele>
        <time>2019-01-07T12:40:59Z</time>
      </trkpt>
      <trkpt lat="37.053107187145" lon="-3.368678485385">
        <ele>3260.4</ele>
        <time>2019-01-07T12:41:44Z</time>
      </trkpt>
      <trkpt lat="37.053141552935" lon="-3.368849308507">
        <ele>3259.2</ele>
        <time>2019-01-07T12:41:49Z</time>
      </trkpt>
      <trkpt lat="37.0531528685" lon="-3.368952824972">
        <ele>3259</ele>
        <time>2019-01-07T12:41:53Z</time>
      </trkpt>
      <trkpt lat="37.053148174636" lon="-3.36897227098">
        <ele>3258.8</ele>
        <time>2019-01-07T12:41:55Z</time>
      </trkpt>
      <trkpt lat="37.053047172741" lon="-3.369076122721">
        <ele>3256.2</ele>
        <time>2019-01-07T12:42:44Z</time>
      </trkpt>
      <trkpt lat="37.053062595437" lon="-3.369111159063">
        <ele>3256.2</ele>
        <time>2019-01-07T12:42:46Z</time>
      </trkpt>
      <trkpt lat="37.053078856323" lon="-3.369137310591">
        <ele>3255.8</ele>
        <time>2019-01-07T12:42:49Z</time>
      </trkpt>
      <trkpt lat="37.053111378095" lon="-3.36922624255">
        <ele>3256</ele>
        <time>2019-01-07T12:42:55Z</time>
      </trkpt>
      <trkpt lat="37.05311514995" lon="-3.369232780432">
        <ele>3256.2</ele>
        <time>2019-01-07T12:42:57Z</time>
      </trkpt>
      <trkpt lat="37.051514709964" lon="-3.370924583128">
        <ele>3221</ele>
        <time>2019-01-07T12:50:07Z</time>
      </trkpt>
      <trkpt lat="37.051434495181" lon="-3.371030446525">
        <ele>3218.6</ele>
        <time>2019-01-07T12:50:09Z</time>
      </trkpt>
      <trkpt lat="37.051398704468" lon="-3.371089790377">
        <ele>3217.8</ele>
        <time>2019-01-07T12:50:10Z</time>
      </trkpt>
      <trkpt lat="37.051363249031" lon="-3.371146284383">
        <ele>3217.2</ele>
        <time>2019-01-07T12:50:11Z</time>
      </trkpt>
      <trkpt lat="37.051315723658" lon="-3.371181488363">
        <ele>3217.6</ele>
        <time>2019-01-07T12:50:12Z</time>
      </trkpt>
      <trkpt lat="37.051238274902" lon="-3.371260781137">
        <ele>3216.4</ele>
        <time>2019-01-07T12:50:14Z</time>
      </trkpt>
      <trkpt lat="37.051212374831" lon="-3.371301098076">
        <ele>3215.4</ele>
        <time>2019-01-07T12:50:15Z</time>
      </trkpt>
      <trkpt lat="37.051183122" lon="-3.371306713949">
        <ele>3214</ele>
        <time>2019-01-07T12:50:16Z</time>
      </trkpt>
      <trkpt lat="37.051156886653" lon="-3.37129824823">
        <ele>3213</ele>
        <time>2019-01-07T12:50:17Z</time>
      </trkpt>
      <trkpt lat="37.051132411505" lon="-3.371300008429">
        <ele>3212.2</ele>
        <time>2019-01-07T12:50:18Z</time>
      </trkpt>
      <trkpt lat="37.051103661588" lon="-3.371311491632">
        <ele>3211.6</ele>
        <time>2019-01-07T12:50:19Z</time>
      </trkpt>
      <trkpt lat="37.0510657754" lon="-3.371328758346">
        <ele>3211.2</ele>
        <time>2019-01-07T12:50:20Z</time>
      </trkpt>
      <trkpt lat="37.05096100165" lon="-3.37135356877">
        <ele>3210.4</ele>
        <time>2019-01-07T12:50:22Z</time>
      </trkpt>
      <trkpt lat="37.050849690018" lon="-3.371419450504">
        <ele>3208.2</ele>
        <time>2019-01-07T12:50:24Z</time>
      </trkpt>
      <trkpt lat="37.050783975922" lon="-3.371445434394">
        <ele>3206.4</ele>
        <time>2019-01-07T12:50:25Z</time>
      </trkpt>
      <trkpt lat="37.050724380613" lon="-3.371482482392">
        <ele>3204.4</ele>
        <time>2019-01-07T12:50:26Z</time>
      </trkpt>
      <trkpt lat="37.050668221883" lon="-3.371520871494">
        <ele>3202.2</ele>
        <time>2019-01-07T12:50:27Z</time>
      </trkpt>
      <trkpt lat="37.050608039841" lon="-3.371538138208">
        <ele>3200.2</ele>
        <time>2019-01-07T12:50:28Z</time>
      </trkpt>
      <trkpt lat="37.050538386252" lon="-3.371553141809">
        <ele>3198.2</ele>
        <time>2019-01-07T12:50:29Z</time>
      </trkpt>
      <trkpt lat="37.050459009659" lon="-3.371569905609">
        <ele>3196.6</ele>
        <time>2019-01-07T12:50:30Z</time>
      </trkpt>
      <trkpt lat="37.050372843727" lon="-3.371578287509">
        <ele>3195</ele>
        <time>2019-01-07T12:50:31Z</time>
      </trkpt>
      <trkpt lat="37.050279217904" lon="-3.371567726315">
        <ele>3193.6</ele>
        <time>2019-01-07T12:50:32Z</time>
      </trkpt>
      <trkpt lat="37.050192968153" lon="-3.371525146263">
        <ele>3192.4</ele>
        <time>2019-01-07T12:50:33Z</time>
      </trkpt>
      <trkpt lat="37.050108478601" lon="-3.371483655858">
        <ele>3191.2</ele>
        <time>2019-01-07T12:50:34Z</time>
      </trkpt>
      <trkpt lat="37.050034634062" lon="-3.371486757161">
        <ele>3189.6</ele>
        <time>2019-01-07T12:50:35Z</time>
      </trkpt>
      <trkpt lat="37.049974032925" lon="-3.371506706083">
        <ele>3187.8</ele>
        <time>2019-01-07T12:50:36Z</time>
      </trkpt>
      <trkpt lat="37.049922400421" lon="-3.371520871494">
        <ele>3186</ele>
        <time>2019-01-07T12:50:37Z</time>
      </trkpt>
      <trkpt lat="37.049873701582" lon="-3.371516261449">
        <ele>3184.6</ele>
        <time>2019-01-07T12:50:38Z</time>
      </trkpt>
      <trkpt lat="37.049824583648" lon="-3.371510058843">
        <ele>3183.4</ele>
        <time>2019-01-07T12:50:39Z</time>
      </trkpt>
      <trkpt lat="37.049782757967" lon="-3.371525062444">
        <ele>3182.4</ele>
        <time>2019-01-07T12:50:40Z</time>
      </trkpt>
      <trkpt lat="37.04971126036" lon="-3.371533863439">
        <ele>3180.4</ele>
        <time>2019-01-07T12:50:42Z</time>
      </trkpt>
      <trkpt lat="37.049659963132" lon="-3.371520703856">
        <ele>3179</ele>
        <time>2019-01-07T12:50:44Z</time>
      </trkpt>
      <trkpt lat="37.049615958157" lon="-3.371523637521">
        <ele>3177.8</ele>
        <time>2019-01-07T12:50:47Z</time>
      </trkpt>
      <trkpt lat="37.049586286231" lon="-3.371518943657">
        <ele>3177.4</ele>
        <time>2019-01-07T12:50:48Z</time>
      </trkpt>
      <trkpt lat="37.049498024824" lon="-3.371519614209">
        <ele>3176.6</ele>
        <time>2019-01-07T12:50:50Z</time>
      </trkpt>
      <trkpt lat="37.049454103668" lon="-3.371493295043">
        <ele>3175.4</ele>
        <time>2019-01-07T12:50:52Z</time>
      </trkpt>
      <trkpt lat="37.049449493623" lon="-3.371490780473">
        <ele>3174</ele>
        <time>2019-01-07T12:50:54Z</time>
      </trkpt>
      <trkpt lat="37.049454355125" lon="-3.371528666661">
        <ele>3173.2</ele>
        <time>2019-01-07T12:51:00Z</time>
      </trkpt>
      <trkpt lat="37.049461898835" lon="-3.37153880876">
        <ele>3173</ele>
        <time>2019-01-07T12:51:01Z</time>
      </trkpt>
      <trkpt lat="37.049439519162" lon="-3.371747098975">
        <ele>3171.4</ele>
        <time>2019-01-07T12:51:08Z</time>
      </trkpt>
      <trkpt lat="37.049329800091" lon="-3.371821949342">
        <ele>3170</ele>
        <time>2019-01-07T12:51:10Z</time>
      </trkpt>
      <trkpt lat="37.049276323569" lon="-3.371868636525">
        <ele>3168.8</ele>
        <time>2019-01-07T12:51:11Z</time>
      </trkpt>
      <trkpt lat="37.049226702721" lon="-3.371922867418">
        <ele>3167.4</ele>
        <time>2019-01-07T12:51:12Z</time>
      </trkpt>
      <trkpt lat="37.049180266995" lon="-3.371976763035">
        <ele>3165.8</ele>
        <time>2019-01-07T12:51:13Z</time>
      </trkpt>
      <trkpt lat="37.049124192084" lon="-3.372019762182">
        <ele>3164.4</ele>
        <time>2019-01-07T12:51:14Z</time>
      </trkpt>
      <trkpt lat="37.049065183508" lon="-3.372050272298">
        <ele>3163</ele>
        <time>2019-01-07T12:51:15Z</time>
      </trkpt>
      <trkpt lat="37.049019502153" lon="-3.37208447045">
        <ele>3162</ele>
        <time>2019-01-07T12:51:16Z</time>
      </trkpt>
      <trkpt lat="37.049003492724" lon="-3.372138366067">
        <ele>3161</ele>
        <time>2019-01-07T12:51:17Z</time>
      </trkpt>
      <trkpt lat="37.048980274861" lon="-3.372202906697">
        <ele>3159.8</ele>
        <time>2019-01-07T12:51:18Z</time>
      </trkpt>
      <trkpt lat="37.048967366735" lon="-3.372274069028">
        <ele>3158.4</ele>
        <time>2019-01-07T12:51:19Z</time>
      </trkpt>
      <trkpt lat="37.048992847711" lon="-3.372341543323">
        <ele>3156.4</ele>
        <time>2019-01-07T12:51:20Z</time>
      </trkpt>
      <trkpt lat="37.049017155221" lon="-3.372405413401">
        <ele>3154.2</ele>
        <time>2019-01-07T12:51:21Z</time>
      </trkpt>
      <trkpt lat="37.049025118026" lon="-3.372480599044">
        <ele>3152.2</ele>
        <time>2019-01-07T12:51:22Z</time>
      </trkpt>
      <trkpt lat="37.049047497699" lon="-3.372532566824">
        <ele>3150.4</ele>
        <time>2019-01-07T12:51:23Z</time>
      </trkpt>
      <trkpt lat="37.049076079978" lon="-3.372566345881">
        <ele>3148.6</ele>
        <time>2019-01-07T12:51:24Z</time>
      </trkpt>
      <trkpt lat="37.049093346692" lon="-3.37259492816">
        <ele>3146.8</ele>
        <time>2019-01-07T12:51:25Z</time>
      </trkpt>
      <trkpt lat="37.049102231506" lon="-3.372626360285">
        <ele>3145</ele>
        <time>2019-01-07T12:51:26Z</time>
      </trkpt>
      <trkpt lat="37.049118157116" lon="-3.372647482673">
        <ele>3143.6</ele>
        <time>2019-01-07T12:51:27Z</time>
      </trkpt>
      <trkpt lat="37.049140620608" lon="-3.37265360146">
        <ele>3142.6</ele>
        <time>2019-01-07T12:51:28Z</time>
      </trkpt>
      <trkpt lat="37.049180937547" lon="-3.37265946879">
        <ele>3141</ele>
        <time>2019-01-07T12:51:30Z</time>
      </trkpt>
      <trkpt lat="37.049195019139" lon="-3.372674807667">
        <ele>3140.2</ele>
        <time>2019-01-07T12:51:31Z</time>
      </trkpt>
      <trkpt lat="37.049210944749" lon="-3.372707664715">
        <ele>3139.6</ele>
        <time>2019-01-07T12:51:32Z</time>
      </trkpt>
      <trkpt lat="37.04923265387" lon="-3.37273322951">
        <ele>3139</ele>
        <time>2019-01-07T12:51:33Z</time>
      </trkpt>
      <trkpt lat="37.049260649416" lon="-3.372758291391">
        <ele>3138</ele>
        <time>2019-01-07T12:51:34Z</time>
      </trkpt>
      <trkpt lat="37.049285627478" lon="-3.372798021597">
        <ele>3136.6</ele>
        <time>2019-01-07T12:51:35Z</time>
      </trkpt>
      <trkpt lat="37.049307923332" lon="-3.372838338536">
        <ele>3135.2</ele>
        <time>2019-01-07T12:51:36Z</time>
      </trkpt>
      <trkpt lat="37.049340361285" lon="-3.372867004634">
        <ele>3133.6</ele>
        <time>2019-01-07T12:51:37Z</time>
      </trkpt>
      <trkpt lat="37.049368356831" lon="-3.372894664904">
        <ele>3131.8</ele>
        <time>2019-01-07T12:51:38Z</time>
      </trkpt>
      <trkpt lat="37.049395681825" lon="-3.372946297408">
        <ele>3129.8</ele>
        <time>2019-01-07T12:51:39Z</time>
      </trkpt>
      <trkpt lat="37.049417726222" lon="-3.37298301013">
        <ele>3127.8</ele>
        <time>2019-01-07T12:51:40Z</time>
      </trkpt>
      <trkpt lat="37.04943884861" lon="-3.373012095323">
        <ele>3125.6</ele>
        <time>2019-01-07T12:51:41Z</time>
      </trkpt>
      <trkpt lat="37.049446308501" lon="-3.373070517166">
        <ele>3123.2</ele>
        <time>2019-01-07T12:51:42Z</time>
      </trkpt>
      <trkpt lat="37.04947405259" lon="-3.373114773598">
        <ele>3121.2</ele>
        <time>2019-01-07T12:51:43Z</time>
      </trkpt>
      <trkpt lat="37.049500287937" lon="-3.373148720293">
        <ele>3119.6</ele>
        <time>2019-01-07T12:51:44Z</time>
      </trkpt>
      <trkpt lat="37.049534150813" lon="-3.373179817142">
        <ele>3117.6</ele>
        <time>2019-01-07T12:51:45Z</time>
      </trkpt>
      <trkpt lat="37.049541526885" lon="-3.373230779094">
        <ele>3115.6</ele>
        <time>2019-01-07T12:51:46Z</time>
      </trkpt>
      <trkpt lat="37.049547310396" lon="-3.37330068414">
        <ele>3113.6</ele>
        <time>2019-01-07T12:51:47Z</time>
      </trkpt>
      <trkpt lat="37.049575725037" lon="-3.373355920861">
        <ele>3111.8</ele>
        <time>2019-01-07T12:51:48Z</time>
      </trkpt>
      <trkpt lat="37.049603050031" lon="-3.373412833962">
        <ele>3109.8</ele>
        <time>2019-01-07T12:51:49Z</time>
      </trkpt>
      <trkpt lat="37.049620484383" lon="-3.373478883334">
        <ele>3107.6</ele>
        <time>2019-01-07T12:51:50Z</time>
      </trkpt>
      <trkpt lat="37.049645462445" lon="-3.373544178335">
        <ele>3105.6</ele>
        <time>2019-01-07T12:51:51Z</time>
      </trkpt>
      <trkpt lat="37.04967940914" lon="-3.373593966821">
        <ele>3103.4</ele>
        <time>2019-01-07T12:51:52Z</time>
      </trkpt>
      <trkpt lat="37.049701704994" lon="-3.373644844954">
        <ele>3101.2</ele>
        <time>2019-01-07T12:51:53Z</time>
      </trkpt>
      <trkpt lat="37.049721653916" lon="-3.373696645096">
        <ele>3099.2</ele>
        <time>2019-01-07T12:51:54Z</time>
      </trkpt>
      <trkpt lat="37.049747051073" lon="-3.373753642016">
        <ele>3097</ele>
        <time>2019-01-07T12:51:55Z</time>
      </trkpt>
      <trkpt lat="37.049778399379" lon="-3.37380611271">
        <ele>3094.8</ele>
        <time>2019-01-07T12:51:56Z</time>
      </trkpt>
      <trkpt lat="37.049781416863" lon="-3.37387232972">
        <ele>3092.4</ele>
        <time>2019-01-07T12:51:57Z</time>
      </trkpt>
      <trkpt lat="37.049787368012" lon="-3.373942486223">
        <ele>3090.4</ele>
        <time>2019-01-07T12:51:58Z</time>
      </trkpt>
      <trkpt lat="37.049800611414" lon="-3.374004512283">
        <ele>3088.4</ele>
        <time>2019-01-07T12:51:59Z</time>
      </trkpt>
      <trkpt lat="37.049828020227" lon="-3.374056312425">
        <ele>3086.2</ele>
        <time>2019-01-07T12:52:00Z</time>
      </trkpt>
      <trkpt lat="37.049829193693" lon="-3.374114650449">
        <ele>3083.8</ele>
        <time>2019-01-07T12:52:01Z</time>
      </trkpt>
      <trkpt lat="37.049824918924" lon="-3.374170390084">
        <ele>3081.8</ele>
        <time>2019-01-07T12:52:02Z</time>
      </trkpt>
      <trkpt lat="37.049841515086" lon="-3.374224620977">
        <ele>3079.8</ele>
        <time>2019-01-07T12:52:03Z</time>
      </trkpt>
      <trkpt lat="37.049872360478" lon="-3.374264854097">
        <ele>3077.6</ele>
        <time>2019-01-07T12:52:04Z</time>
      </trkpt>
      <trkpt lat="37.049889459554" lon="-3.374312211832">
        <ele>3075.2</ele>
        <time>2019-01-07T12:52:05Z</time>
      </trkpt>
      <trkpt lat="37.049885855337" lon="-3.374374908444">
        <ele>3073.4</ele>
        <time>2019-01-07T12:52:06Z</time>
      </trkpt>
      <trkpt lat="37.049890297744" lon="-3.374440203445">
        <ele>3071.6</ele>
        <time>2019-01-07T12:52:07Z</time>
      </trkpt>
      <trkpt lat="37.049937906936" lon="-3.374488231732">
        <ele>3069.8</ele>
        <time>2019-01-07T12:52:08Z</time>
      </trkpt>
      <trkpt lat="37.050002279928" lon="-3.374523770988">
        <ele>3067.4</ele>
        <time>2019-01-07T12:52:09Z</time>
      </trkpt>
      <trkpt lat="37.050056929916" lon="-3.374557382407">
        <ele>3065</ele>
        <time>2019-01-07T12:52:10Z</time>
      </trkpt>
      <trkpt lat="37.050078555218" lon="-3.374602477029">
        <ele>3062.8</ele>
        <time>2019-01-07T12:52:11Z</time>
      </trkpt>
      <trkpt lat="37.050088110584" lon="-3.37466861022">
        <ele>3060.8</ele>
        <time>2019-01-07T12:52:12Z</time>
      </trkpt>
      <trkpt lat="37.050127673152" lon="-3.37470968153">
        <ele>3059</ele>
        <time>2019-01-07T12:52:13Z</time>
      </trkpt>
      <trkpt lat="37.050175952896" lon="-3.374752010125">
        <ele>3056.8</ele>
        <time>2019-01-07T12:52:14Z</time>
      </trkpt>
      <trkpt lat="37.050218868224" lon="-3.374793332892">
        <ele>3054.4</ele>
        <time>2019-01-07T12:52:15Z</time>
      </trkpt>
      <trkpt lat="37.050236051119" lon="-3.374839098066">
        <ele>3052</ele>
        <time>2019-01-07T12:52:16Z</time>
      </trkpt>
      <trkpt lat="37.050216772749" lon="-3.374886707258">
        <ele>3050.4</ele>
        <time>2019-01-07T12:52:17Z</time>
      </trkpt>
      <trkpt lat="37.050177964552" lon="-3.374934819364">
        <ele>3048.8</ele>
        <time>2019-01-07T12:52:18Z</time>
      </trkpt>
      <trkpt lat="37.0501689121" lon="-3.374989217895">
        <ele>3047</ele>
        <time>2019-01-07T12:52:19Z</time>
      </trkpt>
      <trkpt lat="37.05019321961" lon="-3.375045041349">
        <ele>3044.6</ele>
        <time>2019-01-07T12:52:20Z</time>
      </trkpt>
      <trkpt lat="37.050207971754" lon="-3.375090638885">
        <ele>3042.4</ele>
        <time>2019-01-07T12:52:21Z</time>
      </trkpt>
      <trkpt lat="37.050196740008" lon="-3.375130788186">
        <ele>3040.8</ele>
        <time>2019-01-07T12:52:22Z</time>
      </trkpt>
      <trkpt lat="37.05018316133" lon="-3.375178145921">
        <ele>3039.2</ele>
        <time>2019-01-07T12:52:23Z</time>
      </trkpt>
      <trkpt lat="37.050179724751" lon="-3.375233466461">
        <ele>3037.6</ele>
        <time>2019-01-07T12:52:24Z</time>
      </trkpt>
      <trkpt lat="37.050161284571" lon="-3.375293480865">
        <ele>3035.8</ele>
        <time>2019-01-07T12:52:25Z</time>
      </trkpt>
      <trkpt lat="37.050127421695" lon="-3.375349136681">
        <ele>3033.8</ele>
        <time>2019-01-07T12:52:26Z</time>
      </trkpt>
      <trkpt lat="37.050121554365" lon="-3.375412755302">
        <ele>3032.4</ele>
        <time>2019-01-07T12:52:27Z</time>
      </trkpt>
      <trkpt lat="37.050148376445" lon="-3.375478050303">
        <ele>3030.2</ele>
        <time>2019-01-07T12:52:28Z</time>
      </trkpt>
      <trkpt lat="37.050164134417" lon="-3.375555163783">
        <ele>3028</ele>
        <time>2019-01-07T12:52:29Z</time>
      </trkpt>
      <trkpt lat="37.050156758345" lon="-3.375639820973">
        <ele>3026</ele>
        <time>2019-01-07T12:52:30Z</time>
      </trkpt>
      <trkpt lat="37.050170504661" lon="-3.375743085981">
        <ele>3023.8</ele>
        <time>2019-01-07T12:52:31Z</time>
      </trkpt>
      <trkpt lat="37.050188777203" lon="-3.375838472003">
        <ele>3021</ele>
        <time>2019-01-07T12:52:32Z</time>
      </trkpt>
      <trkpt lat="37.050180814398" lon="-3.375951627653">
        <ele>3018.4</ele>
        <time>2019-01-07T12:52:33Z</time>
      </trkpt>
      <trkpt lat="37.05017058848" lon="-3.376065789131">
        <ele>3016</ele>
        <time>2019-01-07T12:52:34Z</time>
      </trkpt>
      <trkpt lat="37.050194979809" lon="-3.376169137958">
        <ele>3013.8</ele>
        <time>2019-01-07T12:52:35Z</time>
      </trkpt>
      <trkpt lat="37.050238733327" lon="-3.376254968614">
        <ele>3011.2</ele>
        <time>2019-01-07T12:52:36Z</time>
      </trkpt>
      <trkpt lat="37.050261280638" lon="-3.376338368519">
        <ele>3008.6</ele>
        <time>2019-01-07T12:52:37Z</time>
      </trkpt>
      <trkpt lat="37.050243594829" lon="-3.376411291049">
        <ele>3006.4</ele>
        <time>2019-01-07T12:52:38Z</time>
      </trkpt>
      <trkpt lat="37.050234626196" lon="-3.376476753688">
        <ele>3004.8</ele>
        <time>2019-01-07T12:52:39Z</time>
      </trkpt>
      <trkpt lat="37.050253904566" lon="-3.37653777392">
        <ele>3003.2</ele>
        <time>2019-01-07T12:52:40Z</time>
      </trkpt>
      <trkpt lat="37.050297406627" lon="-3.376600386713">
        <ele>3001.4</ele>
        <time>2019-01-07T12:52:41Z</time>
      </trkpt>
      <trkpt lat="37.050343004163" lon="-3.376663418601">
        <ele>2999.4</ele>
        <time>2019-01-07T12:52:42Z</time>
      </trkpt>
      <trkpt lat="37.050363288361" lon="-3.376748494886">
        <ele>2997.8</ele>
        <time>2019-01-07T12:52:43Z</time>
      </trkpt>
      <trkpt lat="37.050403186205" lon="-3.376818902846">
        <ele>2996.2</ele>
        <time>2019-01-07T12:52:44Z</time>
      </trkpt>
      <trkpt lat="37.050440569479" lon="-3.376902889484">
        <ele>2994.6</ele>
        <time>2019-01-07T12:52:45Z</time>
      </trkpt>
      <trkpt lat="37.050497817856" lon="-3.376980673516">
        <ele>2992.4</ele>
        <time>2019-01-07T12:52:46Z</time>
      </trkpt>
      <trkpt lat="37.050547438704" lon="-3.377072874416">
        <ele>2989.8</ele>
        <time>2019-01-07T12:52:47Z</time>
      </trkpt>
      <trkpt lat="37.050567387626" lon="-3.377191394482">
        <ele>2987.4</ele>
        <time>2019-01-07T12:52:48Z</time>
      </trkpt>
      <trkpt lat="37.050597646285" lon="-3.377305639779">
        <ele>2985.2</ele>
        <time>2019-01-07T12:52:49Z</time>
      </trkpt>
      <trkpt lat="37.050645590753" lon="-3.377413179556">
        <ele>2981.8</ele>
        <time>2019-01-07T12:52:50Z</time>
      </trkpt>
      <trkpt lat="37.050736199092" lon="-3.377519042953">
        <ele>2977.2</ele>
        <time>2019-01-07T12:52:51Z</time>
      </trkpt>
      <trkpt lat="37.050828819087" lon="-3.377633372069">
        <ele>2973</ele>
        <time>2019-01-07T12:52:52Z</time>
      </trkpt>
      <trkpt lat="37.050884391084" lon="-3.377774439446">
        <ele>2969.6</ele>
        <time>2019-01-07T12:52:53Z</time>
      </trkpt>
      <trkpt lat="37.050892437708" lon="-3.37794341855">
        <ele>2967</ele>
        <time>2019-01-07T12:52:54Z</time>
      </trkpt>
      <trkpt lat="37.050901741617" lon="-3.378111727102">
        <ele>2964.6</ele>
        <time>2019-01-07T12:52:55Z</time>
      </trkpt>
      <trkpt lat="37.050966533704" lon="-3.378262014569">
        <ele>2960.8</ele>
        <time>2019-01-07T12:52:56Z</time>
      </trkpt>
      <trkpt lat="37.051036774026" lon="-3.37840945219">
        <ele>2956.4</ele>
        <time>2019-01-07T12:52:57Z</time>
      </trkpt>
      <trkpt lat="37.051095279688" lon="-3.378561918951">
        <ele>2952</ele>
        <time>2019-01-07T12:52:58Z</time>
      </trkpt>
      <trkpt lat="37.051110031832" lon="-3.37871120059">
        <ele>2949.2</ele>
        <time>2019-01-07T12:52:59Z</time>
      </trkpt>
      <trkpt lat="37.051121179759" lon="-3.37885117832">
        <ele>2947.4</ele>
        <time>2019-01-07T12:53:00Z</time>
      </trkpt>
      <trkpt lat="37.051164933277" lon="-3.378975398078">
        <ele>2945.4</ele>
        <time>2019-01-07T12:53:01Z</time>
      </trkpt>
      <trkpt lat="37.051200556352" lon="-3.37910850265">
        <ele>2943.4</ele>
        <time>2019-01-07T12:53:02Z</time>
      </trkpt>
      <trkpt lat="37.051240621834" lon="-3.379228615277">
        <ele>2941.2</ele>
        <time>2019-01-07T12:53:03Z</time>
      </trkpt>
      <trkpt lat="37.051294768908" lon="-3.379364904971">
        <ele>2939.8</ele>
        <time>2019-01-07T12:53:04Z</time>
      </trkpt>
      <trkpt lat="37.051357716977" lon="-3.379501110846">
        <ele>2937.6</ele>
        <time>2019-01-07T12:53:05Z</time>
      </trkpt>
      <trkpt lat="37.051402476323" lon="-3.37965081158">
        <ele>2935.2</ele>
        <time>2019-01-07T12:53:06Z</time>
      </trkpt>
      <trkpt lat="37.051421419417" lon="-3.379814007173">
        <ele>2932.6</ele>
        <time>2019-01-07T12:53:07Z</time>
      </trkpt>
      <trkpt lat="37.051451175162" lon="-3.379965300468">
        <ele>2930.8</ele>
        <time>2019-01-07T12:53:08Z</time>
      </trkpt>
      <trkpt lat="37.051501885657" lon="-3.380081054507">
        <ele>2928.8</ele>
        <time>2019-01-07T12:53:09Z</time>
      </trkpt>
      <trkpt lat="37.051567348296" lon="-3.380167807172">
        <ele>2927</ele>
        <time>2019-01-07T12:53:10Z</time>
      </trkpt>
      <trkpt lat="37.051612945832" lon="-3.380250285068">
        <ele>2925.2</ele>
        <time>2019-01-07T12:53:11Z</time>
      </trkpt>
      <trkpt lat="37.051650077649" lon="-3.380332343869">
        <ele>2924</ele>
        <time>2019-01-07T12:53:12Z</time>
      </trkpt>
      <trkpt lat="37.051697519203" lon="-3.380390849531">
        <ele>2922.8</ele>
        <time>2019-01-07T12:53:13Z</time>
      </trkpt>
      <trkpt lat="37.051781757298" lon="-3.380517751497">
        <ele>2921</ele>
        <time>2019-01-07T12:53:15Z</time>
      </trkpt>
      <trkpt lat="37.05186540866" lon="-3.380639205228">
        <ele>2919</ele>
        <time>2019-01-07T12:53:17Z</time>
      </trkpt>
      <trkpt lat="37.051893990939" lon="-3.380707433894">
        <ele>2917.6</ele>
        <time>2019-01-07T12:53:18Z</time>
      </trkpt>
      <trkpt lat="37.051926931806" lon="-3.380767196841">
        <ele>2916</ele>
        <time>2019-01-07T12:53:19Z</time>
      </trkpt>
      <trkpt lat="37.05196180051" lon="-3.38081170473">
        <ele>2914.6</ele>
        <time>2019-01-07T12:53:20Z</time>
      </trkpt>
      <trkpt lat="37.051986275658" lon="-3.38085193785">
        <ele>2912.8</ele>
        <time>2019-01-07T12:53:21Z</time>
      </trkpt>
      <trkpt lat="37.052019719439" lon="-3.380892841522">
        <ele>2911</ele>
        <time>2019-01-07T12:53:22Z</time>
      </trkpt>
      <trkpt lat="37.052057605627" lon="-3.380928129321">
        <ele>2909.2</ele>
        <time>2019-01-07T12:53:23Z</time>
      </trkpt>
      <trkpt lat="37.052083505698" lon="-3.380964506767">
        <ele>2907.4</ele>
        <time>2019-01-07T12:53:24Z</time>
      </trkpt>
      <trkpt lat="37.05214452593" lon="-3.380963500939">
        <ele>2905.8</ele>
        <time>2019-01-07T12:53:25Z</time>
      </trkpt>
      <trkpt lat="37.052195236425" lon="-3.381003398783">
        <ele>2904</ele>
        <time>2019-01-07T12:53:26Z</time>
      </trkpt>
      <trkpt lat="37.052226081817" lon="-3.381049415414">
        <ele>2902</ele>
        <time>2019-01-07T12:53:27Z</time>
      </trkpt>
      <trkpt lat="37.052258771227" lon="-3.381125103971">
        <ele>2899.8</ele>
        <time>2019-01-07T12:53:28Z</time>
      </trkpt>
      <trkpt lat="37.052309816998" lon="-3.381203893831">
        <ele>2897.4</ele>
        <time>2019-01-07T12:53:29Z</time>
      </trkpt>
      <trkpt lat="37.052378213302" lon="-3.381260471656">
        <ele>2895.2</ele>
        <time>2019-01-07T12:53:30Z</time>
      </trkpt>
      <trkpt lat="37.052423727019" lon="-3.381315959834">
        <ele>2892.4</ele>
        <time>2019-01-07T12:53:31Z</time>
      </trkpt>
      <trkpt lat="37.052455829696" lon="-3.381402125766">
        <ele>2889.6</ele>
        <time>2019-01-07T12:53:32Z</time>
      </trkpt>
      <trkpt lat="37.052492039504" lon="-3.381491225363">
        <ele>2887</ele>
        <time>2019-01-07T12:53:33Z</time>
      </trkpt>
      <trkpt lat="37.052540654524" lon="-3.38156356116">
        <ele>2884.4</ele>
        <time>2019-01-07T12:53:34Z</time>
      </trkpt>
      <trkpt lat="37.052576361418" lon="-3.38163229274">
        <ele>2881.2</ele>
        <time>2019-01-07T12:53:35Z</time>
      </trkpt>
      <trkpt lat="37.052571248459" lon="-3.381728097857">
        <ele>2878.2</ele>
        <time>2019-01-07T12:53:36Z</time>
      </trkpt>
      <trkpt lat="37.052575187952" lon="-3.38182926739">
        <ele>2875.8</ele>
        <time>2019-01-07T12:53:37Z</time>
      </trkpt>
      <trkpt lat="37.052594801598" lon="-3.381930269285">
        <ele>2873.4</ele>
        <time>2019-01-07T12:53:38Z</time>
      </trkpt>
      <trkpt lat="37.052611984493" lon="-3.382030013895">
        <ele>2870.2</ele>
        <time>2019-01-07T12:53:39Z</time>
      </trkpt>
      <trkpt lat="37.052587006431" lon="-3.382140319699">
        <ele>2867</ele>
        <time>2019-01-07T12:53:40Z</time>
      </trkpt>
      <trkpt lat="37.052582480205" lon="-3.382264707095">
        <ele>2864.2</ele>
        <time>2019-01-07T12:53:41Z</time>
      </trkpt>
      <trkpt lat="37.052627910103" lon="-3.382378868573">
        <ele>2861.4</ele>
        <time>2019-01-07T12:53:42Z</time>
      </trkpt>
      <trkpt lat="37.052683733557" lon="-3.382481714486">
        <ele>2858.4</ele>
        <time>2019-01-07T12:53:43Z</time>
      </trkpt>
      <trkpt lat="37.052695468217" lon="-3.382609035547">
        <ele>2855.6</ele>
        <time>2019-01-07T12:53:44Z</time>
      </trkpt>
      <trkpt lat="37.052720865374" lon="-3.382746414888">
        <ele>2853</ele>
        <time>2019-01-07T12:53:45Z</time>
      </trkpt>
      <trkpt lat="37.052780209226" lon="-3.382874574139">
        <ele>2850.2</ele>
        <time>2019-01-07T12:53:46Z</time>
      </trkpt>
      <trkpt lat="37.052844246942" lon="-3.382997788069">
        <ele>2846.6</ele>
        <time>2019-01-07T12:53:47Z</time>
      </trkpt>
      <trkpt lat="37.05286956028" lon="-3.383148243174">
        <ele>2842.8</ele>
        <time>2019-01-07T12:53:48Z</time>
      </trkpt>
      <trkpt lat="37.052914906359" lon="-3.383301631944">
        <ele>2839.8</ele>
        <time>2019-01-07T12:53:49Z</time>
      </trkpt>
      <trkpt lat="37.053011884942" lon="-3.383400286907">
        <ele>2837.4</ele>
        <time>2019-01-07T12:53:50Z</time>
      </trkpt>
      <trkpt lat="37.053135182691" lon="-3.383465330451">
        <ele>2834.8</ele>
        <time>2019-01-07T12:53:51Z</time>
      </trkpt>
      <trkpt lat="37.053247416332" lon="-3.38355845336">
        <ele>2831.6</ele>
        <time>2019-01-07T12:53:52Z</time>
      </trkpt>
      <trkpt lat="37.053330229504" lon="-3.383693318131">
        <ele>2828.8</ele>
        <time>2019-01-07T12:53:53Z</time>
      </trkpt>
      <trkpt lat="37.05337415066" lon="-3.383848215643">
        <ele>2826.4</ele>
        <time>2019-01-07T12:53:54Z</time>
      </trkpt>
      <trkpt lat="37.053455119814" lon="-3.383955420144">
        <ele>2824.6</ele>
        <time>2019-01-07T12:53:55Z</time>
      </trkpt>
      <trkpt lat="37.053534161131" lon="-3.384066983233">
        <ele>2822.6</ele>
        <time>2019-01-07T12:53:56Z</time>
      </trkpt>
      <trkpt lat="37.05360381472" lon="-3.384174020096">
        <ele>2820.6</ele>
        <time>2019-01-07T12:53:57Z</time>
      </trkpt>
      <trkpt lat="37.053626026755" lon="-3.384276614552">
        <ele>2818.6</ele>
        <time>2019-01-07T12:53:58Z</time>
      </trkpt>
      <trkpt lat="37.053605574919" lon="-3.384339814078">
        <ele>2817.2</ele>
        <time>2019-01-07T12:53:59Z</time>
      </trkpt>
      <trkpt lat="37.053555870252" lon="-3.384382226492">
        <ele>2815.8</ele>
        <time>2019-01-07T12:54:00Z</time>
      </trkpt>
      <trkpt lat="37.053511949096" lon="-3.384411982237">
        <ele>2814.6</ele>
        <time>2019-01-07T12:54:01Z</time>
      </trkpt>
      <trkpt lat="37.053504656843" lon="-3.384496807065">
        <ele>2813</ele>
        <time>2019-01-07T12:54:03Z</time>
      </trkpt>
      <trkpt lat="37.053489988518" lon="-3.38454081204">
        <ele>2812.2</ele>
        <time>2019-01-07T12:54:04Z</time>
      </trkpt>
      <trkpt lat="37.05345880785" lon="-3.384580290789">
        <ele>2811.4</ele>
        <time>2019-01-07T12:54:05Z</time>
      </trkpt>
      <trkpt lat="37.053413042676" lon="-3.384614991855">
        <ele>2810.6</ele>
        <time>2019-01-07T12:54:06Z</time>
      </trkpt>
      <trkpt lat="37.053373563927" lon="-3.384666708178">
        <ele>2809.8</ele>
        <time>2019-01-07T12:54:07Z</time>
      </trkpt>
      <trkpt lat="37.053335510101" lon="-3.384735775034">
        <ele>2808.6</ele>
        <time>2019-01-07T12:54:08Z</time>
      </trkpt>
      <trkpt lat="37.053278513181" lon="-3.384812720876">
        <ele>2807</ele>
        <time>2019-01-07T12:54:09Z</time>
      </trkpt>
      <trkpt lat="37.053208775773" lon="-3.384903245396">
        <ele>2805.2</ele>
        <time>2019-01-07T12:54:10Z</time>
      </trkpt>
      <trkpt lat="37.053144989514" lon="-3.385019669987">
        <ele>2803.4</ele>
        <time>2019-01-07T12:54:11Z</time>
      </trkpt>
      <trkpt lat="37.053078688685" lon="-3.385136932768">
        <ele>2801.4</ele>
        <time>2019-01-07T12:54:12Z</time>
      </trkpt>
      <trkpt lat="37.053003503042" lon="-3.385238102301">
        <ele>2799.2</ele>
        <time>2019-01-07T12:54:13Z</time>
      </trkpt>
      <trkpt lat="37.052916163644" lon="-3.385320412559">
        <ele>2797.4</ele>
        <time>2019-01-07T12:54:14Z</time>
      </trkpt>
      <trkpt lat="37.052827566961" lon="-3.385378499126">
        <ele>2796</ele>
        <time>2019-01-07T12:54:15Z</time>
      </trkpt>
      <trkpt lat="37.05276394834" lon="-3.385448152715">
        <ele>2794.8</ele>
        <time>2019-01-07T12:54:16Z</time>
      </trkpt>
      <trkpt lat="37.052722960849" lon="-3.385533815733">
        <ele>2793.6</ele>
        <time>2019-01-07T12:54:17Z</time>
      </trkpt>
      <trkpt lat="37.052670741612" lon="-3.385611432127">
        <ele>2792.6</ele>
        <time>2019-01-07T12:54:18Z</time>
      </trkpt>
      <trkpt lat="37.052562279826" lon="-3.385787452027">
        <ele>2790.8</ele>
        <time>2019-01-07T12:54:20Z</time>
      </trkpt>
      <trkpt lat="37.052507881295" lon="-3.38588191604">
        <ele>2789.6</ele>
        <time>2019-01-07T12:54:21Z</time>
      </trkpt>
      <trkpt lat="37.052455745877" lon="-3.385977218243">
        <ele>2788.4</ele>
        <time>2019-01-07T12:54:22Z</time>
      </trkpt>
      <trkpt lat="37.052403861916" lon="-3.38607302336">
        <ele>2787.4</ele>
        <time>2019-01-07T12:54:23Z</time>
      </trkpt>
      <trkpt lat="37.052302608564" lon="-3.386245941957">
        <ele>2785.8</ele>
        <time>2019-01-07T12:54:25Z</time>
      </trkpt>
      <trkpt lat="37.052201606669" lon="-3.386382986022">
        <ele>2784.8</ele>
        <time>2019-01-07T12:54:27Z</time>
      </trkpt>
      <trkpt lat="37.052088031924" lon="-3.386512067282">
        <ele>2783.6</ele>
        <time>2019-01-07T12:54:29Z</time>
      </trkpt>
      <trkpt lat="37.05198946078" lon="-3.386650955365">
        <ele>2782.6</ele>
        <time>2019-01-07T12:54:31Z</time>
      </trkpt>
      <trkpt lat="37.051934643154" lon="-3.386840386305">
        <ele>2781</ele>
        <time>2019-01-07T12:54:33Z</time>
      </trkpt>
      <trkpt lat="37.051901199373" lon="-3.387041635724">
        <ele>2779.2</ele>
        <time>2019-01-07T12:54:35Z</time>
      </trkpt>
      <trkpt lat="37.051883765021" lon="-3.387209609">
        <ele>2777.8</ele>
        <time>2019-01-07T12:54:37Z</time>
      </trkpt>
      <trkpt lat="37.051873287646" lon="-3.387282280073">
        <ele>2777.2</ele>
        <time>2019-01-07T12:54:38Z</time>
      </trkpt>
      <trkpt lat="37.051856607665" lon="-3.387343803219">
        <ele>2776.6</ele>
        <time>2019-01-07T12:54:39Z</time>
      </trkpt>
      <trkpt lat="37.05184026296" lon="-3.387431561712">
        <ele>2775.4</ele>
        <time>2019-01-07T12:54:41Z</time>
      </trkpt>
      <trkpt lat="37.051897678975" lon="-3.387469783176">
        <ele>2774.2</ele>
        <time>2019-01-07T12:54:43Z</time>
      </trkpt>
      <trkpt lat="37.051964985632" lon="-3.387563408999">
        <ele>2772.4</ele>
        <time>2019-01-07T12:54:45Z</time>
      </trkpt>
      <trkpt lat="37.052043859311" lon="-3.387708415869">
        <ele>2770.4</ele>
        <time>2019-01-07T12:54:47Z</time>
      </trkpt>
      <trkpt lat="37.052086942277" lon="-3.387790977584">
        <ele>2769.4</ele>
        <time>2019-01-07T12:54:48Z</time>
      </trkpt>
      <trkpt lat="37.052127007759" lon="-3.387891476565">
        <ele>2768.2</ele>
        <time>2019-01-07T12:54:49Z</time>
      </trkpt>
      <trkpt lat="37.052176544788" lon="-3.387979402696">
        <ele>2766.8</ele>
        <time>2019-01-07T12:54:50Z</time>
      </trkpt>
      <trkpt lat="37.052249132042" lon="-3.388097755124">
        <ele>2764.8</ele>
        <time>2019-01-07T12:54:51Z</time>
      </trkpt>
      <trkpt lat="37.052343847512" lon="-3.388229434773">
        <ele>2762</ele>
        <time>2019-01-07T12:54:52Z</time>
      </trkpt>
      <trkpt lat="37.052462702854" lon="-3.388329682297">
        <ele>2758.6</ele>
        <time>2019-01-07T12:54:53Z</time>
      </trkpt>
      <trkpt lat="37.052576612875" lon="-3.388429594545">
        <ele>2755.2</ele>
        <time>2019-01-07T12:54:54Z</time>
      </trkpt>
      <trkpt lat="37.0526834821" lon="-3.3885423311">
        <ele>2751.6</ele>
        <time>2019-01-07T12:54:55Z</time>
      </trkpt>
      <trkpt lat="37.052791692429" lon="-3.388662359908">
        <ele>2748.2</ele>
        <time>2019-01-07T12:54:56Z</time>
      </trkpt>
      <trkpt lat="37.052884396243" lon="-3.388798984878">
        <ele>2744.8</ele>
        <time>2019-01-07T12:54:57Z</time>
      </trkpt>
      <trkpt lat="37.052965533035" lon="-3.388934017287">
        <ele>2742</ele>
        <time>2019-01-07T12:54:58Z</time>
      </trkpt>
      <trkpt lat="37.053034432253" lon="-3.389060835434">
        <ele>2739.4</ele>
        <time>2019-01-07T12:54:59Z</time>
      </trkpt>
      <trkpt lat="37.053074665373" lon="-3.389199052965">
        <ele>2737.2</ele>
        <time>2019-01-07T12:55:00Z</time>
      </trkpt>
      <trkpt lat="37.053115401407" lon="-3.389331151709">
        <ele>2735</ele>
        <time>2019-01-07T12:55:01Z</time>
      </trkpt>
      <trkpt lat="37.053168123558" lon="-3.38945344363">
        <ele>2733.4</ele>
        <time>2019-01-07T12:55:02Z</time>
      </trkpt>
      <trkpt lat="37.053235430215" lon="-3.389565509633">
        <ele>2732</ele>
        <time>2019-01-07T12:55:03Z</time>
      </trkpt>
      <trkpt lat="37.053313381885" lon="-3.389670702478">
        <ele>2730.8</ele>
        <time>2019-01-07T12:55:04Z</time>
      </trkpt>
      <trkpt lat="37.053381610551" lon="-3.3897912342">
        <ele>2729.6</ele>
        <time>2019-01-07T12:55:05Z</time>
      </trkpt>
      <trkpt lat="37.053431566675" lon="-3.389935151423">
        <ele>2728.2</ele>
        <time>2019-01-07T12:55:06Z</time>
      </trkpt>
      <trkpt lat="37.05349401183" lon="-3.390064316502">
        <ele>2727</ele>
        <time>2019-01-07T12:55:07Z</time>
      </trkpt>
      <trkpt lat="37.053573304604" lon="-3.39016255237">
        <ele>2725.2</ele>
        <time>2019-01-07T12:55:08Z</time>
      </trkpt>
      <trkpt lat="37.053640192166" lon="-3.390276294753">
        <ele>2723.4</ele>
        <time>2019-01-07T12:55:09Z</time>
      </trkpt>
      <trkpt lat="37.053701212398" lon="-3.390405040737">
        <ele>2721.4</ele>
        <time>2019-01-07T12:55:10Z</time>
      </trkpt>
      <trkpt lat="37.053770446892" lon="-3.390507299917">
        <ele>2719.8</ele>
        <time>2019-01-07T12:55:11Z</time>
      </trkpt>
      <trkpt lat="37.053852673331" lon="-3.390566895226">
        <ele>2718.6</ele>
        <time>2019-01-07T12:55:12Z</time>
      </trkpt>
      <trkpt lat="37.0539407671" lon="-3.390593046754">
        <ele>2717.2</ele>
        <time>2019-01-07T12:55:13Z</time>
      </trkpt>
      <trkpt lat="37.054006397377" lon="-3.390634704797">
        <ele>2715.8</ele>
        <time>2019-01-07T12:55:14Z</time>
      </trkpt>
      <trkpt lat="37.054059203347" lon="-3.390689103328">
        <ele>2714.4</ele>
        <time>2019-01-07T12:55:15Z</time>
      </trkpt>
      <trkpt lat="37.054120307398" lon="-3.390721541281">
        <ele>2713.6</ele>
        <time>2019-01-07T12:55:16Z</time>
      </trkpt>
      <trkpt lat="37.054183171648" lon="-3.390731348104">
        <ele>2712.6</ele>
        <time>2019-01-07T12:55:17Z</time>
      </trkpt>
      <trkpt lat="37.054236564351" lon="-3.390758589279">
        <ele>2711.6</ele>
        <time>2019-01-07T12:55:18Z</time>
      </trkpt>
      <trkpt lat="37.054288951226" lon="-3.390796978381">
        <ele>2710.6</ele>
        <time>2019-01-07T12:55:19Z</time>
      </trkpt>
      <trkpt lat="37.054354413865" lon="-3.390822626995">
        <ele>2709.8</ele>
        <time>2019-01-07T12:55:20Z</time>
      </trkpt>
      <trkpt lat="37.054415015002" lon="-3.390854562034">
        <ele>2708.6</ele>
        <time>2019-01-07T12:55:21Z</time>
      </trkpt>
      <trkpt lat="37.054485339143" lon="-3.390905440167">
        <ele>2707.4</ele>
        <time>2019-01-07T12:55:22Z</time>
      </trkpt>
      <trkpt lat="37.054552729619" lon="-3.390952211169">
        <ele>2706</ele>
        <time>2019-01-07T12:55:23Z</time>
      </trkpt>
      <trkpt lat="37.054616432059" lon="-3.390997892524">
        <ele>2704.6</ele>
        <time>2019-01-07T12:55:24Z</time>
      </trkpt>
      <trkpt lat="37.054684157811" lon="-3.391036030169">
        <ele>2703.2</ele>
        <time>2019-01-07T12:55:25Z</time>
      </trkpt>
      <trkpt lat="37.054746016233" lon="-3.391049776485">
        <ele>2701.6</ele>
        <time>2019-01-07T12:55:26Z</time>
      </trkpt>
      <trkpt lat="37.054809215759" lon="-3.391047932467">
        <ele>2700</ele>
        <time>2019-01-07T12:55:27Z</time>
      </trkpt>
      <trkpt lat="37.054865625946" lon="-3.39107701766">
        <ele>2698.2</ele>
        <time>2019-01-07T12:55:28Z</time>
      </trkpt>
      <trkpt lat="37.054919353925" lon="-3.391129572173">
        <ele>2696.6</ele>
        <time>2019-01-07T12:55:29Z</time>
      </trkpt>
      <trkpt lat="37.054983056365" lon="-3.391159244099">
        <ele>2695</ele>
        <time>2019-01-07T12:55:30Z</time>
      </trkpt>
      <trkpt lat="37.055042567855" lon="-3.391162261583">
        <ele>2693</ele>
        <time>2019-01-07T12:55:31Z</time>
      </trkpt>
      <trkpt lat="37.055096379653" lon="-3.391205763644">
        <ele>2691</ele>
        <time>2019-01-07T12:55:32Z</time>
      </trkpt>
      <trkpt lat="37.055153963306" lon="-3.391252534646">
        <ele>2689</ele>
        <time>2019-01-07T12:55:33Z</time>
      </trkpt>
      <trkpt lat="37.05520894857" lon="-3.391244488022">
        <ele>2687</ele>
        <time>2019-01-07T12:55:34Z</time>
      </trkpt>
      <trkpt lat="37.055261586902" lon="-3.391237363407">
        <ele>2684.8</ele>
        <time>2019-01-07T12:55:35Z</time>
      </trkpt>
      <trkpt lat="37.05531120775" lon="-3.391259910718">
        <ele>2682.8</ele>
        <time>2019-01-07T12:55:36Z</time>
      </trkpt>
      <trkpt lat="37.055355296544" lon="-3.391291175205">
        <ele>2680.8</ele>
        <time>2019-01-07T12:55:37Z</time>
      </trkpt>
      <trkpt lat="37.055398044234" lon="-3.391287151893">
        <ele>2678.8</ele>
        <time>2019-01-07T12:55:38Z</time>
      </trkpt>
      <trkpt lat="37.055430901282" lon="-3.391252618465">
        <ele>2676.8</ele>
        <time>2019-01-07T12:55:39Z</time>
      </trkpt>
      <trkpt lat="37.055464764158" lon="-3.391222192168">
        <ele>2674.8</ele>
        <time>2019-01-07T12:55:40Z</time>
      </trkpt>
      <trkpt lat="37.055503320898" lon="-3.391214229363">
        <ele>2673.2</ele>
        <time>2019-01-07T12:55:41Z</time>
      </trkpt>
      <trkpt lat="37.055551097728" lon="-3.391221018702">
        <ele>2671.8</ele>
        <time>2019-01-07T12:55:42Z</time>
      </trkpt>
      <trkpt lat="37.055592169038" lon="-3.391195453907">
        <ele>2670.4</ele>
        <time>2019-01-07T12:55:43Z</time>
      </trkpt>
      <trkpt lat="37.055626451009" lon="-3.391178941564">
        <ele>2668.2</ele>
        <time>2019-01-07T12:55:44Z</time>
      </trkpt>
      <trkpt lat="37.055680514264" lon="-3.391210122232">
        <ele>2666.2</ele>
        <time>2019-01-07T12:55:45Z</time>
      </trkpt>
      <trkpt lat="37.055748826749" lon="-3.391228646231">
        <ele>2664</ele>
        <time>2019-01-07T12:55:46Z</time>
      </trkpt>
      <trkpt lat="37.055816971596" lon="-3.391212385345">
        <ele>2661.8</ele>
        <time>2019-01-07T12:55:47Z</time>
      </trkpt>
      <trkpt lat="37.05588033876" lon="-3.391223281815">
        <ele>2659</ele>
        <time>2019-01-07T12:55:48Z</time>
      </trkpt>
      <trkpt lat="37.055954350937" lon="-3.391246918773">
        <ele>2656.2</ele>
        <time>2019-01-07T12:55:49Z</time>
      </trkpt>
      <trkpt lat="37.056028446933" lon="-3.391228143317">
        <ele>2653.2</ele>
        <time>2019-01-07T12:55:50Z</time>
      </trkpt>
      <trkpt lat="37.056105392775" lon="-3.391212217707">
        <ele>2650.2</ele>
        <time>2019-01-07T12:55:51Z</time>
      </trkpt>
      <trkpt lat="37.056189211775" lon="-3.391240045615">
        <ele>2647.2</ele>
        <time>2019-01-07T12:55:52Z</time>
      </trkpt>
      <trkpt lat="37.05627009711" lon="-3.391257899062">
        <ele>2644.2</ele>
        <time>2019-01-07T12:55:53Z</time>
      </trkpt>
      <trkpt lat="37.056341929993" lon="-3.391241721995">
        <ele>2641.2</ele>
        <time>2019-01-07T12:55:54Z</time>
      </trkpt>
      <trkpt lat="37.056416445084" lon="-3.391239039787">
        <ele>2638.2</ele>
        <time>2019-01-07T12:55:55Z</time>
      </trkpt>
      <trkpt lat="37.056484841388" lon="-3.391250271533">
        <ele>2635.6</ele>
        <time>2019-01-07T12:55:56Z</time>
      </trkpt>
      <trkpt lat="37.056556590452" lon="-3.391265442772">
        <ele>2633.2</ele>
        <time>2019-01-07T12:55:57Z</time>
      </trkpt>
      <trkpt lat="37.056634625941" lon="-3.39129075611">
        <ele>2631.2</ele>
        <time>2019-01-07T12:55:58Z</time>
      </trkpt>
      <trkpt lat="37.056702854607" lon="-3.39128488878">
        <ele>2629</ele>
        <time>2019-01-07T12:55:59Z</time>
      </trkpt>
      <trkpt lat="37.05676798197" lon="-3.39129578525">
        <ele>2626.6</ele>
        <time>2019-01-07T12:56:00Z</time>
      </trkpt>
      <trkpt lat="37.056841994147" lon="-3.39132009276">
        <ele>2624.4</ele>
        <time>2019-01-07T12:56:01Z</time>
      </trkpt>
      <trkpt lat="37.056910893365" lon="-3.391346328107">
        <ele>2622</ele>
        <time>2019-01-07T12:56:02Z</time>
      </trkpt>
      <trkpt lat="37.056996556383" lon="-3.391388321426">
        <ele>2620</ele>
        <time>2019-01-07T12:56:03Z</time>
      </trkpt>
      <trkpt lat="37.057076938804" lon="-3.391399553172">
        <ele>2617.8</ele>
        <time>2019-01-07T12:56:04Z</time>
      </trkpt>
      <trkpt lat="37.057154806655" lon="-3.39141648461">
        <ele>2615.4</ele>
        <time>2019-01-07T12:56:05Z</time>
      </trkpt>
      <trkpt lat="37.057242146053" lon="-3.391459651395">
        <ele>2613</ele>
        <time>2019-01-07T12:56:06Z</time>
      </trkpt>
      <trkpt lat="37.057329401632" lon="-3.391495190651">
        <ele>2610.2</ele>
        <time>2019-01-07T12:56:07Z</time>
      </trkpt>
      <trkpt lat="37.057416070478" lon="-3.391533579753">
        <ele>2607.6</ele>
        <time>2019-01-07T12:56:08Z</time>
      </trkpt>
      <trkpt lat="37.057498296917" lon="-3.391595438175">
        <ele>2604.8</ele>
        <time>2019-01-07T12:56:09Z</time>
      </trkpt>
      <trkpt lat="37.057579517528" lon="-3.391681101193">
        <ele>2602.6</ele>
        <time>2019-01-07T12:56:10Z</time>
      </trkpt>
      <trkpt lat="37.057647159461" lon="-3.391776822491">
        <ele>2601</ele>
        <time>2019-01-07T12:56:11Z</time>
      </trkpt>
      <trkpt lat="37.057725278769" lon="-3.391866173545">
        <ele>2599.6</ele>
        <time>2019-01-07T12:56:12Z</time>
      </trkpt>
      <trkpt lat="37.057808008122" lon="-3.39195544078">
        <ele>2598.6</ele>
        <time>2019-01-07T12:56:13Z</time>
      </trkpt>
      <trkpt lat="37.057890737475" lon="-3.392047390223">
        <ele>2597.6</ele>
        <time>2019-01-07T12:56:14Z</time>
      </trkpt>
      <trkpt lat="37.057966845127" lon="-3.392150906688">
        <ele>2596.6</ele>
        <time>2019-01-07T12:56:15Z</time>
      </trkpt>
      <trkpt lat="37.058035157612" lon="-3.392258697922">
        <ele>2595.2</ele>
        <time>2019-01-07T12:56:16Z</time>
      </trkpt>
      <trkpt lat="37.058096261663" lon="-3.39237034483">
        <ele>2594</ele>
        <time>2019-01-07T12:56:17Z</time>
      </trkpt>
      <trkpt lat="37.058150911651" lon="-3.392481907919">
        <ele>2592.8</ele>
        <time>2019-01-07T12:56:18Z</time>
      </trkpt>
      <trkpt lat="37.058259457256" lon="-3.392701178423">
        <ele>2591.6</ele>
        <time>2019-01-07T12:56:20Z</time>
      </trkpt>
      <trkpt lat="37.058393148561" lon="-3.393034023672">
        <ele>2590.2</ele>
        <time>2019-01-07T12:56:23Z</time>
      </trkpt>
      <trkpt lat="37.058448217644" lon="-3.393245834285">
        <ele>2589</ele>
        <time>2019-01-07T12:56:25Z</time>
      </trkpt>
      <trkpt lat="37.058560786561" lon="-3.393370221681">
        <ele>2587.6</ele>
        <time>2019-01-07T12:56:27Z</time>
      </trkpt>
      <trkpt lat="37.058673606935" lon="-3.393457393441">
        <ele>2586.4</ele>
        <time>2019-01-07T12:56:29Z</time>
      </trkpt>
      <trkpt lat="37.058840574383" lon="-3.393710359183">
        <ele>2586</ele>
        <time>2019-01-07T12:56:35Z</time>
      </trkpt>
      <trkpt lat="37.058847615179" lon="-3.393717651436">
        <ele>2586.2</ele>
        <time>2019-01-07T12:56:37Z</time>
      </trkpt>
      <trkpt lat="37.05479823547" lon="-3.368688878941">
        <ele>3274.8</ele>
        <time>2019-01-07T13:07:48Z</time>
      </trkpt>
      <trkpt lat="37.054779208557" lon="-3.368808740111">
        <ele>3274.2</ele>
        <time>2019-01-07T13:07:50Z</time>
      </trkpt>
      <trkpt lat="37.054789350656" lon="-3.368863138642">
        <ele>3273.8</ele>
        <time>2019-01-07T13:07:51Z</time>
      </trkpt>
      <trkpt lat="37.054791613769" lon="-3.368914016775">
        <ele>3273</ele>
        <time>2019-01-07T13:07:52Z</time>
      </trkpt>
      <trkpt lat="37.054797481099" lon="-3.368966152193">
        <ele>3272</ele>
        <time>2019-01-07T13:07:53Z</time>
      </trkpt>
      <trkpt lat="37.054818603487" lon="-3.369021556552">
        <ele>3271.4</ele>
        <time>2019-01-07T13:07:54Z</time>
      </trkpt>
      <trkpt lat="37.054836624572" lon="-3.369078134377">
        <ele>3270.6</ele>
        <time>2019-01-07T13:07:55Z</time>
      </trkpt>
      <trkpt lat="37.054846263757" lon="-3.369149212889">
        <ele>3269.8</ele>
        <time>2019-01-07T13:07:56Z</time>
      </trkpt>
      <trkpt lat="37.054869816896" lon="-3.369211909501">
        <ele>3268.6</ele>
        <time>2019-01-07T13:07:57Z</time>
      </trkpt>
      <trkpt lat="37.05490133284" lon="-3.369262200901">
        <ele>3267.2</ele>
        <time>2019-01-07T13:07:58Z</time>
      </trkpt>
      <trkpt lat="37.054906194342" lon="-3.369319533097">
        <ele>3265.6</ele>
        <time>2019-01-07T13:07:59Z</time>
      </trkpt>
      <trkpt lat="37.054906948713" lon="-3.369376697655">
        <ele>3263.8</ele>
        <time>2019-01-07T13:08:00Z</time>
      </trkpt>
      <trkpt lat="37.054920359753" lon="-3.369422965743">
        <ele>3262.6</ele>
        <time>2019-01-07T13:08:01Z</time>
      </trkpt>
      <trkpt lat="37.054951875697" lon="-3.369452637669">
        <ele>3261.4</ele>
        <time>2019-01-07T13:08:02Z</time>
      </trkpt>
      <trkpt lat="37.054981966718" lon="-3.369477028998">
        <ele>3260.2</ele>
        <time>2019-01-07T13:08:03Z</time>
      </trkpt>
      <trkpt lat="37.055002418554" lon="-3.369490607676">
        <ele>3259.2</ele>
        <time>2019-01-07T13:08:04Z</time>
      </trkpt>
      <trkpt lat="37.055011471006" lon="-3.369499408671">
        <ele>3258</ele>
        <time>2019-01-07T13:08:05Z</time>
      </trkpt>
      <trkpt lat="37.055012979748" lon="-3.369513406444">
        <ele>3257</ele>
        <time>2019-01-07T13:08:06Z</time>
      </trkpt>
      <trkpt lat="37.055009124074" lon="-3.36952799095">
        <ele>3256.4</ele>
        <time>2019-01-07T13:08:07Z</time>
      </trkpt>
      <trkpt lat="37.055001161269" lon="-3.369534612651">
        <ele>3255</ele>
        <time>2019-01-07T13:08:09Z</time>
      </trkpt>
      <trkpt lat="37.054993952835" lon="-3.369537294859">
        <ele>3254.2</ele>
        <time>2019-01-07T13:08:11Z</time>
      </trkpt>
      <trkpt lat="37.054984229831" lon="-3.369545257664">
        <ele>3254</ele>
        <time>2019-01-07T13:08:12Z</time>
      </trkpt>
      <trkpt lat="37.054915330613" lon="-3.369587921535">
        <ele>3253.6</ele>
        <time>2019-01-07T13:08:15Z</time>
      </trkpt>
      <trkpt lat="37.054845593205" lon="-3.369619940393">
        <ele>3252.8</ele>
        <time>2019-01-07T13:08:17Z</time>
      </trkpt>
      <trkpt lat="37.054783399507" lon="-3.36965371945">
        <ele>3251.6</ele>
        <time>2019-01-07T13:08:19Z</time>
      </trkpt>
      <trkpt lat="37.054771581028" lon="-3.369726055247">
        <ele>3250.2</ele>
        <time>2019-01-07T13:08:21Z</time>
      </trkpt>
      <trkpt lat="37.054763534404" lon="-3.369834097938">
        <ele>3248.4</ele>
        <time>2019-01-07T13:08:23Z</time>
      </trkpt>
      <trkpt lat="37.054772083942" lon="-3.369893609428">
        <ele>3246.6</ele>
        <time>2019-01-07T13:08:24Z</time>
      </trkpt>
      <trkpt lat="37.054796391452" lon="-3.369944403742">
        <ele>3244.6</ele>
        <time>2019-01-07T13:08:25Z</time>
      </trkpt>
      <trkpt lat="37.05479907366" lon="-3.37001497934">
        <ele>3242.2</ele>
        <time>2019-01-07T13:08:26Z</time>
      </trkpt>
      <trkpt lat="37.054788680104" lon="-3.370102067281">
        <ele>3239.8</ele>
        <time>2019-01-07T13:08:27Z</time>
      </trkpt>
      <trkpt lat="37.054805695361" lon="-3.370178007295">
        <ele>3237</ele>
        <time>2019-01-07T13:08:28Z</time>
      </trkpt>
      <trkpt lat="37.054849448879" lon="-3.37023458512">
        <ele>3234.4</ele>
        <time>2019-01-07T13:08:29Z</time>
      </trkpt>
      <trkpt lat="37.054905775247" lon="-3.370267442168">
        <ele>3231.4</ele>
        <time>2019-01-07T13:08:30Z</time>
      </trkpt>
      <trkpt lat="37.05496587347" lon="-3.370289235108">
        <ele>3228.8</ele>
        <time>2019-01-07T13:08:31Z</time>
      </trkpt>
      <trkpt lat="37.055012225377" lon="-3.370307842926">
        <ele>3226.6</ele>
        <time>2019-01-07T13:08:32Z</time>
      </trkpt>
      <trkpt lat="37.055041478208" lon="-3.370335587015">
        <ele>3224.8</ele>
        <time>2019-01-07T13:08:33Z</time>
      </trkpt>
      <trkpt lat="37.055047680814" lon="-3.370378921438">
        <ele>3223.4</ele>
        <time>2019-01-07T13:08:34Z</time>
      </trkpt>
      <trkpt lat="37.055066120994" lon="-3.370435247806">
        <ele>3222</ele>
        <time>2019-01-07T13:08:35Z</time>
      </trkpt>
      <trkpt lat="37.055098978042" lon="-3.3704877185">
        <ele>3220.4</ele>
        <time>2019-01-07T13:08:36Z</time>
      </trkpt>
      <trkpt lat="37.055139881714" lon="-3.370527448706">
        <ele>3218.4</ele>
        <time>2019-01-07T13:08:37Z</time>
      </trkpt>
      <trkpt lat="37.055171649115" lon="-3.370573465337">
        <ele>3216.2</ele>
        <time>2019-01-07T13:08:38Z</time>
      </trkpt>
      <trkpt lat="37.055164356862" lon="-3.370638425062">
        <ele>3214.2</ele>
        <time>2019-01-07T13:08:39Z</time>
      </trkpt>
      <trkpt lat="37.055159579179" lon="-3.370702462778">
        <ele>3212.6</ele>
        <time>2019-01-07T13:08:40Z</time>
      </trkpt>
      <trkpt lat="37.055169218364" lon="-3.370764488838">
        <ele>3210.8</ele>
        <time>2019-01-07T13:08:41Z</time>
      </trkpt>
      <trkpt lat="37.055161507016" lon="-3.370815869885">
        <ele>3208.4</ele>
        <time>2019-01-07T13:08:42Z</time>
      </trkpt>
      <trkpt lat="37.055137367144" lon="-3.370876135746">
        <ele>3206.2</ele>
        <time>2019-01-07T13:08:43Z</time>
      </trkpt>
      <trkpt lat="37.055128147054" lon="-3.370925840413">
        <ele>3203.8</ele>
        <time>2019-01-07T13:08:44Z</time>
      </trkpt>
      <trkpt lat="37.055135523126" lon="-3.370972779053">
        <ele>3201.6</ele>
        <time>2019-01-07T13:08:45Z</time>
      </trkpt>
      <trkpt lat="37.055118340231" lon="-3.371028937783">
        <ele>3199.2</ele>
        <time>2019-01-07T13:08:46Z</time>
      </trkpt>
      <trkpt lat="37.055093865083" lon="-3.371099513381">
        <ele>3196.8</ele>
        <time>2019-01-07T13:08:47Z</time>
      </trkpt>
      <trkpt lat="37.055113478729" lon="-3.371156677939">
        <ele>3194.4</ele>
        <time>2019-01-07T13:08:48Z</time>
      </trkpt>
      <trkpt lat="37.055138708248" lon="-3.371207556072">
        <ele>3192.2</ele>
        <time>2019-01-07T13:08:49Z</time>
      </trkpt>
      <trkpt lat="37.055122363543" lon="-3.371265055906">
        <ele>3189.8</ele>
        <time>2019-01-07T13:08:50Z</time>
      </trkpt>
      <trkpt lat="37.055081459871" lon="-3.371317694238">
        <ele>3187.4</ele>
        <time>2019-01-07T13:08:51Z</time>
      </trkpt>
      <trkpt lat="37.055051117393" lon="-3.371366476896">
        <ele>3185.4</ele>
        <time>2019-01-07T13:08:52Z</time>
      </trkpt>
      <trkpt lat="37.055057571456" lon="-3.371402770523">
        <ele>3183.4</ele>
        <time>2019-01-07T13:08:53Z</time>
      </trkpt>
      <trkpt lat="37.055082549518" lon="-3.371426658938">
        <ele>3181.4</ele>
        <time>2019-01-07T13:08:54Z</time>
      </trkpt>
      <trkpt lat="37.055112137625" lon="-3.371445266756">
        <ele>3179.8</ele>
        <time>2019-01-07T13:08:55Z</time>
      </trkpt>
      <trkpt lat="37.05513770242" lon="-3.37146756261">
        <ele>3178.4</ele>
        <time>2019-01-07T13:08:56Z</time>
      </trkpt>
      <trkpt lat="37.055169721278" lon="-3.371496312527">
        <ele>3177.4</ele>
        <time>2019-01-07T13:08:57Z</time>
      </trkpt>
      <trkpt lat="37.055207523647" lon="-3.371535372181">
        <ele>3176.2</ele>
        <time>2019-01-07T13:08:58Z</time>
      </trkpt>
      <trkpt lat="37.055242224713" lon="-3.371575353844">
        <ele>3174.8</ele>
        <time>2019-01-07T13:08:59Z</time>
      </trkpt>
      <trkpt lat="37.055255551934" lon="-3.371616006059">
        <ele>3173.2</ele>
        <time>2019-01-07T13:09:00Z</time>
      </trkpt>
      <trkpt lat="37.055244068731" lon="-3.371673002979">
        <ele>3171.6</ele>
        <time>2019-01-07T13:09:01Z</time>
      </trkpt>
      <trkpt lat="37.055232250252" lon="-3.371739471446">
        <ele>3170.2</ele>
        <time>2019-01-07T13:09:02Z</time>
      </trkpt>
      <trkpt lat="37.055239291048" lon="-3.371804766447">
        <ele>3168.4</ele>
        <time>2019-01-07T13:09:03Z</time>
      </trkpt>
      <trkpt lat="37.055263011825" lon="-3.371870145267">
        <ele>3165.8</ele>
        <time>2019-01-07T13:09:04Z</time>
      </trkpt>
      <trkpt lat="37.055258737056" lon="-3.371930411128">
        <ele>3163.4</ele>
        <time>2019-01-07T13:09:05Z</time>
      </trkpt>
      <trkpt lat="37.055223784533" lon="-3.372003417477">
        <ele>3160.8</ele>
        <time>2019-01-07T13:09:06Z</time>
      </trkpt>
      <trkpt lat="37.055201823955" lon="-3.372081452966">
        <ele>3158.6</ele>
        <time>2019-01-07T13:09:07Z</time>
      </trkpt>
      <trkpt lat="37.05522152142" lon="-3.372156219514">
        <ele>3156</ele>
        <time>2019-01-07T13:09:08Z</time>
      </trkpt>
      <trkpt lat="37.055262173635" lon="-3.372222939438">
        <ele>3153.2</ele>
        <time>2019-01-07T13:09:09Z</time>
      </trkpt>
      <trkpt lat="37.055290001543" lon="-3.372284965498">
        <ele>3149.8</ele>
        <time>2019-01-07T13:09:10Z</time>
      </trkpt>
      <trkpt lat="37.05528103291" lon="-3.372349087033">
        <ele>3147</ele>
        <time>2019-01-07T13:09:11Z</time>
      </trkpt>
      <trkpt lat="37.055268040965" lon="-3.372418489165">
        <ele>3144.4</ele>
        <time>2019-01-07T13:09:12Z</time>
      </trkpt>
      <trkpt lat="37.055296036511" lon="-3.372478838845">
        <ele>3142.2</ele>
        <time>2019-01-07T13:09:13Z</time>
      </trkpt>
      <trkpt lat="37.055333419785" lon="-3.372527202408">
        <ele>3139.4</ele>
        <time>2019-01-07T13:09:14Z</time>
      </trkpt>
      <trkpt lat="37.055363678444" lon="-3.372573302858">
        <ele>3136.6</ele>
        <time>2019-01-07T13:09:15Z</time>
      </trkpt>
      <trkpt lat="37.055351859965" lon="-3.372630299778">
        <ele>3134.4</ele>
        <time>2019-01-07T13:09:16Z</time>
      </trkpt>
      <trkpt lat="37.055323110048" lon="-3.37269970191">
        <ele>3132.6</ele>
        <time>2019-01-07T13:09:17Z</time>
      </trkpt>
      <trkpt lat="37.055322523315" lon="-3.372769606956">
        <ele>3130.6</ele>
        <time>2019-01-07T13:09:18Z</time>
      </trkpt>
      <trkpt lat="37.055346160273" lon="-3.372832303568">
        <ele>3128.2</ele>
        <time>2019-01-07T13:09:19Z</time>
      </trkpt>
      <trkpt lat="37.055367617937" lon="-3.372891982696">
        <ele>3125.6</ele>
        <time>2019-01-07T13:09:20Z</time>
      </trkpt>
      <trkpt lat="37.055357643476" lon="-3.372960379">
        <ele>3123.4</ele>
        <time>2019-01-07T13:09:21Z</time>
      </trkpt>
      <trkpt lat="37.055311878302" lon="-3.373013520246">
        <ele>3121.4</ele>
        <time>2019-01-07T13:09:22Z</time>
      </trkpt>
      <trkpt lat="37.055287822249" lon="-3.373063560189">
        <ele>3119.6</ele>
        <time>2019-01-07T13:09:23Z</time>
      </trkpt>
      <trkpt lat="37.05528857662" lon="-3.37311544415">
        <ele>3117.6</ele>
        <time>2019-01-07T13:09:24Z</time>
      </trkpt>
      <trkpt lat="37.055304837506" lon="-3.373168417758">
        <ele>3115.2</ele>
        <time>2019-01-07T13:09:25Z</time>
      </trkpt>
      <trkpt lat="37.055311626845" lon="-3.373220720814">
        <ele>3112.6</ele>
        <time>2019-01-07T13:09:26Z</time>
      </trkpt>
      <trkpt lat="37.05528438567" lon="-3.373267407997">
        <ele>3110.4</ele>
        <time>2019-01-07T13:09:27Z</time>
      </trkpt>
      <trkpt lat="37.055268543879" lon="-3.373316861207">
        <ele>3108.4</ele>
        <time>2019-01-07T13:09:28Z</time>
      </trkpt>
      <trkpt lat="37.055278602159" lon="-3.373378132896">
        <ele>3106.6</ele>
        <time>2019-01-07T13:09:29Z</time>
      </trkpt>
      <trkpt lat="37.055307268257" lon="-3.373431860875">
        <ele>3104.8</ele>
        <time>2019-01-07T13:09:30Z</time>
      </trkpt>
      <trkpt lat="37.055337359278" lon="-3.3734800568">
        <ele>3103</ele>
        <time>2019-01-07T13:09:31Z</time>
      </trkpt>
      <trkpt lat="37.055344902988" lon="-3.373522050119">
        <ele>3101.2</ele>
        <time>2019-01-07T13:09:32Z</time>
      </trkpt>
      <trkpt lat="37.055317158899" lon="-3.373576364831">
        <ele>3099</ele>
        <time>2019-01-07T13:09:33Z</time>
      </trkpt>
      <trkpt lat="37.055257898866" lon="-3.37361249082">
        <ele>3096.8</ele>
        <time>2019-01-07T13:09:34Z</time>
      </trkpt>
      <trkpt lat="37.055204003249" lon="-3.373663033677">
        <ele>3094.6</ele>
        <time>2019-01-07T13:09:35Z</time>
      </trkpt>
      <trkpt lat="37.055165195052" lon="-3.373731262343">
        <ele>3092.6</ele>
        <time>2019-01-07T13:09:36Z</time>
      </trkpt>
      <trkpt lat="37.055157567523" lon="-3.373794545688">
        <ele>3090.4</ele>
        <time>2019-01-07T13:09:37Z</time>
      </trkpt>
      <trkpt lat="37.055155472048" lon="-3.373863444906">
        <ele>3088</ele>
        <time>2019-01-07T13:09:38Z</time>
      </trkpt>
      <trkpt lat="37.055152622202" lon="-3.373953717969">
        <ele>3085.2</ele>
        <time>2019-01-07T13:09:39Z</time>
      </trkpt>
      <trkpt lat="37.055170475649" lon="-3.374042901385">
        <ele>3082.8</ele>
        <time>2019-01-07T13:09:40Z</time>
      </trkpt>
      <trkpt lat="37.055196459539" lon="-3.374130576059">
        <ele>3080.4</ele>
        <time>2019-01-07T13:09:41Z</time>
      </trkpt>
      <trkpt lat="37.05520475762" lon="-3.374209785014">
        <ele>3077.6</ele>
        <time>2019-01-07T13:09:42Z</time>
      </trkpt>
      <trkpt lat="37.055199560842" lon="-3.374299387525">
        <ele>3075</ele>
        <time>2019-01-07T13:09:43Z</time>
      </trkpt>
      <trkpt lat="37.055227807845" lon="-3.37437272915">
        <ele>3072.6</ele>
        <time>2019-01-07T13:09:44Z</time>
      </trkpt>
      <trkpt lat="37.05525923997" lon="-3.374446154594">
        <ele>3069.6</ele>
        <time>2019-01-07T13:09:45Z</time>
      </trkpt>
      <trkpt lat="37.055281200548" lon="-3.374504744075">
        <ele>3066.2</ele>
        <time>2019-01-07T13:09:46Z</time>
      </trkpt>
      <trkpt lat="37.055266280766" lon="-3.374558220597">
        <ele>3063.2</ele>
        <time>2019-01-07T13:09:47Z</time>
      </trkpt>
      <trkpt lat="37.055255300477" lon="-3.374634998801">
        <ele>3061</ele>
        <time>2019-01-07T13:09:48Z</time>
      </trkpt>
      <trkpt lat="37.055265023481" lon="-3.374704903847">
        <ele>3058.8</ele>
        <time>2019-01-07T13:09:49Z</time>
      </trkpt>
      <trkpt lat="37.05528438567" lon="-3.374768941563">
        <ele>3056</ele>
        <time>2019-01-07T13:09:50Z</time>
      </trkpt>
      <trkpt lat="37.055268376241" lon="-3.374842534645">
        <ele>3053</ele>
        <time>2019-01-07T13:09:51Z</time>
      </trkpt>
      <trkpt lat="37.055254462287" lon="-3.374940435237">
        <ele>3050.2</ele>
        <time>2019-01-07T13:09:52Z</time>
      </trkpt>
      <trkpt lat="37.055277763969" lon="-3.375031043576">
        <ele>3047.6</ele>
        <time>2019-01-07T13:09:53Z</time>
      </trkpt>
      <trkpt lat="37.05531288413" lon="-3.375099775156">
        <ele>3044.6</ele>
        <time>2019-01-07T13:09:54Z</time>
      </trkpt>
      <trkpt lat="37.055330737577" lon="-3.375160041017">
        <ele>3041.4</ele>
        <time>2019-01-07T13:09:55Z</time>
      </trkpt>
      <trkpt lat="37.055329815568" lon="-3.375245955492">
        <ele>3038.2</ele>
        <time>2019-01-07T13:09:56Z</time>
      </trkpt>
      <trkpt lat="37.055344316255" lon="-3.375327595198">
        <ele>3035.8</ele>
        <time>2019-01-07T13:09:57Z</time>
      </trkpt>
      <trkpt lat="37.055370970697" lon="-3.375395991502">
        <ele>3033.2</ele>
        <time>2019-01-07T13:09:58Z</time>
      </trkpt>
      <trkpt lat="37.055388069773" lon="-3.375437649545">
        <ele>3030.2</ele>
        <time>2019-01-07T13:09:59Z</time>
      </trkpt>
      <trkpt lat="37.055375580742" lon="-3.375499675605">
        <ele>3027.2</ele>
        <time>2019-01-07T13:10:00Z</time>
      </trkpt>
      <trkpt lat="37.055339454753" lon="-3.37557888456">
        <ele>3024.6</ele>
        <time>2019-01-07T13:10:01Z</time>
      </trkpt>
      <trkpt lat="37.055338448925" lon="-3.375660943361">
        <ele>3022.2</ele>
        <time>2019-01-07T13:10:02Z</time>
      </trkpt>
      <trkpt lat="37.055364516634" lon="-3.375753730994">
        <ele>3020</ele>
        <time>2019-01-07T13:10:03Z</time>
      </trkpt>
      <trkpt lat="37.055379268778" lon="-3.375820534737">
        <ele>3017.4</ele>
        <time>2019-01-07T13:10:04Z</time>
      </trkpt>
      <trkpt lat="37.055371138335" lon="-3.375902677357">
        <ele>3014.6</ele>
        <time>2019-01-07T13:10:05Z</time>
      </trkpt>
      <trkpt lat="37.055389662334" lon="-3.375969062005">
        <ele>3011.6</ele>
        <time>2019-01-07T13:10:06Z</time>
      </trkpt>
      <trkpt lat="37.055425536866" lon="-3.376028573495">
        <ele>3008.6</ele>
        <time>2019-01-07T13:10:07Z</time>
      </trkpt>
      <trkpt lat="37.055451269299" lon="-3.376079535447">
        <ele>3005.4</ele>
        <time>2019-01-07T13:10:08Z</time>
      </trkpt>
      <trkpt lat="37.055448000358" lon="-3.376136700005">
        <ele>3002.6</ele>
        <time>2019-01-07T13:10:09Z</time>
      </trkpt>
      <trkpt lat="37.055422854658" lon="-3.376210293087">
        <ele>3000</ele>
        <time>2019-01-07T13:10:10Z</time>
      </trkpt>
      <trkpt lat="37.055406509953" lon="-3.376284556721">
        <ele>2997.4</ele>
        <time>2019-01-07T13:10:11Z</time>
      </trkpt>
      <trkpt lat="37.055425453047" lon="-3.376346834238">
        <ele>2995.2</ele>
        <time>2019-01-07T13:10:12Z</time>
      </trkpt>
      <trkpt lat="37.055469122746" lon="-3.376406597185">
        <ele>2992.2</ele>
        <time>2019-01-07T13:10:13Z</time>
      </trkpt>
      <trkpt lat="37.055499968138" lon="-3.37648245338">
        <ele>2989.2</ele>
        <time>2019-01-07T13:10:14Z</time>
      </trkpt>
      <trkpt lat="37.055496112464" lon="-3.37656711057">
        <ele>2986.2</ele>
        <time>2019-01-07T13:10:15Z</time>
      </trkpt>
      <trkpt lat="37.055482449967" lon="-3.376669872664">
        <ele>2983.4</ele>
        <time>2019-01-07T13:10:16Z</time>
      </trkpt>
      <trkpt lat="37.0554830367" lon="-3.376773640586">
        <ele>2980.6</ele>
        <time>2019-01-07T13:10:17Z</time>
      </trkpt>
      <trkpt lat="37.055510194056" lon="-3.376864332744">
        <ele>2977.2</ele>
        <time>2019-01-07T13:10:18Z</time>
      </trkpt>
      <trkpt lat="37.055530729711" lon="-3.376960389318">
        <ele>2973.8</ele>
        <time>2019-01-07T13:10:19Z</time>
      </trkpt>
      <trkpt lat="37.055559144352" lon="-3.37704068792">
        <ele>2970.6</ele>
        <time>2019-01-07T13:10:20Z</time>
      </trkpt>
      <trkpt lat="37.055584038595" lon="-3.377119729237">
        <ele>2968</ele>
        <time>2019-01-07T13:10:21Z</time>
      </trkpt>
      <trkpt lat="37.055627792113" lon="-3.377190807749">
        <ele>2965.4</ele>
        <time>2019-01-07T13:10:22Z</time>
      </trkpt>
      <trkpt lat="37.055660397704" lon="-3.37727538112">
        <ele>2962.8</ele>
        <time>2019-01-07T13:10:23Z</time>
      </trkpt>
      <trkpt lat="37.055659475695" lon="-3.377366492373">
        <ele>2960.6</ele>
        <time>2019-01-07T13:10:24Z</time>
      </trkpt>
      <trkpt lat="37.055665259206" lon="-3.377473780693">
        <ele>2958.6</ele>
        <time>2019-01-07T13:10:25Z</time>
      </trkpt>
      <trkpt lat="37.055703313032" lon="-3.377558856978">
        <ele>2956.2</ele>
        <time>2019-01-07T13:10:26Z</time>
      </trkpt>
      <trkpt lat="37.055743881428" lon="-3.377629600214">
        <ele>2952.8</ele>
        <time>2019-01-07T13:10:27Z</time>
      </trkpt>
      <trkpt lat="37.055786629118" lon="-3.377715263232">
        <ele>2949.6</ele>
        <time>2019-01-07T13:10:28Z</time>
      </trkpt>
      <trkpt lat="37.055836417604" lon="-3.377801932078">
        <ele>2946.6</ele>
        <time>2019-01-07T13:10:29Z</time>
      </trkpt>
      <trkpt lat="37.055904478632" lon="-3.377867646174">
        <ele>2944.4</ele>
        <time>2019-01-07T13:10:30Z</time>
      </trkpt>
      <trkpt lat="37.055975724782" lon="-3.37790653819">
        <ele>2941.8</ele>
        <time>2019-01-07T13:10:31Z</time>
      </trkpt>
      <trkpt lat="37.05603875667" lon="-3.377946603672">
        <ele>2938.4</ele>
        <time>2019-01-07T13:10:32Z</time>
      </trkpt>
      <trkpt lat="37.056083935111" lon="-3.378005863705">
        <ele>2935</ele>
        <time>2019-01-07T13:10:33Z</time>
      </trkpt>
      <trkpt lat="37.056084270387" lon="-3.378102255555">
        <ele>2932.4</ele>
        <time>2019-01-07T13:10:34Z</time>
      </trkpt>
      <trkpt lat="37.056111008648" lon="-3.378186326012">
        <ele>2930.2</ele>
        <time>2019-01-07T13:10:35Z</time>
      </trkpt>
      <trkpt lat="37.056146296447" lon="-3.378259583818">
        <ele>2928</ele>
        <time>2019-01-07T13:10:36Z</time>
      </trkpt>
      <trkpt lat="37.056197761313" lon="-3.378309037028">
        <ele>2925</ele>
        <time>2019-01-07T13:10:37Z</time>
      </trkpt>
      <trkpt lat="37.056231456551" lon="-3.378384809404">
        <ele>2922</ele>
        <time>2019-01-07T13:10:38Z</time>
      </trkpt>
      <trkpt lat="37.056267331083" lon="-3.378445578179">
        <ele>2919</ele>
        <time>2019-01-07T13:10:39Z</time>
      </trkpt>
      <trkpt lat="37.056330530609" lon="-3.378473489906">
        <ele>2916.6</ele>
        <time>2019-01-07T13:10:40Z</time>
      </trkpt>
      <trkpt lat="37.056385599692" lon="-3.378516069958">
        <ele>2914.2</ele>
        <time>2019-01-07T13:10:41Z</time>
      </trkpt>
      <trkpt lat="37.056422060957" lon="-3.3786181615">
        <ele>2911.6</ele>
        <time>2019-01-07T13:10:42Z</time>
      </trkpt>
      <trkpt lat="37.056482075361" lon="-3.37870784783">
        <ele>2908.8</ele>
        <time>2019-01-07T13:10:43Z</time>
      </trkpt>
      <trkpt lat="37.056558183013" lon="-3.378773729564">
        <ele>2905.8</ele>
        <time>2019-01-07T13:10:44Z</time>
      </trkpt>
      <trkpt lat="37.056625238213" lon="-3.378832067588">
        <ele>2902.2</ele>
        <time>2019-01-07T13:10:45Z</time>
      </trkpt>
      <trkpt lat="37.05668751573" lon="-3.378945558514">
        <ele>2898.6</ele>
        <time>2019-01-07T13:10:46Z</time>
      </trkpt>
      <trkpt lat="37.056763036649" lon="-3.379107496822">
        <ele>2895.2</ele>
        <time>2019-01-07T13:10:47Z</time>
      </trkpt>
      <trkpt lat="37.056872504263" lon="-3.37922920201">
        <ele>2891.8</ele>
        <time>2019-01-07T13:10:48Z</time>
      </trkpt>
      <trkpt lat="37.057004938283" lon="-3.379312685734">
        <ele>2886.6</ele>
        <time>2019-01-07T13:10:49Z</time>
      </trkpt>
      <trkpt lat="37.057129828593" lon="-3.379419974054">
        <ele>2881</ele>
        <time>2019-01-07T13:10:50Z</time>
      </trkpt>
      <trkpt lat="37.057262430251" lon="-3.379537823568">
        <ele>2875.8</ele>
        <time>2019-01-07T13:10:51Z</time>
      </trkpt>
      <trkpt lat="37.057410957519" lon="-3.379608734442">
        <ele>2872.6</ele>
        <time>2019-01-07T13:10:52Z</time>
      </trkpt>
      <trkpt lat="37.057549510326" lon="-3.379676376375">
        <ele>2868.8</ele>
        <time>2019-01-07T13:10:53Z</time>
      </trkpt>
      <trkpt lat="37.05766735984" lon="-3.379786933636">
        <ele>2864.8</ele>
        <time>2019-01-07T13:10:54Z</time>
      </trkpt>
      <trkpt lat="37.057809097769" lon="-3.379895143965">
        <ele>2860.8</ele>
        <time>2019-01-07T13:10:55Z</time>
      </trkpt>
      <trkpt lat="37.057946225653" lon="-3.379992960738">
        <ele>2858</ele>
        <time>2019-01-07T13:10:56Z</time>
      </trkpt>
      <trkpt lat="37.058079078768" lon="-3.380069236028">
        <ele>2855</ele>
        <time>2019-01-07T13:10:57Z</time>
      </trkpt>
      <trkpt lat="37.058204891087" lon="-3.380149786087">
        <ele>2852</ele>
        <time>2019-01-07T13:10:58Z</time>
      </trkpt>
      <trkpt lat="37.058320142212" lon="-3.38024844105">
        <ele>2849.6</ele>
        <time>2019-01-07T13:10:59Z</time>
      </trkpt>
      <trkpt lat="37.058430196559" lon="-3.380355477913">
        <ele>2847.8</ele>
        <time>2019-01-07T13:11:00Z</time>
      </trkpt>
      <trkpt lat="37.058528600065" lon="-3.38046385588">
        <ele>2846.4</ele>
        <time>2019-01-07T13:11:01Z</time>
      </trkpt>
      <trkpt lat="37.058709900562" lon="-3.380668877154">
        <ele>2844.8</ele>
        <time>2019-01-07T13:11:03Z</time>
      </trkpt>
      <trkpt lat="37.058883070616" lon="-3.380860068293">
        <ele>2843.8</ele>
        <time>2019-01-07T13:11:05Z</time>
      </trkpt>
      <trkpt lat="37.059048445503" lon="-3.381073471467">
        <ele>2843</ele>
        <time>2019-01-07T13:11:07Z</time>
      </trkpt>
      <trkpt lat="37.059128157372" lon="-3.381203893831">
        <ele>2842.6</ele>
        <time>2019-01-07T13:11:08Z</time>
      </trkpt>
      <trkpt lat="37.059201415178" lon="-3.381340183525">
        <ele>2841.8</ele>
        <time>2019-01-07T13:11:09Z</time>
      </trkpt>
      <trkpt lat="37.059259753202" lon="-3.381502540928">
        <ele>2840.4</ele>
        <time>2019-01-07T13:11:10Z</time>
      </trkpt>
      <trkpt lat="37.059323874737" lon="-3.381688367651">
        <ele>2838.4</ele>
        <time>2019-01-07T13:11:11Z</time>
      </trkpt>
      <trkpt lat="37.059382212761" lon="-3.381878636781">
        <ele>2836.2</ele>
        <time>2019-01-07T13:11:12Z</time>
      </trkpt>
      <trkpt lat="37.059439628776" lon="-3.382056752156">
        <ele>2833.2</ele>
        <time>2019-01-07T13:11:13Z</time>
      </trkpt>
      <trkpt lat="37.05948874671" lon="-3.38224417144">
        <ele>2829.8</ele>
        <time>2019-01-07T13:11:14Z</time>
      </trkpt>
      <trkpt lat="37.059520011197" lon="-3.382424298471">
        <ele>2826.2</ele>
        <time>2019-01-07T13:11:15Z</time>
      </trkpt>
      <trkpt lat="37.059549850761" lon="-3.382594283403">
        <ele>2823.2</ele>
        <time>2019-01-07T13:11:16Z</time>
      </trkpt>
      <trkpt lat="37.059572733348" lon="-3.382755634978">
        <ele>2820.8</ele>
        <time>2019-01-07T13:11:17Z</time>
      </trkpt>
      <trkpt lat="37.059593101365" lon="-3.382906844454">
        <ele>2819</ele>
        <time>2019-01-07T13:11:18Z</time>
      </trkpt>
      <trkpt lat="37.059614810486" lon="-3.383049755849">
        <ele>2817.6</ele>
        <time>2019-01-07T13:11:19Z</time>
      </trkpt>
      <trkpt lat="37.059664347515" lon="-3.383310935853">
        <ele>2815.8</ele>
        <time>2019-01-07T13:11:21Z</time>
      </trkpt>
      <trkpt lat="37.059684212618" lon="-3.383567086717">
        <ele>2814.8</ele>
        <time>2019-01-07T13:11:23Z</time>
      </trkpt>
      <trkpt lat="37.059729223421" lon="-3.38366909444">
        <ele>2813.6</ele>
        <time>2019-01-07T13:11:24Z</time>
      </trkpt>
      <trkpt lat="37.059773898948" lon="-3.383765234833">
        <ele>2811.8</ele>
        <time>2019-01-07T13:11:25Z</time>
      </trkpt>
      <trkpt lat="37.059807845643" lon="-3.383856681362">
        <ele>2809.6</ele>
        <time>2019-01-07T13:11:26Z</time>
      </trkpt>
      <trkpt lat="37.059851766799" lon="-3.383932789014">
        <ele>2807.8</ele>
        <time>2019-01-07T13:11:27Z</time>
      </trkpt>
      <trkpt lat="37.059899292172" lon="-3.38400939958">
        <ele>2806</ele>
        <time>2019-01-07T13:11:28Z</time>
      </trkpt>
      <trkpt lat="37.059922761492" lon="-3.384095984607">
        <ele>2804.2</ele>
        <time>2019-01-07T13:11:29Z</time>
      </trkpt>
      <trkpt lat="37.059948493925" lon="-3.384200171624">
        <ele>2802.4</ele>
        <time>2019-01-07T13:11:30Z</time>
      </trkpt>
      <trkpt lat="37.059962407879" lon="-3.384314836016">
        <ele>2800.4</ele>
        <time>2019-01-07T13:11:31Z</time>
      </trkpt>
      <trkpt lat="37.05993885474" lon="-3.384431763521">
        <ele>2798.4</ele>
        <time>2019-01-07T13:11:32Z</time>
      </trkpt>
      <trkpt lat="37.059896777602" lon="-3.384567969396">
        <ele>2796</ele>
        <time>2019-01-07T13:11:33Z</time>
      </trkpt>
      <trkpt lat="37.059863836735" lon="-3.384705767832">
        <ele>2793.6</ele>
        <time>2019-01-07T13:11:34Z</time>
      </trkpt>
      <trkpt lat="37.059825782909" lon="-3.384831328694">
        <ele>2790.8</ele>
        <time>2019-01-07T13:11:35Z</time>
      </trkpt>
      <trkpt lat="37.059750429628" lon="-3.384911208201">
        <ele>2788.2</ele>
        <time>2019-01-07T13:11:36Z</time>
      </trkpt>
      <trkpt lat="37.059657809633" lon="-3.384963511257">
        <ele>2786.2</ele>
        <time>2019-01-07T13:11:37Z</time>
      </trkpt>
      <trkpt lat="37.059568207122" lon="-3.384989578966">
        <ele>2784.6</ele>
        <time>2019-01-07T13:11:38Z</time>
      </trkpt>
      <trkpt lat="37.059497799162" lon="-3.385018245064">
        <ele>2783.4</ele>
        <time>2019-01-07T13:11:39Z</time>
      </trkpt>
      <trkpt lat="37.05944180807" lon="-3.385060070745">
        <ele>2782.2</ele>
        <time>2019-01-07T13:11:40Z</time>
      </trkpt>
      <trkpt lat="37.059396378172" lon="-3.385094604173">
        <ele>2781.2</ele>
        <time>2019-01-07T13:11:41Z</time>
      </trkpt>
      <trkpt lat="37.059358072889" lon="-3.385131652171">
        <ele>2780.2</ele>
        <time>2019-01-07T13:11:42Z</time>
      </trkpt>
      <trkpt lat="37.059315744294" lon="-3.385157468423">
        <ele>2779.6</ele>
        <time>2019-01-07T13:11:43Z</time>
      </trkpt>
      <trkpt lat="37.05923058419" lon="-3.385208178918">
        <ele>2777.8</ele>
        <time>2019-01-07T13:11:45Z</time>
      </trkpt>
      <trkpt lat="37.059183813188" lon="-3.385218404836">
        <ele>2776.6</ele>
        <time>2019-01-07T13:11:46Z</time>
      </trkpt>
      <trkpt lat="37.059138634747" lon="-3.385229971858">
        <ele>2775.6</ele>
        <time>2019-01-07T13:11:47Z</time>
      </trkpt>
      <trkpt lat="37.059042159078" lon="-3.385232486428">
        <ele>2773.8</ele>
        <time>2019-01-07T13:11:49Z</time>
      </trkpt>
      <trkpt lat="37.059023132165" lon="-3.385245562192">
        <ele>2772.6</ele>
        <time>2019-01-07T13:11:50Z</time>
      </trkpt>
      <trkpt lat="37.059018103025" lon="-3.385247992943">
        <ele>2771.2</ele>
        <time>2019-01-07T13:11:51Z</time>
      </trkpt>
      <trkpt lat="37.059020533776" lon="-3.385247154753">
        <ele>2770</ele>
        <time>2019-01-07T13:11:52Z</time>
      </trkpt>
      <trkpt lat="37.059026987839" lon="-3.385245143097">
        <ele>2769.6</ele>
        <time>2019-01-07T13:11:53Z</time>
      </trkpt>
      <trkpt lat="37.059041656164" lon="-3.385289902443">
        <ele>2769</ele>
        <time>2019-01-07T13:11:55Z</time>
      </trkpt>
      <trkpt lat="37.058999411388" lon="-3.385370536321">
        <ele>2768</ele>
        <time>2019-01-07T13:11:57Z</time>
      </trkpt>
      <trkpt lat="37.058967811625" lon="-3.385423342291">
        <ele>2767</ele>
        <time>2019-01-07T13:11:58Z</time>
      </trkpt>
      <trkpt lat="37.058936295681" lon="-3.385481931772">
        <ele>2765.4</ele>
        <time>2019-01-07T13:11:59Z</time>
      </trkpt>
      <trkpt lat="37.058894805276" lon="-3.385534234828">
        <ele>2763.4</ele>
        <time>2019-01-07T13:12:00Z</time>
      </trkpt>
      <trkpt lat="37.058843843324" lon="-3.385558290881">
        <ele>2761.2</ele>
        <time>2019-01-07T13:12:01Z</time>
      </trkpt>
      <trkpt lat="37.05879640177" lon="-3.38558519678">
        <ele>2759.4</ele>
        <time>2019-01-07T13:12:02Z</time>
      </trkpt>
      <trkpt lat="37.058763796179" lon="-3.385620233122">
        <ele>2757.8</ele>
        <time>2019-01-07T13:12:03Z</time>
      </trkpt>
      <trkpt lat="37.058743511981" lon="-3.385671027436">
        <ele>2756.4</ele>
        <time>2019-01-07T13:12:04Z</time>
      </trkpt>
      <trkpt lat="37.058706296345" lon="-3.385721654112">
        <ele>2754.8</ele>
        <time>2019-01-07T13:12:05Z</time>
      </trkpt>
      <trkpt lat="37.058647455407" lon="-3.385742944138">
        <ele>2752.8</ele>
        <time>2019-01-07T13:12:06Z</time>
      </trkpt>
      <trkpt lat="37.05859607436" lon="-3.385773286616">
        <ele>2750.4</ele>
        <time>2019-01-07T13:12:07Z</time>
      </trkpt>
      <trkpt lat="37.05856673771" lon="-3.38582491912">
        <ele>2747.8</ele>
        <time>2019-01-07T13:12:08Z</time>
      </trkpt>
      <trkpt lat="37.058549051901" lon="-3.385879736746">
        <ele>2745.2</ele>
        <time>2019-01-07T13:12:09Z</time>
      </trkpt>
      <trkpt lat="37.05852315183" lon="-3.385927597395">
        <ele>2742.8</ele>
        <time>2019-01-07T13:12:10Z</time>
      </trkpt>
      <trkpt lat="37.058480152683" lon="-3.385949557973">
        <ele>2740.4</ele>
        <time>2019-01-07T13:12:11Z</time>
      </trkpt>
      <trkpt lat="37.05842005446" lon="-3.385951066715">
        <ele>2738.2</ele>
        <time>2019-01-07T13:12:12Z</time>
      </trkpt>
      <trkpt lat="37.058371355621" lon="-3.385966740868">
        <ele>2735.8</ele>
        <time>2019-01-07T13:12:13Z</time>
      </trkpt>
      <trkpt lat="37.058353334536" lon="-3.386014936793">
        <ele>2733.8</ele>
        <time>2019-01-07T13:12:14Z</time>
      </trkpt>
      <trkpt lat="37.058347467206" lon="-3.38606631784">
        <ele>2731.8</ele>
        <time>2019-01-07T13:12:15Z</time>
      </trkpt>
      <trkpt lat="37.058327266827" lon="-3.386113843213">
        <ele>2729.4</ele>
        <time>2019-01-07T13:12:16Z</time>
      </trkpt>
      <trkpt lat="37.058283680947" lon="-3.386145526795">
        <ele>2727</ele>
        <time>2019-01-07T13:12:17Z</time>
      </trkpt>
      <trkpt lat="37.058232132262" lon="-3.386161620043">
        <ele>2724.8</ele>
        <time>2019-01-07T13:12:18Z</time>
      </trkpt>
      <trkpt lat="37.058199778128" lon="-3.386203529543">
        <ele>2722.8</ele>
        <time>2019-01-07T13:12:19Z</time>
      </trkpt>
      <trkpt lat="37.058182762871" lon="-3.38625071964">
        <ele>2720.6</ele>
        <time>2019-01-07T13:12:20Z</time>
      </trkpt>
      <trkpt lat="37.058162311035" lon="-3.386303441791">
        <ele>2718.4</ele>
        <time>2019-01-07T13:12:21Z</time>
      </trkpt>
      <trkpt lat="37.058145463416" lon="-3.386370077896">
        <ele>2716.2</ele>
        <time>2019-01-07T13:12:22Z</time>
      </trkpt>
      <trkpt lat="37.058146720701" lon="-3.386433109784">
        <ele>2713.8</ele>
        <time>2019-01-07T13:12:23Z</time>
      </trkpt>
      <trkpt lat="37.058144960502" lon="-3.386484909926">
        <ele>2711</ele>
        <time>2019-01-07T13:12:24Z</time>
      </trkpt>
      <trkpt lat="37.058132471471" lon="-3.386542325941">
        <ele>2708.2</ele>
        <time>2019-01-07T13:12:25Z</time>
      </trkpt>
      <trkpt lat="37.058120233897" lon="-3.38661281772">
        <ele>2705.6</ele>
        <time>2019-01-07T13:12:26Z</time>
      </trkpt>
      <trkpt lat="37.058129118711" lon="-3.386681130205">
        <ele>2703.2</ele>
        <time>2019-01-07T13:12:27Z</time>
      </trkpt>
      <trkpt lat="37.058125095399" lon="-3.386731589243">
        <ele>2700.4</ele>
        <time>2019-01-07T13:12:28Z</time>
      </trkpt>
      <trkpt lat="37.058114282748" lon="-3.386806523429">
        <ele>2698</ele>
        <time>2019-01-07T13:12:29Z</time>
      </trkpt>
      <trkpt lat="37.058113528377" lon="-3.386898891967">
        <ele>2695.4</ele>
        <time>2019-01-07T13:12:30Z</time>
      </trkpt>
      <trkpt lat="37.05812082063" lon="-3.386999474767">
        <ele>2692.6</ele>
        <time>2019-01-07T13:12:31Z</time>
      </trkpt>
      <trkpt lat="37.058094501464" lon="-3.387107601277">
        <ele>2689.2</ele>
        <time>2019-01-07T13:12:32Z</time>
      </trkpt>
      <trkpt lat="37.058036833992" lon="-3.387236347261">
        <ele>2685.6</ele>
        <time>2019-01-07T13:12:33Z</time>
      </trkpt>
      <trkpt lat="37.057966006937" lon="-3.387383030511">
        <ele>2682</ele>
        <time>2019-01-07T13:12:34Z</time>
      </trkpt>
      <trkpt lat="37.05788780381" lon="-3.38754069405">
        <ele>2678</ele>
        <time>2019-01-07T13:12:35Z</time>
      </trkpt>
      <trkpt lat="37.057808762493" lon="-3.387703051453">
        <ele>2674.2</ele>
        <time>2019-01-07T13:12:36Z</time>
      </trkpt>
      <trkpt lat="37.057759728378" lon="-3.387853087463">
        <ele>2671.4</ele>
        <time>2019-01-07T13:12:37Z</time>
      </trkpt>
      <trkpt lat="37.057727206606" lon="-3.387989796252">
        <ele>2669.6</ele>
        <time>2019-01-07T13:12:38Z</time>
      </trkpt>
      <trkpt lat="37.057717818878" lon="-3.388206133091">
        <ele>2668.4</ele>
        <time>2019-01-07T13:12:40Z</time>
      </trkpt>
      <trkpt lat="37.057786466639" lon="-3.388718267181">
        <ele>2667.6</ele>
        <time>2019-01-07T13:12:45Z</time>
      </trkpt>
      <trkpt lat="37.057819407506" lon="-3.388838547446">
        <ele>2667</ele>
        <time>2019-01-07T13:12:46Z</time>
      </trkpt>
      <trkpt lat="37.057868776897" lon="-3.388940806626">
        <ele>2666.2</ele>
        <time>2019-01-07T13:12:47Z</time>
      </trkpt>
      <trkpt lat="37.05791043494" lon="-3.389041221788">
        <ele>2664.8</ele>
        <time>2019-01-07T13:12:48Z</time>
      </trkpt>
      <trkpt lat="37.057929378034" lon="-3.389154461257">
        <ele>2663.4</ele>
        <time>2019-01-07T13:12:49Z</time>
      </trkpt>
      <trkpt lat="37.057949913689" lon="-3.389277256092">
        <ele>2662</ele>
        <time>2019-01-07T13:12:50Z</time>
      </trkpt>
      <trkpt lat="37.057995259768" lon="-3.389387729534">
        <ele>2660.8</ele>
        <time>2019-01-07T13:12:51Z</time>
      </trkpt>
      <trkpt lat="37.058052675783" lon="-3.389484875755">
        <ele>2658.8</ele>
        <time>2019-01-07T13:12:52Z</time>
      </trkpt>
      <trkpt lat="37.058103051002" lon="-3.389591661161">
        <ele>2656.4</ele>
        <time>2019-01-07T13:12:53Z</time>
      </trkpt>
      <trkpt lat="37.058110343255" lon="-3.389726106837">
        <ele>2654</ele>
        <time>2019-01-07T13:12:54Z</time>
      </trkpt>
      <trkpt lat="37.058125682132" lon="-3.389862731807">
        <ele>2652.2</ele>
        <time>2019-01-07T13:12:55Z</time>
      </trkpt>
      <trkpt lat="37.058160886112" lon="-3.389994830551">
        <ele>2650</ele>
        <time>2019-01-07T13:12:56Z</time>
      </trkpt>
      <trkpt lat="37.058186450907" lon="-3.390138077222">
        <ele>2647.2</ele>
        <time>2019-01-07T13:12:57Z</time>
      </trkpt>
      <trkpt lat="37.058204052897" lon="-3.390283503187">
        <ele>2644</ele>
        <time>2019-01-07T13:12:58Z</time>
      </trkpt>
      <trkpt lat="37.058223834181" lon="-3.390449045712">
        <ele>2641.2</ele>
        <time>2019-01-07T13:12:59Z</time>
      </trkpt>
      <trkpt lat="37.058239927429" lon="-3.390615342608">
        <ele>2638.2</ele>
        <time>2019-01-07T13:13:00Z</time>
      </trkpt>
      <trkpt lat="37.05824738732" lon="-3.390799492951">
        <ele>2634.8</ele>
        <time>2019-01-07T13:13:01Z</time>
      </trkpt>
      <trkpt lat="37.0582658275" lon="-3.390981464">
        <ele>2631.4</ele>
        <time>2019-01-07T13:13:02Z</time>
      </trkpt>
      <trkpt lat="37.058310503027" lon="-3.391167877456">
        <ele>2627</ele>
        <time>2019-01-07T13:13:03Z</time>
      </trkpt>
      <trkpt lat="37.058360710608" lon="-3.391354793826">
        <ele>2622</ele>
        <time>2019-01-07T13:13:04Z</time>
      </trkpt>
      <trkpt lat="37.058396082226" lon="-3.391555791788">
        <ele>2617</ele>
        <time>2019-01-07T13:13:05Z</time>
      </trkpt>
      <trkpt lat="37.058398848253" lon="-3.39176433346">
        <ele>2613</ele>
        <time>2019-01-07T13:13:06Z</time>
      </trkpt>
      <trkpt lat="37.058380575711" lon="-3.391978407186">
        <ele>2609.8</ele>
        <time>2019-01-07T13:13:07Z</time>
      </trkpt>
      <trkpt lat="37.058352244889" lon="-3.392186697401">
        <ele>2606.4</ele>
        <time>2019-01-07T13:13:08Z</time>
      </trkpt>
      <trkpt lat="37.058349981776" lon="-3.392395322892">
        <ele>2603.2</ele>
        <time>2019-01-07T13:13:09Z</time>
      </trkpt>
      <trkpt lat="37.058374959838" lon="-3.392580311425">
        <ele>2599.8</ele>
        <time>2019-01-07T13:13:10Z</time>
      </trkpt>
      <trkpt lat="37.058408152162" lon="-3.392741411543">
        <ele>2596.8</ele>
        <time>2019-01-07T13:13:11Z</time>
      </trkpt>
      <trkpt lat="37.058438829916" lon="-3.392892201924">
        <ele>2594.4</ele>
        <time>2019-01-07T13:13:12Z</time>
      </trkpt>
      <trkpt lat="37.058488115488" lon="-3.393011057266">
        <ele>2592.8</ele>
        <time>2019-01-07T13:13:13Z</time>
      </trkpt>
      <trkpt lat="37.05853823925" lon="-3.393104263994">
        <ele>2591.6</ele>
        <time>2019-01-07T13:13:14Z</time>
      </trkpt>
      <trkpt lat="37.058566067158" lon="-3.393186406614">
        <ele>2590.4</ele>
        <time>2019-01-07T13:13:15Z</time>
      </trkpt>
      <trkpt lat="37.058565312787" lon="-3.393269219786">
        <ele>2589.2</ele>
        <time>2019-01-07T13:13:16Z</time>
      </trkpt>
      <trkpt lat="37.058569755194" lon="-3.39334432161">
        <ele>2588.4</ele>
        <time>2019-01-07T13:13:17Z</time>
      </trkpt>
      <trkpt lat="37.058597834559" lon="-3.393403581643">
        <ele>2588</ele>
        <time>2019-01-07T13:13:18Z</time>
      </trkpt>
      <trkpt lat="37.05863044015" lon="-3.393453202491">
        <ele>2587.6</ele>
        <time>2019-01-07T13:13:19Z</time>
      </trkpt>
      <trkpt lat="37.058700596653" lon="-3.393544062287">
        <ele>2586.8</ele>
        <time>2019-01-07T13:13:21Z</time>
      </trkpt>
      <trkpt lat="37.058730687674" lon="-3.393582451389">
        <ele>2586.4</ele>
        <time>2019-01-07T13:13:22Z</time>
      </trkpt>
      <trkpt lat="37.058793971019" lon="-3.393663588181">
        <ele>2586.6</ele>
        <time>2019-01-07T13:13:25Z</time>
      </trkpt>
      <trkpt lat="37.058806208593" lon="-3.393746066077">
        <ele>2587.2</ele>
        <time>2019-01-07T13:13:29Z</time>
      </trkpt>
      <trkpt lat="37.058822720936" lon="-3.393807253947">
        <ele>2587.6</ele>
        <time>2019-01-07T13:13:32Z</time>
      </trkpt>
      <trkpt lat="37.058840406745" lon="-3.393828124878">
        <ele>2587.8</ele>
        <time>2019-01-07T13:13:34Z</time>
      </trkpt>
      <trkpt lat="37.058860355667" lon="-3.393841535918">
        <ele>2588</ele>
        <time>2019-01-07T13:13:36Z</time>
      </trkpt>
      <trkpt lat="37.058863205513" lon="-3.393843715212">
        <ele>2587.8</ele>
        <time>2019-01-07T13:13:38Z</time>
      </trkpt>
      <trkpt lat="37.058914670379" lon="-3.39375252014">
        <ele>2586.6</ele>
        <time>2019-01-07T13:13:56Z</time>
      </trkpt>
      <trkpt lat="37.058947024513" lon="-3.39371647797">
        <ele>2586.6</ele>
        <time>2019-01-07T13:13:58Z</time>
      </trkpt>
      <trkpt lat="37.059022126337" lon="-3.393624696165">
        <ele>2587.8</ele>
        <time>2019-01-07T13:14:03Z</time>
      </trkpt>
      <trkpt lat="37.059071663366" lon="-3.393561077544">
        <ele>2589</ele>
        <time>2019-01-07T13:14:07Z</time>
      </trkpt>
      <trkpt lat="37.059107789355" lon="-3.393497039828">
        <ele>2590.4</ele>
        <time>2019-01-07T13:14:11Z</time>
      </trkpt>
      <trkpt lat="37.059136455453" lon="-3.393433337388">
        <ele>2591.6</ele>
        <time>2019-01-07T13:14:15Z</time>
      </trkpt>
      <trkpt lat="37.059159505678" lon="-3.393393607182">
        <ele>2592.6</ele>
        <time>2019-01-07T13:14:18Z</time>
      </trkpt>
      <trkpt lat="37.059184819016" lon="-3.393352032958">
        <ele>2593.6</ele>
        <time>2019-01-07T13:14:21Z</time>
      </trkpt>
      <trkpt lat="37.059214407123" lon="-3.393318170082">
        <ele>2594.6</ele>
        <time>2019-01-07T13:14:24Z</time>
      </trkpt>
      <trkpt lat="37.059266291084" lon="-3.393223957526">
        <ele>2595.4</ele>
        <time>2019-01-07T13:14:30Z</time>
      </trkpt>
      <trkpt lat="37.059324629108" lon="-3.393133600644">
        <ele>2595.4</ele>
        <time>2019-01-07T13:14:36Z</time>
      </trkpt>
      <trkpt lat="37.059381542209" lon="-3.393039891002">
        <ele>2595.4</ele>
        <time>2019-01-07T13:14:42Z</time>
      </trkpt>
      <trkpt lat="37.0594309116" lon="-3.392946013722">
        <ele>2595.6</ele>
        <time>2019-01-07T13:14:48Z</time>
      </trkpt>
      <trkpt lat="37.059456476395" lon="-3.392902511661">
        <ele>2595.8</ele>
        <time>2019-01-07T13:14:51Z</time>
      </trkpt>
      <trkpt lat="37.059505426691" lon="-3.392813579702">
        <ele>2596.2</ele>
        <time>2019-01-07T13:14:57Z</time>
      </trkpt>
      <trkpt lat="37.065537796302" lon="-3.392344947673">
        <ele>2842.6</ele>
        <time>2019-01-07T13:23:22Z</time>
      </trkpt>
      <trkpt lat="37.065593116842" lon="-3.39232927352">
        <ele>2841.6</ele>
        <time>2019-01-07T13:23:24Z</time>
      </trkpt>
      <trkpt lat="37.065671655245" lon="-3.392322819457">
        <ele>2840.4</ele>
        <time>2019-01-07T13:23:27Z</time>
      </trkpt>
      <trkpt lat="37.065698980239" lon="-3.392312844996">
        <ele>2840.2</ele>
        <time>2019-01-07T13:23:29Z</time>
      </trkpt>
      <trkpt lat="37.065755725702" lon="-3.392124503703">
        <ele>2838.6</ele>
        <time>2019-01-07T13:23:58Z</time>
      </trkpt>
      <trkpt lat="37.065765700163" lon="-3.392072535923">
        <ele>2837.4</ele>
        <time>2019-01-07T13:24:00Z</time>
      </trkpt>
      <trkpt lat="37.065772573321" lon="-3.392017215383">
        <ele>2835.6</ele>
        <time>2019-01-07T13:24:02Z</time>
      </trkpt>
      <trkpt lat="37.065776931909" lon="-3.391980083566">
        <ele>2834.4</ele>
        <time>2019-01-07T13:24:03Z</time>
      </trkpt>
      <trkpt lat="37.065788331293" lon="-3.391959380273">
        <ele>2833.2</ele>
        <time>2019-01-07T13:24:04Z</time>
      </trkpt>
      <trkpt lat="37.065816913572" lon="-3.39194202974">
        <ele>2832</ele>
        <time>2019-01-07T13:24:05Z</time>
      </trkpt>
      <trkpt lat="37.065844154747" lon="-3.391917554592">
        <ele>2830.8</ele>
        <time>2019-01-07T13:24:06Z</time>
      </trkpt>
      <trkpt lat="37.065854045389" lon="-3.391878914033">
        <ele>2829.4</ele>
        <time>2019-01-07T13:24:07Z</time>
      </trkpt>
      <trkpt lat="37.065857984882" lon="-3.391833400316">
        <ele>2827.4</ele>
        <time>2019-01-07T13:24:08Z</time>
      </trkpt>
      <trkpt lat="37.065872150293" lon="-3.391799453621">
        <ele>2825.4</ele>
        <time>2019-01-07T13:24:09Z</time>
      </trkpt>
      <trkpt lat="37.065904672065" lon="-3.391786545495">
        <ele>2823.4</ele>
        <time>2019-01-07T13:24:10Z</time>
      </trkpt>
      <trkpt lat="37.065962590994" lon="-3.391776151939">
        <ele>2821.8</ele>
        <time>2019-01-07T13:24:11Z</time>
      </trkpt>
      <trkpt lat="37.066002740295" lon="-3.391743294891">
        <ele>2820</ele>
        <time>2019-01-07T13:24:12Z</time>
      </trkpt>
      <trkpt lat="37.066037776637" lon="-3.391715802259">
        <ele>2818</ele>
        <time>2019-01-07T13:24:13Z</time>
      </trkpt>
      <trkpt lat="37.066093516272" lon="-3.391695182785">
        <ele>2815.8</ele>
        <time>2019-01-07T13:24:14Z</time>
      </trkpt>
      <trkpt lat="37.066139281446" lon="-3.391657715692">
        <ele>2813.6</ele>
        <time>2019-01-07T13:24:15Z</time>
      </trkpt>
      <trkpt lat="37.066175155978" lon="-3.391615806192">
        <ele>2811.4</ele>
        <time>2019-01-07T13:24:16Z</time>
      </trkpt>
      <trkpt lat="37.066220082962" lon="-3.391583032963">
        <ele>2809.2</ele>
        <time>2019-01-07T13:24:17Z</time>
      </trkpt>
      <trkpt lat="37.066272134561" lon="-3.391540955825">
        <ele>2806.8</ele>
        <time>2019-01-07T13:24:18Z</time>
      </trkpt>
      <trkpt lat="37.066320749581" lon="-3.391492843719">
        <ele>2804.4</ele>
        <time>2019-01-07T13:24:19Z</time>
      </trkpt>
      <trkpt lat="37.066343129254" lon="-3.391441462672">
        <ele>2801.6</ele>
        <time>2019-01-07T13:24:20Z</time>
      </trkpt>
      <trkpt lat="37.066360563606" lon="-3.391400475181">
        <ele>2798.8</ele>
        <time>2019-01-07T13:24:21Z</time>
      </trkpt>
      <trkpt lat="37.066403562753" lon="-3.391357224577">
        <ele>2796.2</ele>
        <time>2019-01-07T13:24:22Z</time>
      </trkpt>
      <trkpt lat="37.0664465619" lon="-3.391305759711">
        <ele>2794</ele>
        <time>2019-01-07T13:24:23Z</time>
      </trkpt>
      <trkpt lat="37.066484867183" lon="-3.391246834954">
        <ele>2791.6</ele>
        <time>2019-01-07T13:24:24Z</time>
      </trkpt>
      <trkpt lat="37.066541612646" lon="-3.391187239645">
        <ele>2789</ele>
        <time>2019-01-07T13:24:25Z</time>
      </trkpt>
      <trkpt lat="37.066619899592" lon="-3.39112647087">
        <ele>2786</ele>
        <time>2019-01-07T13:24:26Z</time>
      </trkpt>
      <trkpt lat="37.066672118829" lon="-3.391036113988">
        <ele>2782.6</ele>
        <time>2019-01-07T13:24:27Z</time>
      </trkpt>
      <trkpt lat="37.066716375261" lon="-3.390950031875">
        <ele>2778.2</ele>
        <time>2019-01-07T13:24:28Z</time>
      </trkpt>
      <trkpt lat="37.066792399094" lon="-3.39089177767">
        <ele>2772.8</ele>
        <time>2019-01-07T13:24:29Z</time>
      </trkpt>
      <trkpt lat="37.066882755976" lon="-3.390831176533">
        <ele>2770.2</ele>
        <time>2019-01-07T13:24:30Z</time>
      </trkpt>
      <trkpt lat="37.066970849745" lon="-3.390751297026">
        <ele>2764.8</ele>
        <time>2019-01-07T13:24:31Z</time>
      </trkpt>
      <trkpt lat="37.067059614066" lon="-3.390684828559">
        <ele>2759.6</ele>
        <time>2019-01-07T13:24:32Z</time>
      </trkpt>
      <trkpt lat="37.067146199093" lon="-3.390619198282">
        <ele>2755</ele>
        <time>2019-01-07T13:24:33Z</time>
      </trkpt>
      <trkpt lat="37.067238399993" lon="-3.390542839173">
        <ele>2751.6</ele>
        <time>2019-01-07T13:24:34Z</time>
      </trkpt>
      <trkpt lat="37.067334708024" lon="-3.390499756207">
        <ele>2747.6</ele>
        <time>2019-01-07T13:24:35Z</time>
      </trkpt>
      <trkpt lat="37.067447025484" lon="-3.390501348768">
        <ele>2743.6</ele>
        <time>2019-01-07T13:24:36Z</time>
      </trkpt>
      <trkpt lat="37.067564791179" lon="-3.390508473383">
        <ele>2739.6</ele>
        <time>2019-01-07T13:24:37Z</time>
      </trkpt>
      <trkpt lat="37.067642407573" lon="-3.390483243864">
        <ele>2736</ele>
        <time>2019-01-07T13:24:38Z</time>
      </trkpt>
      <trkpt lat="37.067716922664" lon="-3.390439238889">
        <ele>2733</ele>
        <time>2019-01-07T13:24:39Z</time>
      </trkpt>
      <trkpt lat="37.067783894045" lon="-3.390404537823">
        <ele>2730.8</ele>
        <time>2019-01-07T13:24:40Z</time>
      </trkpt>
      <trkpt lat="37.067837370567" lon="-3.390364891436">
        <ele>2729.4</ele>
        <time>2019-01-07T13:24:41Z</time>
      </trkpt>
      <trkpt lat="37.067880118257" lon="-3.390309487077">
        <ele>2728.4</ele>
        <time>2019-01-07T13:24:42Z</time>
      </trkpt>
      <trkpt lat="37.067898726075" lon="-3.390238408565">
        <ele>2727.4</ele>
        <time>2019-01-07T13:24:43Z</time>
      </trkpt>
      <trkpt lat="37.067965948913" lon="-3.390109075848">
        <ele>2725.2</ele>
        <time>2019-01-07T13:24:45Z</time>
      </trkpt>
      <trkpt lat="37.068033171751" lon="-3.390074793877">
        <ele>2724</ele>
        <time>2019-01-07T13:24:46Z</time>
      </trkpt>
      <trkpt lat="37.068122690443" lon="-3.390033974024">
        <ele>2722.4</ele>
        <time>2019-01-07T13:24:47Z</time>
      </trkpt>
      <trkpt lat="37.068205252158" lon="-3.389969098118">
        <ele>2720.8</ele>
        <time>2019-01-07T13:24:48Z</time>
      </trkpt>
      <trkpt lat="37.06828555076" lon="-3.389893912475">
        <ele>2718.4</ele>
        <time>2019-01-07T13:24:49Z</time>
      </trkpt>
      <trkpt lat="37.068381439696" lon="-3.389835490632">
        <ele>2716</ele>
        <time>2019-01-07T13:24:50Z</time>
      </trkpt>
      <trkpt lat="37.068454446045" lon="-3.389760304989">
        <ele>2713.6</ele>
        <time>2019-01-07T13:24:51Z</time>
      </trkpt>
      <trkpt lat="37.068530637516" lon="-3.389690567581">
        <ele>2711.4</ele>
        <time>2019-01-07T13:24:52Z</time>
      </trkpt>
      <trkpt lat="37.068620407665" lon="-3.389640611457">
        <ele>2709</ele>
        <time>2019-01-07T13:24:53Z</time>
      </trkpt>
      <trkpt lat="37.068722163931" lon="-3.389592331713">
        <ele>2706.6</ele>
        <time>2019-01-07T13:24:54Z</time>
      </trkpt>
      <trkpt lat="37.068832972649" lon="-3.389540196295">
        <ele>2704.4</ele>
        <time>2019-01-07T13:24:55Z</time>
      </trkpt>
      <trkpt lat="37.068953672009" lon="-3.389488731429">
        <ele>2702.4</ele>
        <time>2019-01-07T13:24:56Z</time>
      </trkpt>
      <trkpt lat="37.069069090772" lon="-3.389433662346">
        <ele>2699.8</ele>
        <time>2019-01-07T13:24:57Z</time>
      </trkpt>
      <trkpt lat="37.069191298874" lon="-3.389381694566">
        <ele>2697.2</ele>
        <time>2019-01-07T13:24:58Z</time>
      </trkpt>
      <trkpt lat="37.069310908587" lon="-3.389372390657">
        <ele>2694.4</ele>
        <time>2019-01-07T13:24:59Z</time>
      </trkpt>
      <trkpt lat="37.069432110861" lon="-3.389390411742">
        <ele>2691.8</ele>
        <time>2019-01-07T13:25:00Z</time>
      </trkpt>
      <trkpt lat="37.069547361986" lon="-3.389400972936">
        <ele>2690</ele>
        <time>2019-01-07T13:25:01Z</time>
      </trkpt>
      <trkpt lat="37.069659511808" lon="-3.389394854149">
        <ele>2688.4</ele>
        <time>2019-01-07T13:25:02Z</time>
      </trkpt>
      <trkpt lat="37.069761770988" lon="-3.389381862204">
        <ele>2686.8</ele>
        <time>2019-01-07T13:25:03Z</time>
      </trkpt>
      <trkpt lat="37.069854726259" lon="-3.389380604919">
        <ele>2685.2</ele>
        <time>2019-01-07T13:25:04Z</time>
      </trkpt>
      <trkpt lat="37.069941227467" lon="-3.389377755073">
        <ele>2684</ele>
        <time>2019-01-07T13:25:05Z</time>
      </trkpt>
      <trkpt lat="37.070024292096" lon="-3.389353531382">
        <ele>2683</ele>
        <time>2019-01-07T13:25:06Z</time>
      </trkpt>
      <trkpt lat="37.070166365301" lon="-3.389310616054">
        <ele>2681.4</ele>
        <time>2019-01-07T13:25:08Z</time>
      </trkpt>
      <trkpt lat="37.070222943126" lon="-3.389287565829">
        <ele>2680.8</ele>
        <time>2019-01-07T13:25:09Z</time>
      </trkpt>
      <trkpt lat="37.070284382453" lon="-3.389259067369">
        <ele>2680</ele>
        <time>2019-01-07T13:25:10Z</time>
      </trkpt>
      <trkpt lat="37.070346995246" lon="-3.389240040456">
        <ele>2679.4</ele>
        <time>2019-01-07T13:25:11Z</time>
      </trkpt>
      <trkpt lat="37.070413212256" lon="-3.389240794827">
        <ele>2678.6</ele>
        <time>2019-01-07T13:25:12Z</time>
      </trkpt>
      <trkpt lat="37.070474232488" lon="-3.389247584166">
        <ele>2678</ele>
        <time>2019-01-07T13:25:13Z</time>
      </trkpt>
      <trkpt lat="37.07053106177" lon="-3.38923383785">
        <ele>2677.4</ele>
        <time>2019-01-07T13:25:14Z</time>
      </trkpt>
      <trkpt lat="37.070583783921" lon="-3.38921875043">
        <ele>2677</ele>
        <time>2019-01-07T13:25:15Z</time>
      </trkpt>
      <trkpt lat="37.070635667882" lon="-3.389211039082">
        <ele>2676.4</ele>
        <time>2019-01-07T13:25:16Z</time>
      </trkpt>
      <trkpt lat="37.070687719481" lon="-3.389198047137">
        <ele>2675.8</ele>
        <time>2019-01-07T13:25:17Z</time>
      </trkpt>
      <trkpt lat="37.070733652293" lon="-3.389174661636">
        <ele>2675.2</ele>
        <time>2019-01-07T13:25:18Z</time>
      </trkpt>
      <trkpt lat="37.070779417467" lon="-3.389147085185">
        <ele>2674.6</ele>
        <time>2019-01-07T13:25:19Z</time>
      </trkpt>
      <trkpt lat="37.070858626422" lon="-3.38910810935">
        <ele>2674.2</ele>
        <time>2019-01-07T13:25:21Z</time>
      </trkpt>
      <trkpt lat="37.070915371885" lon="-3.38909302193">
        <ele>2673.8</ele>
        <time>2019-01-07T13:25:23Z</time>
      </trkpt>
      <trkpt lat="37.071023582214" lon="-3.389004676704">
        <ele>2673</ele>
        <time>2019-01-07T13:25:27Z</time>
      </trkpt>
      <trkpt lat="37.071100444237" lon="-3.388891437235">
        <ele>2671.8</ele>
        <time>2019-01-07T13:25:31Z</time>
      </trkpt>
      <trkpt lat="37.071200021209" lon="-3.388786495847">
        <ele>2670.8</ele>
        <time>2019-01-07T13:25:36Z</time>
      </trkpt>
      <trkpt lat="37.071275290671" lon="-3.388654732379">
        <ele>2670.2</ele>
        <time>2019-01-07T13:25:42Z</time>
      </trkpt>
      <trkpt lat="37.071294066127" lon="-3.388626317738">
        <ele>2669.8</ele>
        <time>2019-01-07T13:25:44Z</time>
      </trkpt>
      <trkpt lat="37.071299262905" lon="-3.388587006627">
        <ele>2669.4</ele>
        <time>2019-01-07T13:25:46Z</time>
      </trkpt>
      <trkpt lat="37.071212174964" lon="-3.388427247613">
        <ele>2669.2</ele>
        <time>2019-01-07T13:25:52Z</time>
      </trkpt>
      <trkpt lat="37.071151154732" lon="-3.388247120582">
        <ele>2668.6</ele>
        <time>2019-01-07T13:25:56Z</time>
      </trkpt>
      <trkpt lat="37.071119890245" lon="-3.387991724089">
        <ele>2667.6</ele>
        <time>2019-01-07T13:26:00Z</time>
      </trkpt>
      <trkpt lat="37.071121901901" lon="-3.387936152092">
        <ele>2667.2</ele>
        <time>2019-01-07T13:26:01Z</time>
      </trkpt>
      <trkpt lat="37.071129948525" lon="-3.387878149344">
        <ele>2666.8</ele>
        <time>2019-01-07T13:26:02Z</time>
      </trkpt>
      <trkpt lat="37.071168002351" lon="-3.387769017006">
        <ele>2666</ele>
        <time>2019-01-07T13:26:04Z</time>
      </trkpt>
      <trkpt lat="37.071228268212" lon="-3.387673798622">
        <ele>2665.4</ele>
        <time>2019-01-07T13:26:06Z</time>
      </trkpt>
      <trkpt lat="37.071262047269" lon="-3.387633816959">
        <ele>2665</ele>
        <time>2019-01-07T13:26:07Z</time>
      </trkpt>
      <trkpt lat="37.071298257077" lon="-3.387599199712">
        <ele>2664.8</ele>
        <time>2019-01-07T13:26:08Z</time>
      </trkpt>
      <trkpt lat="37.071381237887" lon="-3.387562570809">
        <ele>2664.4</ele>
        <time>2019-01-07T13:26:10Z</time>
      </trkpt>
      <trkpt lat="37.071485676361" lon="-3.387526277182">
        <ele>2664</ele>
        <time>2019-01-07T13:26:12Z</time>
      </trkpt>
      <trkpt lat="37.071607046273" lon="-3.387463832027">
        <ele>2662.8</ele>
        <time>2019-01-07T13:26:14Z</time>
      </trkpt>
      <trkpt lat="37.071741240492" lon="-3.387414797912">
        <ele>2661.4</ele>
        <time>2019-01-07T13:26:16Z</time>
      </trkpt>
      <trkpt lat="37.071865627888" lon="-3.387453438471">
        <ele>2660</ele>
        <time>2019-01-07T13:26:18Z</time>
      </trkpt>
      <trkpt lat="37.071976855701" lon="-3.387467939158">
        <ele>2658.4</ele>
        <time>2019-01-07T13:26:20Z</time>
      </trkpt>
      <trkpt lat="37.072071906447" lon="-3.387475147592">
        <ele>2656.4</ele>
        <time>2019-01-07T13:26:22Z</time>
      </trkpt>
      <trkpt lat="37.072141979131" lon="-3.387496102342">
        <ele>2654.8</ele>
        <time>2019-01-07T13:26:24Z</time>
      </trkpt>
      <trkpt lat="37.072210459254" lon="-3.387573634917">
        <ele>2653.6</ele>
        <time>2019-01-07T13:26:26Z</time>
      </trkpt>
      <trkpt lat="37.072299391213" lon="-3.387658795021">
        <ele>2652.8</ele>
        <time>2019-01-07T13:26:28Z</time>
      </trkpt>
      <trkpt lat="37.072350688441" lon="-3.38769492101">
        <ele>2652.2</ele>
        <time>2019-01-07T13:26:29Z</time>
      </trkpt>
      <trkpt lat="37.072400644565" lon="-3.387740015632">
        <ele>2651.6</ele>
        <time>2019-01-07T13:26:30Z</time>
      </trkpt>
      <trkpt lat="37.072440207133" lon="-3.38780975304">
        <ele>2650.8</ele>
        <time>2019-01-07T13:26:31Z</time>
      </trkpt>
      <trkpt lat="37.072498628976" lon="-3.387827857944">
        <ele>2650</ele>
        <time>2019-01-07T13:26:32Z</time>
      </trkpt>
      <trkpt lat="37.072556883181" lon="-3.387825008098">
        <ele>2649</ele>
        <time>2019-01-07T13:26:33Z</time>
      </trkpt>
      <trkpt lat="37.072612036083" lon="-3.387835485473">
        <ele>2648.2</ele>
        <time>2019-01-07T13:26:34Z</time>
      </trkpt>
      <trkpt lat="37.072664925872" lon="-3.387865408856">
        <ele>2647.2</ele>
        <time>2019-01-07T13:26:35Z</time>
      </trkpt>
      <trkpt lat="37.072713876168" lon="-3.387911593125">
        <ele>2646.4</ele>
        <time>2019-01-07T13:26:36Z</time>
      </trkpt>
      <trkpt lat="37.072774644943" lon="-3.387956603928">
        <ele>2645.6</ele>
        <time>2019-01-07T13:26:37Z</time>
      </trkpt>
      <trkpt lat="37.072837509193" lon="-3.387973283909">
        <ele>2644.8</ele>
        <time>2019-01-07T13:26:38Z</time>
      </trkpt>
      <trkpt lat="37.072893667923" lon="-3.388003877844">
        <ele>2643.8</ele>
        <time>2019-01-07T13:26:39Z</time>
      </trkpt>
      <trkpt lat="37.072942282943" lon="-3.388055426529">
        <ele>2642.4</ele>
        <time>2019-01-07T13:26:40Z</time>
      </trkpt>
      <trkpt lat="37.072994837456" lon="-3.388116362942">
        <ele>2641</ele>
        <time>2019-01-07T13:26:41Z</time>
      </trkpt>
      <trkpt lat="37.07305569005" lon="-3.388192973508">
        <ele>2639.4</ele>
        <time>2019-01-07T13:26:42Z</time>
      </trkpt>
      <trkpt lat="37.0731269362" lon="-3.3882741103">
        <ele>2637.6</ele>
        <time>2019-01-07T13:26:43Z</time>
      </trkpt>
      <trkpt lat="37.07320153511" lon="-3.38836212025">
        <ele>2635</ele>
        <time>2019-01-07T13:26:44Z</time>
      </trkpt>
      <trkpt lat="37.073259789315" lon="-3.388470498217">
        <ele>2632.2</ele>
        <time>2019-01-07T13:26:45Z</time>
      </trkpt>
      <trkpt lat="37.073327347429" lon="-3.388585581704">
        <ele>2629.6</ele>
        <time>2019-01-07T13:26:46Z</time>
      </trkpt>
      <trkpt lat="37.073399012674" lon="-3.388698737354">
        <ele>2626.8</ele>
        <time>2019-01-07T13:26:47Z</time>
      </trkpt>
      <trkpt lat="37.073463720942" lon="-3.388825890777">
        <ele>2623.6</ele>
        <time>2019-01-07T13:26:48Z</time>
      </trkpt>
      <trkpt lat="37.073531614332" lon="-3.388946841594">
        <ele>2620.6</ele>
        <time>2019-01-07T13:26:49Z</time>
      </trkpt>
      <trkpt lat="37.073600010636" lon="-3.38906619985">
        <ele>2618</ele>
        <time>2019-01-07T13:26:50Z</time>
      </trkpt>
      <trkpt lat="37.073668826035" lon="-3.389199388241">
        <ele>2615.8</ele>
        <time>2019-01-07T13:26:51Z</time>
      </trkpt>
      <trkpt lat="37.073752142121" lon="-3.389323105085">
        <ele>2613.8</ele>
        <time>2019-01-07T13:26:52Z</time>
      </trkpt>
      <trkpt lat="37.073836128759" lon="-3.389442044246">
        <ele>2611.8</ele>
        <time>2019-01-07T13:26:53Z</time>
      </trkpt>
      <trkpt lat="37.073902932502" lon="-3.389588643677">
        <ele>2609.4</ele>
        <time>2019-01-07T13:26:54Z</time>
      </trkpt>
      <trkpt lat="37.073998318524" lon="-3.389712276702">
        <ele>2606.8</ele>
        <time>2019-01-07T13:26:55Z</time>
      </trkpt>
      <trkpt lat="37.07413611696" lon="-3.389750498166">
        <ele>2604</ele>
        <time>2019-01-07T13:26:56Z</time>
      </trkpt>
      <trkpt lat="37.074265449677" lon="-3.389805902525">
        <ele>2601.2</ele>
        <time>2019-01-07T13:26:57Z</time>
      </trkpt>
      <trkpt lat="37.074362679717" lon="-3.38990941899">
        <ele>2597.6</ele>
        <time>2019-01-07T13:26:58Z</time>
      </trkpt>
      <trkpt lat="37.074467285829" lon="-3.389994746732">
        <ele>2594</ele>
        <time>2019-01-07T13:26:59Z</time>
      </trkpt>
      <trkpt lat="37.074579100375" lon="-3.390013270731">
        <ele>2591</ele>
        <time>2019-01-07T13:27:00Z</time>
      </trkpt>
      <trkpt lat="37.07467842589" lon="-3.390026933228">
        <ele>2588</ele>
        <time>2019-01-07T13:27:01Z</time>
      </trkpt>
      <trkpt lat="37.074782696726" lon="-3.390013270731">
        <ele>2585</ele>
        <time>2019-01-07T13:27:02Z</time>
      </trkpt>
      <trkpt lat="37.074868192106" lon="-3.389960213304">
        <ele>2581.8</ele>
        <time>2019-01-07T13:27:03Z</time>
      </trkpt>
      <trkpt lat="37.074947736337" lon="-3.389908832257">
        <ele>2579.2</ele>
        <time>2019-01-07T13:27:04Z</time>
      </trkpt>
      <trkpt lat="37.075044798739" lon="-3.389864072911">
        <ele>2576.4</ele>
        <time>2019-01-07T13:27:05Z</time>
      </trkpt>
      <trkpt lat="37.075142112598" lon="-3.389817301909">
        <ele>2574</ele>
        <time>2019-01-07T13:27:06Z</time>
      </trkpt>
      <trkpt lat="37.075236828068" lon="-3.389777739341">
        <ele>2571.8</ele>
        <time>2019-01-07T13:27:07Z</time>
      </trkpt>
      <trkpt lat="37.075333303737" lon="-3.389741110438">
        <ele>2569.6</ele>
        <time>2019-01-07T13:27:08Z</time>
      </trkpt>
      <trkpt lat="37.075423409162" lon="-3.389701464051">
        <ele>2567.6</ele>
        <time>2019-01-07T13:27:09Z</time>
      </trkpt>
      <trkpt lat="37.075526757989" lon="-3.389692160142">
        <ele>2565.4</ele>
        <time>2019-01-07T13:27:10Z</time>
      </trkpt>
      <trkpt lat="37.075635555051" lon="-3.389688555925">
        <ele>2563.4</ele>
        <time>2019-01-07T13:27:11Z</time>
      </trkpt>
      <trkpt lat="37.075733790919" lon="-3.389655195963">
        <ele>2560.8</ele>
        <time>2019-01-07T13:27:12Z</time>
      </trkpt>
      <trkpt lat="37.07584015723" lon="-3.389622422734">
        <ele>2558</ele>
        <time>2019-01-07T13:27:13Z</time>
      </trkpt>
      <trkpt lat="37.07594493098" lon="-3.389582608709">
        <ele>2555.2</ele>
        <time>2019-01-07T13:27:14Z</time>
      </trkpt>
      <trkpt lat="37.076050626739" lon="-3.389544303426">
        <ele>2552.6</ele>
        <time>2019-01-07T13:27:15Z</time>
      </trkpt>
      <trkpt lat="37.076157663602" lon="-3.389530138015">
        <ele>2550</ele>
        <time>2019-01-07T13:27:16Z</time>
      </trkpt>
      <trkpt lat="37.076260760972" lon="-3.389558049742">
        <ele>2547</ele>
        <time>2019-01-07T13:27:17Z</time>
      </trkpt>
      <trkpt lat="37.076346591628" lon="-3.389608760237">
        <ele>2543.8</ele>
        <time>2019-01-07T13:27:18Z</time>
      </trkpt>
      <trkpt lat="37.076435858863" lon="-3.389645892054">
        <ele>2541</ele>
        <time>2019-01-07T13:27:19Z</time>
      </trkpt>
      <trkpt lat="37.07652831122" lon="-3.389645892054">
        <ele>2538.4</ele>
        <time>2019-01-07T13:27:20Z</time>
      </trkpt>
      <trkpt lat="37.076608861279" lon="-3.389601300346">
        <ele>2536.6</ele>
        <time>2019-01-07T13:27:21Z</time>
      </trkpt>
      <trkpt lat="37.076672060805" lon="-3.389535250974">
        <ele>2534.8</ele>
        <time>2019-01-07T13:27:22Z</time>
      </trkpt>
      <trkpt lat="37.076729560639" lon="-3.389471632353">
        <ele>2533.6</ele>
        <time>2019-01-07T13:27:23Z</time>
      </trkpt>
      <trkpt lat="37.076796615839" lon="-3.389427878835">
        <ele>2532.6</ele>
        <time>2019-01-07T13:27:24Z</time>
      </trkpt>
      <trkpt lat="37.076856714062" lon="-3.389386136973">
        <ele>2532</ele>
        <time>2019-01-07T13:27:25Z</time>
      </trkpt>
      <trkpt lat="37.07697506649" lon="-3.389285051259">
        <ele>2530.8</ele>
        <time>2019-01-07T13:27:27Z</time>
      </trkpt>
      <trkpt lat="37.07710582413" lon="-3.389176505654">
        <ele>2529.8</ele>
        <time>2019-01-07T13:27:29Z</time>
      </trkpt>
      <trkpt lat="37.07717455571" lon="-3.389125878978">
        <ele>2529</ele>
        <time>2019-01-07T13:27:30Z</time>
      </trkpt>
      <trkpt lat="37.07731285706" lon="-3.389015656993">
        <ele>2527.6</ele>
        <time>2019-01-07T13:27:32Z</time>
      </trkpt>
      <trkpt lat="37.077378068242" lon="-3.388960923186">
        <ele>2526.8</ele>
        <time>2019-01-07T13:27:33Z</time>
      </trkpt>
      <trkpt lat="37.077447135098" lon="-3.388917504944">
        <ele>2526</ele>
        <time>2019-01-07T13:27:34Z</time>
      </trkpt>
      <trkpt lat="37.077520057628" lon="-3.388883222973">
        <ele>2525.2</ele>
        <time>2019-01-07T13:27:35Z</time>
      </trkpt>
      <trkpt lat="37.077595075633" lon="-3.388852042305">
        <ele>2524.4</ele>
        <time>2019-01-07T13:27:36Z</time>
      </trkpt>
      <trkpt lat="37.077743602901" lon="-3.388781801983">
        <ele>2523.2</ele>
        <time>2019-01-07T13:27:38Z</time>
      </trkpt>
      <trkpt lat="37.077874360541" lon="-3.388699491725">
        <ele>2521.4</ele>
        <time>2019-01-07T13:27:40Z</time>
      </trkpt>
      <trkpt lat="37.077988689657" lon="-3.388604860074">
        <ele>2519.6</ele>
        <time>2019-01-07T13:27:42Z</time>
      </trkpt>
      <trkpt lat="37.078056163952" lon="-3.388492961709">
        <ele>2518.2</ele>
        <time>2019-01-07T13:27:44Z</time>
      </trkpt>
      <trkpt lat="37.078168229955" lon="-3.388435713332">
        <ele>2516.4</ele>
        <time>2019-01-07T13:27:46Z</time>
      </trkpt>
      <trkpt lat="37.078240062838" lon="-3.38840989708">
        <ele>2515.4</ele>
        <time>2019-01-07T13:27:47Z</time>
      </trkpt>
      <trkpt lat="37.078332179919" lon="-3.388419200989">
        <ele>2514</ele>
        <time>2019-01-07T13:27:48Z</time>
      </trkpt>
      <trkpt lat="37.07842681157" lon="-3.388425403595">
        <ele>2512.4</ele>
        <time>2019-01-07T13:27:49Z</time>
      </trkpt>
      <trkpt lat="37.078507613086" lon="-3.388431941477">
        <ele>2510</ele>
        <time>2019-01-07T13:27:50Z</time>
      </trkpt>
      <trkpt lat="37.078580535616" lon="-3.388472090778">
        <ele>2507.4</ele>
        <time>2019-01-07T13:27:51Z</time>
      </trkpt>
      <trkpt lat="37.078653877241" lon="-3.38851634721">
        <ele>2504.8</ele>
        <time>2019-01-07T13:27:52Z</time>
      </trkpt>
      <trkpt lat="37.078718669328" lon="-3.388566806248">
        <ele>2502.2</ele>
        <time>2019-01-07T13:27:53Z</time>
      </trkpt>
      <trkpt lat="37.07878807146" lon="-3.388636124561">
        <ele>2500</ele>
        <time>2019-01-07T13:27:54Z</time>
      </trkpt>
      <trkpt lat="37.078852947366" lon="-3.388697060974">
        <ele>2497.6</ele>
        <time>2019-01-07T13:27:55Z</time>
      </trkpt>
      <trkpt lat="37.078908603182" lon="-3.388751124229">
        <ele>2495.4</ele>
        <time>2019-01-07T13:27:56Z</time>
      </trkpt>
      <trkpt lat="37.078947243741" lon="-3.388820777818">
        <ele>2492.8</ele>
        <time>2019-01-07T13:27:57Z</time>
      </trkpt>
      <trkpt lat="37.078967276482" lon="-3.388910212691">
        <ele>2490.6</ele>
        <time>2019-01-07T13:27:58Z</time>
      </trkpt>
      <trkpt lat="37.078980603703" lon="-3.38900668836">
        <ele>2488.2</ele>
        <time>2019-01-07T13:27:59Z</time>
      </trkpt>
      <trkpt lat="37.078984962291" lon="-3.389116155974">
        <ele>2485.8</ele>
        <time>2019-01-07T13:28:00Z</time>
      </trkpt>
      <trkpt lat="37.078991164897" lon="-3.389236017144">
        <ele>2483.4</ele>
        <time>2019-01-07T13:28:01Z</time>
      </trkpt>
      <trkpt lat="37.079021423556" lon="-3.389350178622">
        <ele>2480.6</ele>
        <time>2019-01-07T13:28:02Z</time>
      </trkpt>
      <trkpt lat="37.079037600623" lon="-3.389472722">
        <ele>2477.6</ele>
        <time>2019-01-07T13:28:03Z</time>
      </trkpt>
      <trkpt lat="37.079053610052" lon="-3.389604569287">
        <ele>2474.4</ele>
        <time>2019-01-07T13:28:04Z</time>
      </trkpt>
      <trkpt lat="37.07907640882" lon="-3.389744463198">
        <ele>2471.2</ele>
        <time>2019-01-07T13:28:05Z</time>
      </trkpt>
      <trkpt lat="37.079100883968" lon="-3.389893158104">
        <ele>2467.4</ele>
        <time>2019-01-07T13:28:06Z</time>
      </trkpt>
      <trkpt lat="37.079117312492" lon="-3.390064400321">
        <ele>2463.8</ele>
        <time>2019-01-07T13:28:07Z</time>
      </trkpt>
      <trkpt lat="37.079136842319" lon="-3.390247963931">
        <ele>2460.4</ele>
        <time>2019-01-07T13:28:08Z</time>
      </trkpt>
      <trkpt lat="37.079167436254" lon="-3.390428845333">
        <ele>2457</ele>
        <time>2019-01-07T13:28:09Z</time>
      </trkpt>
      <trkpt lat="37.079199538931" lon="-3.390604613776">
        <ele>2453.2</ele>
        <time>2019-01-07T13:28:10Z</time>
      </trkpt>
      <trkpt lat="37.079211525048" lon="-3.390777532373">
        <ele>2449.4</ele>
        <time>2019-01-07T13:28:11Z</time>
      </trkpt>
      <trkpt lat="37.079220912776" lon="-3.390929244763">
        <ele>2446.8</ele>
        <time>2019-01-07T13:28:12Z</time>
      </trkpt>
      <trkpt lat="37.079247651037" lon="-3.391051620503">
        <ele>2444.8</ele>
        <time>2019-01-07T13:28:13Z</time>
      </trkpt>
      <trkpt lat="37.079288303252" lon="-3.391148515267">
        <ele>2443.2</ele>
        <time>2019-01-07T13:28:14Z</time>
      </trkpt>
      <trkpt lat="37.079325854164" lon="-3.39122956824">
        <ele>2441.8</ele>
        <time>2019-01-07T13:28:15Z</time>
      </trkpt>
      <trkpt lat="37.079339432842" lon="-3.391300730571">
        <ele>2440.6</ele>
        <time>2019-01-07T13:28:16Z</time>
      </trkpt>
      <trkpt lat="37.079401123626" lon="-3.391396535688">
        <ele>2439.4</ele>
        <time>2019-01-07T13:28:18Z</time>
      </trkpt>
      <trkpt lat="37.079412774467" lon="-3.391505248931">
        <ele>2437.6</ele>
        <time>2019-01-07T13:28:20Z</time>
      </trkpt>
      <trkpt lat="37.079396094486" lon="-3.391558390177">
        <ele>2436.6</ele>
        <time>2019-01-07T13:28:21Z</time>
      </trkpt>
      <trkpt lat="37.079367847483" lon="-3.39161094469">
        <ele>2435.4</ele>
        <time>2019-01-07T13:28:22Z</time>
      </trkpt>
      <trkpt lat="37.079340941584" lon="-3.391662577194">
        <ele>2434.4</ele>
        <time>2019-01-07T13:28:23Z</time>
      </trkpt>
      <trkpt lat="37.079310347649" lon="-3.391713790603">
        <ele>2433.4</ele>
        <time>2019-01-07T13:28:24Z</time>
      </trkpt>
      <trkpt lat="37.079288973804" lon="-3.391761232157">
        <ele>2432.6</ele>
        <time>2019-01-07T13:28:25Z</time>
      </trkpt>
      <trkpt lat="37.079295930781" lon="-3.391818899629">
        <ele>2432</ele>
        <time>2019-01-07T13:28:26Z</time>
      </trkpt>
      <trkpt lat="37.07931613116" lon="-3.391888469399">
        <ele>2431</ele>
        <time>2019-01-07T13:28:27Z</time>
      </trkpt>
      <trkpt lat="37.079328620191" lon="-3.391979077738">
        <ele>2430</ele>
        <time>2019-01-07T13:28:28Z</time>
      </trkpt>
      <trkpt lat="37.079360387592" lon="-3.392068009697">
        <ele>2428.4</ele>
        <time>2019-01-07T13:28:29Z</time>
      </trkpt>
      <trkpt lat="37.079404895481" lon="-3.392155265276">
        <ele>2426.4</ele>
        <time>2019-01-07T13:28:30Z</time>
      </trkpt>
      <trkpt lat="37.079443703678" lon="-3.392238749">
        <ele>2424.4</ele>
        <time>2019-01-07T13:28:31Z</time>
      </trkpt>
      <trkpt lat="37.079502125521" lon="-3.392322735638">
        <ele>2422</ele>
        <time>2019-01-07T13:28:32Z</time>
      </trkpt>
      <trkpt lat="37.079570270368" lon="-3.392396747815">
        <ele>2419.8</ele>
        <time>2019-01-07T13:28:33Z</time>
      </trkpt>
      <trkpt lat="37.079635062455" lon="-3.392455253477">
        <ele>2417.6</ele>
        <time>2019-01-07T13:28:34Z</time>
      </trkpt>
      <trkpt lat="37.079688706615" lon="-3.392527840731">
        <ele>2415.2</ele>
        <time>2019-01-07T13:28:35Z</time>
      </trkpt>
      <trkpt lat="37.079759617489" lon="-3.39259581794">
        <ele>2412.8</ele>
        <time>2019-01-07T13:28:36Z</time>
      </trkpt>
      <trkpt lat="37.07984167629" lon="-3.392642672761">
        <ele>2410.4</ele>
        <time>2019-01-07T13:28:37Z</time>
      </trkpt>
      <trkpt lat="37.079931530258" lon="-3.392661532036">
        <ele>2408</ele>
        <time>2019-01-07T13:28:38Z</time>
      </trkpt>
      <trkpt lat="37.080023395882" lon="-3.392684163166">
        <ele>2405.6</ele>
        <time>2019-01-07T13:28:39Z</time>
      </trkpt>
      <trkpt lat="37.080127079985" lon="-3.392710398513">
        <ele>2403.4</ele>
        <time>2019-01-07T13:28:40Z</time>
      </trkpt>
      <trkpt lat="37.080234871219" lon="-3.392733113462">
        <ele>2401.6</ele>
        <time>2019-01-07T13:28:41Z</time>
      </trkpt>
      <trkpt lat="37.080338387684" lon="-3.392767814528">
        <ele>2399.4</ele>
        <time>2019-01-07T13:28:42Z</time>
      </trkpt>
      <trkpt lat="37.080444083443" lon="-3.392832103701">
        <ele>2397</ele>
        <time>2019-01-07T13:28:43Z</time>
      </trkpt>
      <trkpt lat="37.080560256577" lon="-3.392877868875">
        <ele>2394.4</ele>
        <time>2019-01-07T13:28:44Z</time>
      </trkpt>
      <trkpt lat="37.080672238761" lon="-3.392915335968">
        <ele>2391.6</ele>
        <time>2019-01-07T13:28:45Z</time>
      </trkpt>
      <trkpt lat="37.080776425778" lon="-3.392982977901">
        <ele>2388.8</ele>
        <time>2019-01-07T13:28:46Z</time>
      </trkpt>
      <trkpt lat="37.080870889791" lon="-3.393030335636">
        <ele>2385.4</ele>
        <time>2019-01-07T13:28:47Z</time>
      </trkpt>
      <trkpt lat="37.080957390999" lon="-3.393065455797">
        <ele>2382.6</ele>
        <time>2019-01-07T13:28:48Z</time>
      </trkpt>
      <trkpt lat="37.0810310679" lon="-3.393118261767">
        <ele>2379.8</ele>
        <time>2019-01-07T13:28:49Z</time>
      </trkpt>
      <trkpt lat="37.081108935751" lon="-3.393166960606">
        <ele>2377.4</ele>
        <time>2019-01-07T13:28:50Z</time>
      </trkpt>
      <trkpt lat="37.081174146933" lon="-3.393174336678">
        <ele>2375.4</ele>
        <time>2019-01-07T13:28:51Z</time>
      </trkpt>
      <trkpt lat="37.081217062261" lon="-3.393181628931">
        <ele>2373.6</ele>
        <time>2019-01-07T13:28:52Z</time>
      </trkpt>
      <trkpt lat="37.081259977589" lon="-3.393207277545">
        <ele>2372</ele>
        <time>2019-01-07T13:28:53Z</time>
      </trkpt>
      <trkpt lat="37.081308341152" lon="-3.393221526775">
        <ele>2370.6</ele>
        <time>2019-01-07T13:28:54Z</time>
      </trkpt>
      <trkpt lat="37.081357207629" lon="-3.393240302231">
        <ele>2369.2</ele>
        <time>2019-01-07T13:28:55Z</time>
      </trkpt>
      <trkpt lat="37.081411438522" lon="-3.393260167334">
        <ele>2367.6</ele>
        <time>2019-01-07T13:28:56Z</time>
      </trkpt>
      <trkpt lat="37.081462316655" lon="-3.393260167334">
        <ele>2366</ele>
        <time>2019-01-07T13:28:57Z</time>
      </trkpt>
      <trkpt lat="37.081514284435" lon="-3.393270728528">
        <ele>2364</ele>
        <time>2019-01-07T13:28:58Z</time>
      </trkpt>
      <trkpt lat="37.081573628287" lon="-3.393284893939">
        <ele>2362.2</ele>
        <time>2019-01-07T13:28:59Z</time>
      </trkpt>
      <trkpt lat="37.081633810329" lon="-3.39325798804">
        <ele>2360.2</ele>
        <time>2019-01-07T13:29:00Z</time>
      </trkpt>
      <trkpt lat="37.081686700118" lon="-3.393207529002">
        <ele>2358</ele>
        <time>2019-01-07T13:29:01Z</time>
      </trkpt>
      <trkpt lat="37.081739086993" lon="-3.393195626704">
        <ele>2355.8</ele>
        <time>2019-01-07T13:29:02Z</time>
      </trkpt>
      <trkpt lat="37.081803627623" lon="-3.39321607854">
        <ele>2353.6</ele>
        <time>2019-01-07T13:29:03Z</time>
      </trkpt>
      <trkpt lat="37.081871101918" lon="-3.393196967808">
        <ele>2351.8</ele>
        <time>2019-01-07T13:29:04Z</time>
      </trkpt>
      <trkpt lat="37.081924410802" lon="-3.393217335825">
        <ele>2349.6</ele>
        <time>2019-01-07T13:29:05Z</time>
      </trkpt>
      <trkpt lat="37.081986353043" lon="-3.393250863425">
        <ele>2347.4</ele>
        <time>2019-01-07T13:29:06Z</time>
      </trkpt>
      <trkpt lat="37.082049887845" lon="-3.393258239497">
        <ele>2344.8</ele>
        <time>2019-01-07T13:29:07Z</time>
      </trkpt>
      <trkpt lat="37.082106800946" lon="-3.393294700762">
        <ele>2342.6</ele>
        <time>2019-01-07T13:29:08Z</time>
      </trkpt>
      <trkpt lat="37.082172179766" lon="-3.393341387945">
        <ele>2340.4</ele>
        <time>2019-01-07T13:29:09Z</time>
      </trkpt>
      <trkpt lat="37.08224309064" lon="-3.393363767618">
        <ele>2338.6</ele>
        <time>2019-01-07T13:29:10Z</time>
      </trkpt>
      <trkpt lat="37.082313163324" lon="-3.393383045988">
        <ele>2336.4</ele>
        <time>2019-01-07T13:29:11Z</time>
      </trkpt>
      <trkpt lat="37.082382565456" lon="-3.39344406622">
        <ele>2334.4</ele>
        <time>2019-01-07T13:29:12Z</time>
      </trkpt>
      <trkpt lat="37.082468396112" lon="-3.393511205239">
        <ele>2331.8</ele>
        <time>2019-01-07T13:29:13Z</time>
      </trkpt>
      <trkpt lat="37.082550538732" lon="-3.393566106684">
        <ele>2328.8</ele>
        <time>2019-01-07T13:29:14Z</time>
      </trkpt>
      <trkpt lat="37.082634273913" lon="-3.393613967333">
        <ele>2325</ele>
        <time>2019-01-07T13:29:15Z</time>
      </trkpt>
      <trkpt lat="37.082712309402" lon="-3.393667360036">
        <ele>2321.2</ele>
        <time>2019-01-07T13:29:16Z</time>
      </trkpt>
      <trkpt lat="37.082775676566" lon="-3.393729218458">
        <ele>2318.4</ele>
        <time>2019-01-07T13:29:17Z</time>
      </trkpt>
      <trkpt lat="37.082830829468" lon="-3.393812786001">
        <ele>2316</ele>
        <time>2019-01-07T13:29:18Z</time>
      </trkpt>
      <trkpt lat="37.082887072017" lon="-3.393901382684">
        <ele>2313.8</ele>
        <time>2019-01-07T13:29:19Z</time>
      </trkpt>
      <trkpt lat="37.082955049226" lon="-3.39398637515">
        <ele>2311.6</ele>
        <time>2019-01-07T13:29:20Z</time>
      </trkpt>
      <trkpt lat="37.083038616769" lon="-3.394061728431">
        <ele>2309.8</ele>
        <time>2019-01-07T13:29:21Z</time>
      </trkpt>
      <trkpt lat="37.083136433542" lon="-3.394115037315">
        <ele>2308.2</ele>
        <time>2019-01-07T13:29:22Z</time>
      </trkpt>
      <trkpt lat="37.083234082677" lon="-3.394164490525">
        <ele>2306.8</ele>
        <time>2019-01-07T13:29:23Z</time>
      </trkpt>
      <trkpt lat="37.083325613025" lon="-3.394225510757">
        <ele>2304.8</ele>
        <time>2019-01-07T13:29:24Z</time>
      </trkpt>
      <trkpt lat="37.083402391229" lon="-3.39432835667">
        <ele>2303</ele>
        <time>2019-01-07T13:29:25Z</time>
      </trkpt>
      <trkpt lat="37.083482606012" lon="-3.394413097679">
        <ele>2301.2</ele>
        <time>2019-01-07T13:29:26Z</time>
      </trkpt>
      <trkpt lat="37.083554774171" lon="-3.394506974959">
        <ele>2299.2</ele>
        <time>2019-01-07T13:29:27Z</time>
      </trkpt>
      <trkpt lat="37.083643287035" lon="-3.394583669344">
        <ele>2297.2</ele>
        <time>2019-01-07T13:29:28Z</time>
      </trkpt>
      <trkpt lat="37.083741019989" lon="-3.394657430064">
        <ele>2294.8</ele>
        <time>2019-01-07T13:29:29Z</time>
      </trkpt>
      <trkpt lat="37.083836154554" lon="-3.394741165245">
        <ele>2292.8</ele>
        <time>2019-01-07T13:29:30Z</time>
      </trkpt>
      <trkpt lat="37.083934138965" lon="-3.394848369746">
        <ele>2290.6</ele>
        <time>2019-01-07T13:29:31Z</time>
      </trkpt>
      <trkpt lat="37.084045031502" lon="-3.394940151551">
        <ele>2288.8</ele>
        <time>2019-01-07T13:29:32Z</time>
      </trkpt>
      <trkpt lat="37.084163048654" lon="-3.395026233664">
        <ele>2286.2</ele>
        <time>2019-01-07T13:29:33Z</time>
      </trkpt>
      <trkpt lat="37.084278299779" lon="-3.395090187561">
        <ele>2283</ele>
        <time>2019-01-07T13:29:34Z</time>
      </trkpt>
      <trkpt lat="37.084378212027" lon="-3.395150369603">
        <ele>2280</ele>
        <time>2019-01-07T13:29:35Z</time>
      </trkpt>
      <trkpt lat="37.08447854337" lon="-3.39523527825">
        <ele>2277.8</ele>
        <time>2019-01-07T13:29:36Z</time>
      </trkpt>
      <trkpt lat="37.084581892197" lon="-3.395305518572">
        <ele>2276</ele>
        <time>2019-01-07T13:29:37Z</time>
      </trkpt>
      <trkpt lat="37.084673590183" lon="-3.395369891564">
        <ele>2273.8</ele>
        <time>2019-01-07T13:29:38Z</time>
      </trkpt>
      <trkpt lat="37.084768640929" lon="-3.395454716392">
        <ele>2271.4</ele>
        <time>2019-01-07T13:29:39Z</time>
      </trkpt>
      <trkpt lat="37.084861512381" lon="-3.395540630867">
        <ele>2268.6</ele>
        <time>2019-01-07T13:29:40Z</time>
      </trkpt>
      <trkpt lat="37.084964442113" lon="-3.395606093506">
        <ele>2266.2</ele>
        <time>2019-01-07T13:29:41Z</time>
      </trkpt>
      <trkpt lat="37.08506359999" lon="-3.39567029886">
        <ele>2263.8</ele>
        <time>2019-01-07T13:29:42Z</time>
      </trkpt>
      <trkpt lat="37.085153453958" lon="-3.395761493932">
        <ele>2261.4</ele>
        <time>2019-01-07T13:29:43Z</time>
      </trkpt>
      <trkpt lat="37.085248253247" lon="-3.395852018452">
        <ele>2259.2</ele>
        <time>2019-01-07T13:29:44Z</time>
      </trkpt>
      <trkpt lat="37.085350428608" lon="-3.395916978177">
        <ele>2256.8</ele>
        <time>2019-01-07T13:29:45Z</time>
      </trkpt>
      <trkpt lat="37.085447574829" lon="-3.395982356997">
        <ele>2254.2</ele>
        <time>2019-01-07T13:29:46Z</time>
      </trkpt>
      <trkpt lat="37.085532902571" lon="-3.396073635888">
        <ele>2251.6</ele>
        <time>2019-01-07T13:29:47Z</time>
      </trkpt>
      <trkpt lat="37.085620661064" lon="-3.396167010254">
        <ele>2249.6</ele>
        <time>2019-01-07T13:29:48Z</time>
      </trkpt>
      <trkpt lat="37.085716633819" lon="-3.396243034087">
        <ele>2247.2</ele>
        <time>2019-01-07T13:29:49Z</time>
      </trkpt>
      <trkpt lat="37.085808834719" lon="-3.396319812291">
        <ele>2244.8</ele>
        <time>2019-01-07T13:29:50Z</time>
      </trkpt>
      <trkpt lat="37.085896425574" lon="-3.396412599924">
        <ele>2242.6</ele>
        <time>2019-01-07T13:29:51Z</time>
      </trkpt>
      <trkpt lat="37.085991895415" lon="-3.396503627358">
        <ele>2241.2</ele>
        <time>2019-01-07T13:29:52Z</time>
      </trkpt>
      <trkpt lat="37.086100357201" lon="-3.396555762776">
        <ele>2239.6</ele>
        <time>2019-01-07T13:29:53Z</time>
      </trkpt>
      <trkpt lat="37.086205801503" lon="-3.396600438303">
        <ele>2237.4</ele>
        <time>2019-01-07T13:29:54Z</time>
      </trkpt>
      <trkpt lat="37.086315939669" lon="-3.39666103944">
        <ele>2234.8</ele>
        <time>2019-01-07T13:29:55Z</time>
      </trkpt>
      <trkpt lat="37.086432867174" lon="-3.396716611437">
        <ele>2232.2</ele>
        <time>2019-01-07T13:29:56Z</time>
      </trkpt>
      <trkpt lat="37.086564546823" lon="-3.396754329987">
        <ele>2230</ele>
        <time>2019-01-07T13:29:57Z</time>
      </trkpt>
      <trkpt lat="37.086693460445" lon="-3.396798418781">
        <ele>2227.4</ele>
        <time>2019-01-07T13:29:58Z</time>
      </trkpt>
      <trkpt lat="37.086817764022" lon="-3.396866312171">
        <ele>2224.8</ele>
        <time>2019-01-07T13:29:59Z</time>
      </trkpt>
      <trkpt lat="37.086948940757" lon="-3.396941581633">
        <ele>2222</ele>
        <time>2019-01-07T13:30:00Z</time>
      </trkpt>
      <trkpt lat="37.087086068641" lon="-3.397004864978">
        <ele>2219</ele>
        <time>2019-01-07T13:30:01Z</time>
      </trkpt>
      <trkpt lat="37.087221771602" lon="-3.397072758368">
        <ele>2215.6</ele>
        <time>2019-01-07T13:30:02Z</time>
      </trkpt>
      <trkpt lat="37.087348003016" lon="-3.39716143887">
        <ele>2212</ele>
        <time>2019-01-07T13:30:03Z</time>
      </trkpt>
      <trkpt lat="37.087478760656" lon="-3.397256070521">
        <ele>2209.2</ele>
        <time>2019-01-07T13:30:04Z</time>
      </trkpt>
      <trkpt lat="37.087602226043" lon="-3.397342907005">
        <ele>2206.2</ele>
        <time>2019-01-07T13:30:05Z</time>
      </trkpt>
      <trkpt lat="37.087721584299" lon="-3.397432928611">
        <ele>2203.2</ele>
        <time>2019-01-07T13:30:06Z</time>
      </trkpt>
      <trkpt lat="37.087837673614" lon="-3.397532589402">
        <ele>2199.8</ele>
        <time>2019-01-07T13:30:07Z</time>
      </trkpt>
      <trkpt lat="37.087958875888" lon="-3.397613558556">
        <ele>2196.8</ele>
        <time>2019-01-07T13:30:08Z</time>
      </trkpt>
      <trkpt lat="37.088077312135" lon="-3.397680027023">
        <ele>2194.4</ele>
        <time>2019-01-07T13:30:09Z</time>
      </trkpt>
      <trkpt lat="37.088183007894" lon="-3.397744400015">
        <ele>2192.2</ele>
        <time>2019-01-07T13:30:10Z</time>
      </trkpt>
      <trkpt lat="37.088281579038" lon="-3.397819837115">
        <ele>2190.2</ele>
        <time>2019-01-07T13:30:11Z</time>
      </trkpt>
      <trkpt lat="37.088385430779" lon="-3.397892089093">
        <ele>2188.2</ele>
        <time>2019-01-07T13:30:12Z</time>
      </trkpt>
      <trkpt lat="37.088494060203" lon="-3.397939865923">
        <ele>2186.4</ele>
        <time>2019-01-07T13:30:13Z</time>
      </trkpt>
      <trkpt lat="37.088610317156" lon="-3.397967190917">
        <ele>2184.6</ele>
        <time>2019-01-07T13:30:14Z</time>
      </trkpt>
      <trkpt lat="37.088725568281" lon="-3.397984625269">
        <ele>2182.4</ele>
        <time>2019-01-07T13:30:15Z</time>
      </trkpt>
      <trkpt lat="37.08882707309" lon="-3.397990492599">
        <ele>2180.4</ele>
        <time>2019-01-07T13:30:16Z</time>
      </trkpt>
      <trkpt lat="37.088927320614" lon="-3.398000550879">
        <ele>2178.6</ele>
        <time>2019-01-07T13:30:17Z</time>
      </trkpt>
      <trkpt lat="37.089034357477" lon="-3.398012117901">
        <ele>2177.2</ele>
        <time>2019-01-07T13:30:18Z</time>
      </trkpt>
      <trkpt lat="37.089134269725" lon="-3.39802393638">
        <ele>2175.8</ele>
        <time>2019-01-07T13:30:19Z</time>
      </trkpt>
      <trkpt lat="37.089237702371" lon="-3.398037598877">
        <ele>2174.4</ele>
        <time>2019-01-07T13:30:20Z</time>
      </trkpt>
      <trkpt lat="37.089341218836" lon="-3.398046399872">
        <ele>2173.2</ele>
        <time>2019-01-07T13:30:21Z</time>
      </trkpt>
      <trkpt lat="37.089448842432" lon="-3.398051345193">
        <ele>2172.2</ele>
        <time>2019-01-07T13:30:22Z</time>
      </trkpt>
      <trkpt lat="37.089659479579" lon="-3.39808596244">
        <ele>2170.2</ele>
        <time>2019-01-07T13:30:24Z</time>
      </trkpt>
      <trkpt lat="37.08975914037" lon="-3.398114628538">
        <ele>2169</ele>
        <time>2019-01-07T13:30:25Z</time>
      </trkpt>
      <trkpt lat="37.089859387894" lon="-3.398141199161">
        <ele>2167.6</ele>
        <time>2019-01-07T13:30:26Z</time>
      </trkpt>
      <trkpt lat="37.089954187183" lon="-3.398164668481">
        <ele>2166.4</ele>
        <time>2019-01-07T13:30:27Z</time>
      </trkpt>
      <trkpt lat="37.090044544065" lon="-3.398187467249">
        <ele>2165</ele>
        <time>2019-01-07T13:30:28Z</time>
      </trkpt>
      <trkpt lat="37.090133308386" lon="-3.39821169094">
        <ele>2163.8</ele>
        <time>2019-01-07T13:30:29Z</time>
      </trkpt>
      <trkpt lat="37.090305388793" lon="-3.398258964856">
        <ele>2161.8</ele>
        <time>2019-01-07T13:30:31Z</time>
      </trkpt>
      <trkpt lat="37.090464141979" lon="-3.398302886012">
        <ele>2160.2</ele>
        <time>2019-01-07T13:30:33Z</time>
      </trkpt>
      <trkpt lat="37.090604538804" lon="-3.398340939838">
        <ele>2159</ele>
        <time>2019-01-07T13:30:35Z</time>
      </trkpt>
      <trkpt lat="37.090809308621" lon="-3.398375557085">
        <ele>2157.4</ele>
        <time>2019-01-07T13:30:38Z</time>
      </trkpt>
      <trkpt lat="37.090872843423" lon="-3.398384190442">
        <ele>2156.8</ele>
        <time>2019-01-07T13:30:39Z</time>
      </trkpt>
      <trkpt lat="37.090933025465" lon="-3.398399529319">
        <ele>2156.2</ele>
        <time>2019-01-07T13:30:40Z</time>
      </trkpt>
      <trkpt lat="37.091046684029" lon="-3.398430542349">
        <ele>2155</ele>
        <time>2019-01-07T13:30:42Z</time>
      </trkpt>
      <trkpt lat="37.091201832998" lon="-3.39846398613">
        <ele>2153.8</ele>
        <time>2019-01-07T13:30:45Z</time>
      </trkpt>
      <trkpt lat="37.091362178745" lon="-3.398488880373">
        <ele>2152.6</ele>
        <time>2019-01-07T13:30:48Z</time>
      </trkpt>
      <trkpt lat="37.091466114305" lon="-3.398513355521">
        <ele>2151.4</ele>
        <time>2019-01-07T13:30:50Z</time>
      </trkpt>
      <trkpt lat="37.09162076036" lon="-3.398545625836">
        <ele>2150</ele>
        <time>2019-01-07T13:30:53Z</time>
      </trkpt>
      <trkpt lat="37.091674572158" lon="-3.398558366324">
        <ele>2149.8</ele>
        <time>2019-01-07T13:30:54Z</time>
      </trkpt>
      <trkpt lat="37.091878168509" lon="-3.398606143154">
        <ele>2148.8</ele>
        <time>2019-01-07T13:30:58Z</time>
      </trkpt>
      <trkpt lat="37.092035245315" lon="-3.398646879188">
        <ele>2147.4</ele>
        <time>2019-01-07T13:31:01Z</time>
      </trkpt>
      <trkpt lat="37.092193663225" lon="-3.398689626878">
        <ele>2146</ele>
        <time>2019-01-07T13:31:04Z</time>
      </trkpt>
      <trkpt lat="37.092357277913" lon="-3.398715694587">
        <ele>2145</ele>
        <time>2019-01-07T13:31:07Z</time>
      </trkpt>
      <trkpt lat="37.092500692222" lon="-3.398719298804">
        <ele>2143.8</ele>
        <time>2019-01-07T13:31:10Z</time>
      </trkpt>
      <trkpt lat="37.092714095396" lon="-3.398669258861">
        <ele>2142.8</ele>
        <time>2019-01-07T13:31:16Z</time>
      </trkpt>
      <trkpt lat="37.092736139793" lon="-3.39865509345">
        <ele>2142.8</ele>
        <time>2019-01-07T13:31:17Z</time>
      </trkpt>
      <trkpt lat="37.092911321503" lon="-3.39859306739">
        <ele>2142.8</ele>
        <time>2019-01-07T13:31:23Z</time>
      </trkpt>
      <trkpt lat="37.09309429838" lon="-3.398559791247">
        <ele>2142.2</ele>
        <time>2019-01-07T13:31:29Z</time>
      </trkpt>
      <trkpt lat="37.093136375518" lon="-3.398591474829">
        <ele>2141.8</ele>
        <time>2019-01-07T13:31:31Z</time>
      </trkpt>
      <trkpt lat="37.093150289472" lon="-3.398596503969">
        <ele>2141.6</ele>
        <time>2019-01-07T13:31:32Z</time>
      </trkpt>
      <trkpt lat="37.093173004421" lon="-3.398605137326">
        <ele>2141.2</ele>
        <time>2019-01-07T13:31:35Z</time>
      </trkpt>
      <trkpt lat="37.093564355332" lon="-3.400297023841">
        <ele>2133.2</ele>
        <time>2019-01-07T13:44:37Z</time>
      </trkpt>
      <trkpt lat="37.093555554337" lon="-3.400286378828">
        <ele>2133.4</ele>
        <time>2019-01-07T13:44:38Z</time>
      </trkpt>
      <trkpt lat="37.093550944292" lon="-3.400413364613">
        <ele>2133.8</ele>
        <time>2019-01-07T13:47:44Z</time>
      </trkpt>
      <trkpt lat="37.093552704491" lon="-3.400271710503">
        <ele>2134</ele>
        <time>2019-01-07T13:47:50Z</time>
      </trkpt>
      <trkpt lat="37.093518757796" lon="-3.400291575606">
        <ele>2134</ele>
        <time>2019-01-07T13:47:53Z</time>
      </trkpt>
      <trkpt lat="37.09347902759" lon="-3.400340861178">
        <ele>2133.8</ele>
        <time>2019-01-07T13:47:58Z</time>
      </trkpt>
      <trkpt lat="37.093464610722" lon="-3.400375478425">
        <ele>2133.8</ele>
        <time>2019-01-07T13:48:02Z</time>
      </trkpt>
    </trkseg>
  </trk>
</gpx>